Darstellungsparameter: Aktuell verwendete Einstellungen:
Skalierung der Graphiken ... ?
xyx+y,   Skalierungsfaktor:      Skalierung: Modus: x, Faktor: 1
Darstellungszeitraum ... ?
Vom - - bis: - -   Zeitraum: 28.12.2013 - 27.06.2014
Min/Max/Avg-Anzeige ... ?
Zeige MMA aktuell
Zeige MMA Monat
Zeige MMA alles
Zeige --A aktuell
Zeige --A Monat
Zeige --A alles
Keine MMA-Anzeige
MMA:
Keine MMA-Graphiken
MMA-Basis: 28.12.2013 - 27.06.2014
Quicknavigation für Darstellung... ?
Tage:      1T, 2T, 3T, 5T -1T -2T -3T -5T +1T +2T +3T +5T
Wochen: 1W, 2W, 3W -1W -2W -3W +1W +2W +3W
Monate: 1M, 3M, 6M -1M -3M -6M +1M +3M +6M
Jahre:    1J, 3J, 5J, 10J -1J -3J -5J -10J +1J +3J +5J +10J
Nutze für die Darstellung ... ?
Originaldaten oder ...
Mittelwerte Minima Maxima auf...
Stundenbasis Tagesbasis Wochenbasis
Monatsbasis Jahresbasis      Datenbasis: Mittelwerte auf Stundenbasis
Darstellen als:
Statistik (Auto) Statistik J:M      Darstellung:
Zur Graphik,    zurück zur Übersicht aller Sensoren.
 
Tabellarische Datenbersicht: ?
 
Sensor: Nr:Datum:Temp:Abs-Feuchte:Windchill:Wind:
Aussen-T/F 1 28-12-2013 00:00:00 9.71667 C 8.38 g/m*3 9.72 C 4.675 km/h
2 28-12-2013 01:00:00 9.94167 C 8.27 g/m*3 9.94 C 3.2 km/h
3 28-12-2013 02:00:00 10.85 C 8.06 g/m*3 10.37 C 6.3 km/h
4 28-12-2013 03:00:00 10.79167 C 7.87 g/m*3 10.45 C 5.74167 km/h
5 28-12-2013 04:00:00 10.54167 C 7.77 g/m*3 10.54 C 4.8 km/h
6 28-12-2013 05:00:00 9.9 C 7.99 g/m*3 9.9 C 4.275 km/h
7 28-12-2013 06:00:00 9.20833 C 7.94 g/m*3 9.21 C 4.53333 km/h
8 28-12-2013 07:00:00 9.35 C 7.86 g/m*3 9.35 C 4.95 km/h
9 28-12-2013 08:00:00 10.06667 C 7.96 g/m*3 9.16 C 7.64167 km/h
10 28-12-2013 09:00:00 9.95833 C 7.92 g/m*3 8.95 C 8.05833 km/h
11 28-12-2013 10:00:00 10.25 C 8.07 g/m*3 8.87 C 10.34167 km/h
12 28-12-2013 11:00:00 10.48333 C 8.19 g/m*3 9.95 C 6.30833 km/h
13 28-12-2013 12:00:00 9.84167 C 8.47 g/m*3 9.84 C 2.54167 km/h
14 28-12-2013 13:00:00 9.45 C 8.51 g/m*3 9.45 C 0.4 km/h
15 28-12-2013 14:00:00 9.36667 C 8.57 g/m*3 9.37 C 0.13333 km/h
16 28-12-2013 15:00:00 9.24167 C 8.58 g/m*3 9.24 C 0 km/h
17 28-12-2013 16:00:00 8.86667 C 8.4 g/m*3 8.87 C 0 km/h
18 28-12-2013 17:00:00 8.51667 C 8.28 g/m*3 8.52 C 0.13333 km/h
19 28-12-2013 18:00:00 8.24167 C 8.15 g/m*3 8.24 C 0 km/h
20 28-12-2013 19:00:00 7.93333 C 7.98 g/m*3 7.93 C 0.4 km/h
21 28-12-2013 20:00:00 7.73333 C 7.9 g/m*3 7.73 C 0.13333 km/h
22 28-12-2013 21:00:00 7.29167 C 7.67 g/m*3 7.29 C 4.28333 km/h
23 28-12-2013 22:00:00 6.58333 C 7.08 g/m*3 5.58 C 5.89167 km/h
24 28-12-2013 23:00:00 5.34167 C 6.43 g/m*3 2.65 C 12.09167 km/h
25 29-12-2013 00:00:00 4.66667 C 6.21 g/m*3 3.19 C 6.45 km/h
Sensor: Nr:Datum:Temp:Abs-Feuchte:Windchill:Wind:
Aussen-T/F 26 29-12-2013 01:00:00 4.4 C 6.2 g/m*3 4.4 C 2.13333 km/h
27 29-12-2013 02:00:00 5.075 C 6.29 g/m*3 2.3 C 12.23333 km/h
28 29-12-2013 03:00:00 5.3 C 6.27 g/m*3 3.65 C 7.375 km/h
29 29-12-2013 04:00:00 5.60833 C 6.45 g/m*3 5.61 C 4.95 km/h
30 29-12-2013 05:00:00 5.46667 C 6.59 g/m*3 5.47 C 1.6 km/h
31 29-12-2013 06:00:00 5.51667 C 6.66 g/m*3 5.52 C 3.475 km/h
32 29-12-2013 07:00:00 5.025 C 6.48 g/m*3 5.03 C 2.93333 km/h
33 29-12-2013 08:00:00 5.10833 C 6.57 g/m*3 5.11 C 3.75 km/h
34 29-12-2013 09:00:00 4.925 C 6.46 g/m*3 4.93 C 3.86667 km/h
35 29-12-2013 10:00:00 5.05 C 6.47 g/m*3 5.05 C 4.97 km/h
36 29-12-2013 13:00:00 7.16667 C 6.66 g/m*3 5.1 C 10.76667 km/h
37 29-12-2013 18:00:00 3.62 C 6.2 g/m*3 3.62 C 3.84 km/h
38 29-12-2013 21:00:00 2.95 C 5.57 g/m*3 2.95 C 4.8 km/h
39 29-12-2013 22:00:00 3.375 C 5.74 g/m*3 3.38 C 4.95833 km/h
40 29-12-2013 23:00:00 2.65 C 5.51 g/m*3 2.65 C 2.54167 km/h
41 30-12-2013 00:00:00 3.13333 C 5.66 g/m*3 3.13 C 3.48333 km/h
42 30-12-2013 01:00:00 3.69167 C 5.82 g/m*3 3.69 C 2.80833 km/h
43 30-12-2013 02:00:00 4.26667 C 5.86 g/m*3 4.27 C 3.6 km/h
44 30-12-2013 03:00:00 3.89167 C 5.75 g/m*3 3.89 C 3.73333 km/h
45 30-12-2013 04:00:00 4.35 C 5.8 g/m*3 4.35 C 3.60833 km/h
46 30-12-2013 05:00:00 4.66667 C 5.76 g/m*3 4.67 C 3.075 km/h
47 30-12-2013 06:00:00 4.82 C 5.68 g/m*3 4.82 C 3.2 km/h
48 30-12-2013 07:00:00 4.8 C 5.63 g/m*3 4.8 C 3.2 km/h
49 30-12-2013 13:00:00 6 C 5.81 g/m*3 4.73 C 6.45 km/h
50 30-12-2013 14:00:00 5.77143 C 5.81 g/m*3 5.77 C 3.2 km/h
Sensor: Nr:Datum:Temp:Abs-Feuchte:Windchill:Wind:
Aussen-T/F 51 30-12-2013 15:00:00 4.7 C 5.86 g/m*3 4.7 C 2.4 km/h
52 30-12-2013 16:00:00 4.2 C 5.8 g/m*3 4.2 C 1.6 km/h
53 30-12-2013 18:00:00 4.16667 C 5.79 g/m*3 4.17 C 2.66667 km/h
54 30-12-2013 20:00:00 3.7 C 5.73 g/m*3 3.7 C 0 km/h
55 30-12-2013 21:00:00 3.70833 C 5.74 g/m*3 3.71 C 0 km/h
56 30-12-2013 22:00:00 3.8 C 5.77 g/m*3 3.8 C 0.53333 km/h
57 31-12-2013 01:00:00 3.33333 C 5.53 g/m*3 3.33 C 3.2 km/h
58 31-12-2013 02:00:00 3.2 C 5.48 g/m*3 3.2 C 3.2 km/h
59 31-12-2013 07:00:00 1.02727 C 4.96 g/m*3 1.03 C 2.03636 km/h
60 31-12-2013 08:00:00 1.075 C 4.96 g/m*3 1.08 C 0.4 km/h
61 31-12-2013 09:00:00 1.15 C 5 g/m*3 1.15 C 0.13333 km/h
62 31-12-2013 10:00:00 1.78333 C 5.26 g/m*3 1.78 C 0.26667 km/h
63 31-12-2013 11:00:00 2.7 C 5.56 g/m*3 2.7 C 0.64 km/h
64 31-12-2013 12:00:00 3.1 C 5.78 g/m*3 3.1 C 2.4 km/h
65 31-12-2013 13:00:00 4.35 C 5.92 g/m*3 4.35 C 1.2 km/h
66 31-12-2013 18:00:00 4.14444 C 5.4 g/m*3 1.93 C 8.76667 km/h
67 31-12-2013 19:00:00 4.60833 C 5.38 g/m*3 2.59 C 8.325 km/h
68 31-12-2013 20:00:00 4.35833 C 5.39 g/m*3 3.11 C 5.63333 km/h
69 31-12-2013 21:00:00 3.925 C 5.39 g/m*3 3.93 C 3.20833 km/h
70 31-12-2013 22:00:00 3.8 C 5.29 g/m*3 3.8 C 4.55 km/h
71 31-12-2013 23:00:00 2.775 C 5.23 g/m*3 2.78 C 2.13333 km/h
72 01-01-2014 00:00:00 2.65 C 5.19 g/m*3 2.65 C 1.46667 km/h
73 01-01-2014 01:00:00 3 C 5.35 g/m*3 3 C 1.2 km/h
74 01-01-2014 02:00:00 3.675 C 5.46 g/m*3 3.68 C 2.80833 km/h
75 01-01-2014 03:00:00 4.36667 C 5.71 g/m*3 4.37 C 2 km/h
Sensor: Nr:Datum:Temp:Abs-Feuchte:Windchill:Wind:
Aussen-T/F 76 01-01-2014 04:00:00 4.60833 C 5.98 g/m*3 4.61 C 1.46667 km/h
77 01-01-2014 05:00:00 5.16667 C 6.13 g/m*3 5.17 C 1.86667 km/h
78 01-01-2014 06:00:00 5.48333 C 6.37 g/m*3 5.48 C 0.66667 km/h
79 01-01-2014 07:00:00 5.575 C 6.53 g/m*3 5.58 C 0.53333 km/h
80 01-01-2014 08:00:00 5.025 C 6.34 g/m*3 5.03 C 2.26667 km/h
81 01-01-2014 09:00:00 5.1 C 6.48 g/m*3 5.1 C 1.24444 km/h
82 01-01-2014 10:00:00 6.325 C 6.68 g/m*3 6.33 C 1.6 km/h
83 01-01-2014 11:00:00 7.025 C 6.8 g/m*3 7.03 C 2.54167 km/h
84 01-01-2014 12:00:00 6.95833 C 6.82 g/m*3 6.96 C 2.93333 km/h
85 01-01-2014 13:00:00 8.69167 C 6.7 g/m*3 8.69 C 4.14167 km/h
86 01-01-2014 14:00:00 8.78333 C 6.79 g/m*3 8.78 C 4.68333 km/h
87 01-01-2014 15:00:00 8.39167 C 6.83 g/m*3 8.39 C 2.8 km/h
88 01-01-2014 16:00:00 7.6 C 6.76 g/m*3 7.6 C 4.55 km/h
89 01-01-2014 17:00:00 7.8 C 6.87 g/m*3 7.01 C 5.76667 km/h
90 01-01-2014 18:00:00 7.95 C 6.98 g/m*3 6.75 C 7.38333 km/h
91 01-01-2014 19:00:00 8.15 C 6.91 g/m*3 7.29 C 6.175 km/h
92 01-01-2014 20:00:00 7.91667 C 6.93 g/m*3 7.92 C 4.81667 km/h
93 01-01-2014 21:00:00 8.5 C 6.97 g/m*3 7.59 C 6.575 km/h
94 01-01-2014 22:00:00 8.13333 C 6.98 g/m*3 7.57 C 5.21667 km/h
95 01-01-2014 23:00:00 8.04167 C 7.02 g/m*3 7.42 C 5.35 km/h
96 02-01-2014 00:00:00 8.63333 C 7.11 g/m*3 8.09 C 5.35833 km/h
97 02-01-2014 01:00:00 8.89167 C 7.19 g/m*3 8.34 C 5.49167 km/h
98 02-01-2014 02:00:00 9.375 C 7.42 g/m*3 8.51 C 6.96667 km/h
99 02-01-2014 03:00:00 8.95833 C 7.53 g/m*3 8.96 C 4.95 km/h
100 02-01-2014 04:00:00 8.1 C 7.57 g/m*3 8.1 C 4.8 km/h
Sensor: Nr:Datum:Temp:Abs-Feuchte:Windchill:Wind:
Aussen-T/F 101 02-01-2014 05:00:00 7.69167 C 7.57 g/m*3 7.69 C 3.46667 km/h
102 02-01-2014 06:00:00 7.7 C 7.66 g/m*3 7.7 C 3.2 km/h
103 02-01-2014 07:00:00 7.84545 C 7.78 g/m*3 7.85 C 3.64545 km/h
104 02-01-2014 08:00:00 8.8 C 8.18 g/m*3 7.47 C 8.6 km/h
105 02-01-2014 09:00:00 9.08 C 8.05 g/m*3 9.08 C 3.52 km/h
106 02-01-2014 10:00:00 9.53333 C 8.18 g/m*3 9.53 C 4.68333 km/h
107 02-01-2014 11:00:00 10.38333 C 8.52 g/m*3 10.38 C 4.66667 km/h
108 02-01-2014 12:00:00 11.01667 C 8.3 g/m*3 11.02 C 9.79167 km/h
109 02-01-2014 13:00:00 10.89167 C 7.94 g/m*3 8.96 C 15.43333 km/h
110 02-01-2014 14:00:00 10.54167 C 7.84 g/m*3 8.63 C 14.63333 km/h
111 02-01-2014 15:00:00 9.29167 C 7.74 g/m*3 8.13 C 8.2 km/h
112 02-01-2014 16:00:00 8.70833 C 7.31 g/m*3 7.23 C 9.275 km/h
113 02-01-2014 17:00:00 7.71111 C 7.08 g/m*3 7.71 C 4.45556 km/h
114 02-01-2014 18:00:00 6.81667 C 7.02 g/m*3 6.82 C 2.8 km/h
115 02-01-2014 19:00:00 6.80833 C 7.14 g/m*3 6.81 C 3.2 km/h
116 02-01-2014 20:00:00 6.31667 C 7.01 g/m*3 6.32 C 2.93333 km/h
117 02-01-2014 21:00:00 6.06667 C 6.88 g/m*3 6.07 C 2.66667 km/h
118 02-01-2014 22:00:00 5.85 C 6.8 g/m*3 5.85 C 2.13333 km/h
119 02-01-2014 23:00:00 4.95833 C 6.43 g/m*3 4.96 C 0.13333 km/h
120 03-01-2014 00:00:00 4.025 C 6.1 g/m*3 4.03 C 0.26667 km/h
121 03-01-2014 01:00:00 3.80833 C 6.06 g/m*3 3.81 C 0.26667 km/h
122 03-01-2014 02:00:00 4.39167 C 6.33 g/m*3 4.39 C 1.73333 km/h
123 03-01-2014 03:00:00 5.03333 C 6.63 g/m*3 5.03 C 2.26667 km/h
124 03-01-2014 04:00:00 6.08333 C 7.02 g/m*3 6.08 C 3.46667 km/h
125 03-01-2014 05:00:00 5.925 C 6.8 g/m*3 5.93 C 3.48333 km/h
Sensor: Nr:Datum:Temp:Abs-Feuchte:Windchill:Wind:
Aussen-T/F 126 03-01-2014 06:00:00 5.71667 C 6.81 g/m*3 5.72 C 3.33333 km/h
127 03-01-2014 07:00:00 5.91667 C 6.9 g/m*3 5.92 C 2.8 km/h
128 03-01-2014 08:00:00 6.175 C 7.05 g/m*3 6.18 C 1.2 km/h
129 03-01-2014 09:00:00 7.31667 C 7.34 g/m*3 7.32 C 4.94167 km/h
130 03-01-2014 10:00:00 9.15 C 7.83 g/m*3 8.38 C 6.43333 km/h
131 03-01-2014 11:00:00 9.28333 C 8.08 g/m*3 8.83 C 5.36667 km/h
132 03-01-2014 12:00:00 10.55 C 8.46 g/m*3 8.95 C 12.225 km/h
133 03-01-2014 13:00:00 11.08333 C 8.48 g/m*3 11.08 C 8.18333 km/h
134 03-01-2014 14:00:00 12.00833 C 8.41 g/m*3 12.01 C 8.59167 km/h
135 03-01-2014 15:00:00 11.86667 C 8.37 g/m*3 11.87 C 4.68333 km/h
136 03-01-2014 16:00:00 11.06667 C 8.28 g/m*3 11.07 C 4.68333 km/h
137 03-01-2014 17:00:00 10.85 C 8.18 g/m*3 10.41 C 6.16667 km/h
138 03-01-2014 18:00:00 10.96667 C 8.17 g/m*3 10.08 C 8.33333 km/h
139 03-01-2014 19:00:00 11.86667 C 8.16 g/m*3 11.87 C 11.01667 km/h
140 03-01-2014 20:00:00 12.36667 C 8.05 g/m*3 12.37 C 20.78333 km/h
141 03-01-2014 21:00:00 12.08333 C 7.84 g/m*3 12.08 C 20.375 km/h
142 03-01-2014 22:00:00 11.55 C 7.49 g/m*3 11.55 C 16.63333 km/h
143 03-01-2014 23:00:00 10.88333 C 6.91 g/m*3 8.92 C 15.7 km/h
144 04-01-2014 00:00:00 9.73333 C 6.63 g/m*3 8.23 C 10.475 km/h
145 04-01-2014 01:00:00 8.58333 C 6.7 g/m*3 8.04 C 5.35 km/h
146 04-01-2014 02:00:00 7.55833 C 6.71 g/m*3 7.56 C 4.80833 km/h
147 04-01-2014 03:00:00 7.925 C 6.75 g/m*3 7.93 C 4.54167 km/h
148 04-01-2014 04:00:00 7.38333 C 6.81 g/m*3 7.38 C 2.66667 km/h
149 04-01-2014 05:00:00 6.20833 C 6.56 g/m*3 6.21 C 3.2 km/h
150 04-01-2014 06:00:00 5.3 C 6.37 g/m*3 5.3 C 3.6 km/h
Sensor: Nr:Datum:Temp:Abs-Feuchte:Windchill:Wind:
Aussen-T/F 151 04-01-2014 07:00:00 6.10833 C 6.59 g/m*3 5.17 C 5.48333 km/h
152 04-01-2014 08:00:00 7.01667 C 6.74 g/m*3 5.8 C 6.85 km/h
153 04-01-2014 09:00:00 7.20833 C 6.81 g/m*3 6.1 C 6.55 km/h
154 04-01-2014 10:00:00 7.91667 C 7.07 g/m*3 6.84 C 6.85 km/h
155 04-01-2014 11:00:00 8.275 C 7.14 g/m*3 7.09 C 7.51667 km/h
156 04-01-2014 12:00:00 9.04167 C 7.23 g/m*3 8.64 C 5.075 km/h
157 04-01-2014 13:00:00 9.41667 C 7.28 g/m*3 8.46 C 7.375 km/h
158 04-01-2014 14:00:00 9.04167 C 7.31 g/m*3 9.04 C 2.40833 km/h
159 04-01-2014 15:00:00 7.9 C 7.63 g/m*3 7.9 C 0.13333 km/h
160 04-01-2014 16:00:00 7.28333 C 7.53 g/m*3 7.28 C 0 km/h
161 04-01-2014 17:00:00 6.71667 C 7.3 g/m*3 6.72 C 0.26667 km/h
162 04-01-2014 18:00:00 6.66667 C 7.32 g/m*3 6.67 C 1.475 km/h
163 04-01-2014 19:00:00 6.59167 C 7.31 g/m*3 6.59 C 2 km/h
164 04-01-2014 20:00:00 6.575 C 7.31 g/m*3 6.58 C 0.4 km/h
165 04-01-2014 21:00:00 7.04167 C 7.54 g/m*3 7.04 C 2.4 km/h
166 04-01-2014 22:00:00 6.89167 C 7.39 g/m*3 6.89 C 2.8 km/h
167 04-01-2014 23:00:00 6.90833 C 7.45 g/m*3 6.91 C 3.73333 km/h
168 05-01-2014 00:00:00 6.85833 C 7.45 g/m*3 6.86 C 3.06667 km/h
169 05-01-2014 01:00:00 7.225 C 7.63 g/m*3 7.23 C 2.66667 km/h
170 05-01-2014 02:00:00 7.45 C 7.68 g/m*3 7.45 C 1.33333 km/h
171 05-01-2014 03:00:00 7.74167 C 7.68 g/m*3 6.75 C 6.425 km/h
172 05-01-2014 04:00:00 7.39167 C 7.46 g/m*3 7.39 C 3.86667 km/h
173 05-01-2014 05:00:00 7.10833 C 7.45 g/m*3 7.11 C 4.01667 km/h
174 05-01-2014 06:00:00 6.94167 C 7.33 g/m*3 6.94 C 4.4 km/h
175 05-01-2014 07:00:00 6.85833 C 7.1 g/m*3 5.65 C 6.70833 km/h
Sensor: Nr:Datum:Temp:Abs-Feuchte:Windchill:Wind:
Aussen-T/F 176 05-01-2014 08:00:00 6.00833 C 6.62 g/m*3 5.01 C 5.61667 km/h
177 05-01-2014 09:00:00 6 C 6.52 g/m*3 5.14 C 5.20833 km/h
178 05-01-2014 10:00:00 6.15833 C 6.48 g/m*3 4.92 C 6.43333 km/h
179 05-01-2014 11:00:00 6.5875 C 6.37 g/m*3 4.8 C 8.8625 km/h
180 05-01-2014 13:00:00 6.46667 C 6.24 g/m*3 4.07 C 11.8 km/h
181 05-01-2014 16:00:00 5.76667 C 6.12 g/m*3 4.82 C 5.36667 km/h
182 05-01-2014 17:00:00 5.6 C 6.23 g/m*3 5.6 C 2.74286 km/h
183 05-01-2014 18:00:00 5.79167 C 6.17 g/m*3 5.79 C 1.86667 km/h
184 05-01-2014 19:00:00 5.875 C 6.13 g/m*3 5.88 C 2.53333 km/h
185 05-01-2014 20:00:00 4.34167 C 5.83 g/m*3 4.34 C 2.26667 km/h
186 05-01-2014 21:00:00 3.85 C 5.76 g/m*3 3.85 C 2.8 km/h
187 05-01-2014 22:00:00 4.71667 C 6.01 g/m*3 4.72 C 2.13333 km/h
188 05-01-2014 23:00:00 3.925 C 5.78 g/m*3 3.93 C 2.93333 km/h
189 06-01-2014 00:00:00 3.31667 C 5.65 g/m*3 3.32 C 2.4 km/h
190 06-01-2014 01:00:00 3.59167 C 5.76 g/m*3 3.59 C 2.40833 km/h
191 06-01-2014 02:00:00 3.8 C 5.87 g/m*3 3.8 C 2.8 km/h
192 06-01-2014 03:00:00 5.075 C 6.28 g/m*3 5.08 C 3.06667 km/h
193 06-01-2014 04:00:00 5.69167 C 6.44 g/m*3 5.69 C 2.4 km/h
194 06-01-2014 05:00:00 5.95 C 6.44 g/m*3 5.95 C 1.73333 km/h
195 06-01-2014 06:00:00 6.25833 C 6.57 g/m*3 6.26 C 1.2 km/h
196 06-01-2014 07:00:00 6.51667 C 6.78 g/m*3 6.52 C 1.6 km/h
197 06-01-2014 08:00:00 7.2 C 7.2 g/m*3 7.2 C 1.46667 km/h
198 06-01-2014 09:00:00 8.21667 C 7.64 g/m*3 8.22 C 1.46667 km/h
199 06-01-2014 10:00:00 8.8 C 7.88 g/m*3 8.8 C 3.06667 km/h
200 06-01-2014 11:00:00 9.80833 C 8.22 g/m*3 9.81 C 3.475 km/h
Sensor: Nr:Datum:Temp:Abs-Feuchte:Windchill:Wind:
Aussen-T/F 201 06-01-2014 12:00:00 11.475 C 8.68 g/m*3 11.48 C 4.66667 km/h
202 06-01-2014 13:00:00 12.00833 C 8.73 g/m*3 12.01 C 3.475 km/h
203 06-01-2014 14:00:00 11.71667 C 8.42 g/m*3 11.72 C 4.00833 km/h
204 06-01-2014 15:00:00 10.71667 C 8.23 g/m*3 10.72 C 2.26667 km/h
205 06-01-2014 16:00:00 10.475 C 7.95 g/m*3 10.48 C 4.54167 km/h
206 06-01-2014 17:00:00 9.81667 C 7.97 g/m*3 9.82 C 2.94167 km/h
207 06-01-2014 18:00:00 10.275 C 8.08 g/m*3 10.28 C 4.80833 km/h
208 06-01-2014 19:00:00 10.65 C 8.52 g/m*3 10.47 C 5.08333 km/h
209 06-01-2014 20:00:00 9.79167 C 8.72 g/m*3 9.79 C 4.13333 km/h
210 06-01-2014 21:00:00 9.74167 C 8.78 g/m*3 9.74 C 3.33333 km/h
211 06-01-2014 22:00:00 9.61667 C 8.68 g/m*3 9.62 C 2.66667 km/h
212 06-01-2014 23:00:00 9.60833 C 8.65 g/m*3 8.68 C 7.38333 km/h
213 07-01-2014 00:00:00 10.76667 C 9.04 g/m*3 8.7 C 16.375 km/h
214 07-01-2014 01:00:00 10.70833 C 8.68 g/m*3 9.49 C 9.94167 km/h
215 07-01-2014 02:00:00 10.325 C 8.74 g/m*3 9.38 C 8.05833 km/h
216 07-01-2014 03:00:00 9.91667 C 8.47 g/m*3 9.45 C 5.74167 km/h
217 07-01-2014 04:00:00 9.28333 C 8.36 g/m*3 9.28 C 3.74167 km/h
218 07-01-2014 05:00:00 10.30833 C 8.25 g/m*3 9.44 C 7.64167 km/h
219 07-01-2014 06:00:00 10.31667 C 8.07 g/m*3 9.83 C 6.03333 km/h
220 07-01-2014 07:00:00 9.64167 C 7.91 g/m*3 9.64 C 4.8 km/h
221 07-01-2014 08:00:00 9.66667 C 7.87 g/m*3 9.27 C 5.35 km/h
222 07-01-2014 09:00:00 10.69167 C 7.91 g/m*3 9.65 C 8.86667 km/h
223 07-01-2014 10:00:00 11.35833 C 8.12 g/m*3 11.36 C 10.46667 km/h
224 07-01-2014 11:00:00 11.81667 C 8.24 g/m*3 11.82 C 8.59167 km/h
225 07-01-2014 12:00:00 11.84167 C 8.39 g/m*3 11.84 C 6.84167 km/h
Sensor: Nr:Datum:Temp:Abs-Feuchte:Windchill:Wind:
Aussen-T/F 226 07-01-2014 13:00:00 11.55 C 8.66 g/m*3 11.55 C 3.34167 km/h
227 07-01-2014 14:00:00 12.93333 C 8.39 g/m*3 12.93 C 6.975 km/h
228 07-01-2014 15:00:00 13.25 C 8.11 g/m*3 13.25 C 6.7 km/h
229 07-01-2014 16:00:00 11.85833 C 8.34 g/m*3 11.86 C 3.06667 km/h
230 07-01-2014 17:00:00 10.63333 C 8.39 g/m*3 10.63 C 2 km/h
231 07-01-2014 18:00:00 10.25 C 8.35 g/m*3 10.25 C 3.06667 km/h
232 07-01-2014 19:00:00 10.4 C 8.66 g/m*3 10.4 C 2.13333 km/h
233 07-01-2014 20:00:00 9.63333 C 8.6 g/m*3 9.63 C 1.86667 km/h
234 07-01-2014 21:00:00 9.79167 C 8.78 g/m*3 9.79 C 2.66667 km/h
235 07-01-2014 22:00:00 10.14167 C 8.8 g/m*3 10.14 C 2.26667 km/h
236 07-01-2014 23:00:00 10.40833 C 8.92 g/m*3 10.41 C 2.93333 km/h
237 08-01-2014 00:00:00 11.3 C 9.06 g/m*3 11.3 C 5.48333 km/h
238 08-01-2014 01:00:00 11.525 C 9.06 g/m*3 11.53 C 7.38333 km/h
239 08-01-2014 02:00:00 11.525 C 9.09 g/m*3 11.53 C 5.35 km/h
240 08-01-2014 03:00:00 11.08333 C 9.06 g/m*3 11.08 C 4.28333 km/h
241 08-01-2014 04:00:00 10.84167 C 9.09 g/m*3 10.84 C 3.34167 km/h
242 08-01-2014 05:00:00 11.51667 C 9.12 g/m*3 11.52 C 10.06667 km/h
243 08-01-2014 06:00:00 12.175 C 9.02 g/m*3 12.18 C 13.56667 km/h
244 08-01-2014 07:00:00 11.95833 C 8.82 g/m*3 11.96 C 10.9 km/h
245 08-01-2014 08:00:00 11.45 C 8.61 g/m*3 11.45 C 9.28333 km/h
246 08-01-2014 09:00:00 11.33333 C 8.48 g/m*3 11.33 C 8.06667 km/h
247 08-01-2014 10:00:00 11.52 C 8.46 g/m*3 11.52 C 9.68 km/h
248 08-01-2014 11:00:00 11.175 C 8.35 g/m*3 11.18 C 7.375 km/h
249 08-01-2014 12:00:00 11.25833 C 8.27 g/m*3 11.26 C 6.43333 km/h
250 08-01-2014 13:00:00 12.45833 C 8.34 g/m*3 12.46 C 10.06667 km/h
Sensor: Nr:Datum:Temp:Abs-Feuchte:Windchill:Wind:
Aussen-T/F 251 08-01-2014 14:00:00 12.03333 C 8.38 g/m*3 12.03 C 8.04167 km/h
252 08-01-2014 15:00:00 11.49167 C 8.25 g/m*3 11.49 C 8.45833 km/h
253 08-01-2014 16:00:00 10.38333 C 8.09 g/m*3 10.13 C 5.20833 km/h
254 08-01-2014 17:00:00 9.00833 C 7.92 g/m*3 9.01 C 2.66667 km/h
255 08-01-2014 18:00:00 8.2 C 7.7 g/m*3 8.2 C 1.33333 km/h
256 08-01-2014 19:00:00 7.325 C 7.47 g/m*3 7.33 C 0.26667 km/h
257 08-01-2014 20:00:00 6.98333 C 7.37 g/m*3 6.98 C 0.13333 km/h
258 08-01-2014 21:00:00 6.63333 C 7.26 g/m*3 6.63 C 0 km/h
259 08-01-2014 22:00:00 6.26667 C 7.09 g/m*3 6.27 C 0 km/h
260 09-01-2014 01:00:00 6.5 C 7.27 g/m*3 6.5 C 0.26667 km/h
261 09-01-2014 02:00:00 6.7 C 7.37 g/m*3 6.7 C 0.26667 km/h
262 09-01-2014 03:00:00 6.68333 C 7.36 g/m*3 6.68 C 0.4 km/h
263 09-01-2014 04:00:00 6.75833 C 7.4 g/m*3 6.76 C 0.8 km/h
264 09-01-2014 05:00:00 7 C 7.59 g/m*3 7 C 1.30909 km/h
265 09-01-2014 07:00:00 9.425 C 8.45 g/m*3 9.1 C 5 km/h
266 09-01-2014 08:00:00 9.53333 C 8.16 g/m*3 9.53 C 2.54167 km/h
267 09-01-2014 09:00:00 9.33333 C 8.2 g/m*3 9.33 C 2.53333 km/h
268 09-01-2014 10:00:00 10.01667 C 8.42 g/m*3 10.02 C 2.53333 km/h
269 09-01-2014 11:00:00 11.28333 C 8.54 g/m*3 11.28 C 8.19167 km/h
270 09-01-2014 12:00:00 12.46667 C 8.55 g/m*3 12.47 C 12.23333 km/h
271 09-01-2014 13:00:00 12.7 C 8.57 g/m*3 12.7 C 13.96667 km/h
272 09-01-2014 14:00:00 12.71667 C 8.6 g/m*3 12.72 C 18.64167 km/h
273 09-01-2014 15:00:00 11.45833 C 8.59 g/m*3 11.46 C 16.1 km/h
274 09-01-2014 16:00:00 10.44167 C 8.17 g/m*3 8.19 C 17.43333 km/h
275 09-01-2014 17:00:00 9.94167 C 8.04 g/m*3 7.79 C 15.43333 km/h
Sensor: Nr:Datum:Temp:Abs-Feuchte:Windchill:Wind:
Aussen-T/F 276 09-01-2014 18:00:00 9.91667 C 7.84 g/m*3 7.49 C 17.83333 km/h
277 09-01-2014 19:00:00 9.71667 C 7.78 g/m*3 7.27 C 17.575 km/h
278 09-01-2014 20:00:00 9.53333 C 7.25 g/m*3 7.35 C 14.9 km/h
279 09-01-2014 21:00:00 8.49167 C 6.36 g/m*3 6.14 C 14.35833 km/h
280 09-01-2014 22:00:00 6.95 C 5.84 g/m*3 5.48 C 7.79167 km/h
281 09-01-2014 23:00:00 6.425 C 5.86 g/m*3 6.43 C 4.275 km/h
282 10-01-2014 00:00:00 5.925 C 6.16 g/m*3 5.93 C 0 km/h
283 10-01-2014 01:00:00 5.7 C 6.3 g/m*3 5.7 C 1.33333 km/h
284 10-01-2014 02:00:00 6.2 C 6.35 g/m*3 6.2 C 3.86667 km/h
285 10-01-2014 03:00:00 5.88333 C 6.22 g/m*3 5.88 C 4.68333 km/h
286 10-01-2014 04:00:00 4.79167 C 5.95 g/m*3 4.79 C 4.80833 km/h
287 10-01-2014 05:00:00 5 C 5.95 g/m*3 3.02 C 8.45 km/h
288 10-01-2014 06:00:00 4.74167 C 5.91 g/m*3 3.76 C 5.075 km/h
289 10-01-2014 07:00:00 5.05833 C 6.02 g/m*3 3.05 C 8.61667 km/h
290 10-01-2014 08:00:00 5.41667 C 6.04 g/m*3 3 C 10.74167 km/h
291 10-01-2014 09:00:00 5.34167 C 6.1 g/m*3 3.7 C 7.38333 km/h
292 10-01-2014 10:00:00 5.69167 C 6.26 g/m*3 4.08 C 7.50833 km/h
293 10-01-2014 11:00:00 6.675 C 6.35 g/m*3 4.14 C 12.88333 km/h
294 10-01-2014 12:00:00 7.5 C 6.5 g/m*3 5.36 C 11.55 km/h
295 10-01-2014 13:00:00 7.71667 C 6.53 g/m*3 5.43 C 12.76667 km/h
296 10-01-2014 14:00:00 7.74167 C 6.59 g/m*3 5.89 C 10.20833 km/h
297 10-01-2014 15:00:00 7.85833 C 6.64 g/m*3 6.57 C 7.65 km/h
298 10-01-2014 16:00:00 6.5 C 6.37 g/m*3 6.5 C 4.26667 km/h
299 10-01-2014 17:00:00 5.1 C 6.12 g/m*3 5.1 C 3.6 km/h
300 10-01-2014 18:00:00 5.08333 C 6.06 g/m*3 4.15 C 5.06667 km/h
Sensor: Nr:Datum:Temp:Abs-Feuchte:Windchill:Wind:
Aussen-T/F 301 10-01-2014 19:00:00 5.36667 C 6.08 g/m*3 4.32 C 5.475 km/h
302 10-01-2014 20:00:00 4.7 C 5.91 g/m*3 4.7 C 4 km/h
303 10-01-2014 21:00:00 4.075 C 5.81 g/m*3 4.08 C 1.46667 km/h
304 10-01-2014 22:00:00 3.25 C 5.64 g/m*3 3.25 C 0.4 km/h
305 10-01-2014 23:00:00 3.05833 C 5.64 g/m*3 3.06 C 0 km/h
306 11-01-2014 00:00:00 2.525 C 5.47 g/m*3 2.53 C 0 km/h
307 11-01-2014 01:00:00 2.08333 C 5.31 g/m*3 2.08 C 0.13333 km/h
308 11-01-2014 02:00:00 1.78333 C 5.25 g/m*3 1.78 C 0.4 km/h
309 11-01-2014 03:00:00 1.54167 C 5.17 g/m*3 1.54 C 0.26667 km/h
310 11-01-2014 04:00:00 1.35 C 5.11 g/m*3 1.35 C 0.4 km/h
311 11-01-2014 05:00:00 0.89167 C 4.97 g/m*3 0.89 C 0 km/h
312 11-01-2014 06:00:00 1.10833 C 5.07 g/m*3 1.11 C 0.66667 km/h
313 11-01-2014 07:00:00 1.4 C 5.17 g/m*3 1.4 C 1.73333 km/h
314 11-01-2014 08:00:00 1.86667 C 5.34 g/m*3 1.87 C 1.2 km/h
315 11-01-2014 09:00:00 2.25833 C 5.49 g/m*3 2.26 C 0 km/h
316 11-01-2014 10:00:00 2.6 C 5.61 g/m*3 2.6 C 0.26667 km/h
317 11-01-2014 11:00:00 3.79167 C 6.12 g/m*3 3.79 C 2.81667 km/h
318 11-01-2014 12:00:00 5.975 C 6.68 g/m*3 3.92 C 9.55833 km/h
319 11-01-2014 13:00:00 6.85 C 6.71 g/m*3 5.14 C 8.73333 km/h
320 11-01-2014 14:00:00 7.66667 C 6.81 g/m*3 5.41 C 12.48333 km/h
321 11-01-2014 15:00:00 7.13333 C 6.79 g/m*3 5.5 C 8.59167 km/h
322 11-01-2014 16:00:00 7.36667 C 6.99 g/m*3 5.47 C 10.09167 km/h
323 11-01-2014 17:00:00 6.41667 C 7.01 g/m*3 5.56 C 5.36667 km/h
324 11-01-2014 18:00:00 6.24167 C 6.59 g/m*3 5.02 C 6.43333 km/h
325 11-01-2014 19:00:00 5.69167 C 6.31 g/m*3 5.69 C 4.43333 km/h
Sensor: Nr:Datum:Temp:Abs-Feuchte:Windchill:Wind:
Aussen-T/F 326 11-01-2014 20:00:00 4.46667 C 6.04 g/m*3 4.47 C 3.06667 km/h
327 11-01-2014 21:00:00 4.33333 C 5.92 g/m*3 4.33 C 4.66667 km/h
328 11-01-2014 22:00:00 3.45833 C 5.63 g/m*3 3.46 C 2.8 km/h
329 11-01-2014 23:00:00 2.49167 C 5.41 g/m*3 2.49 C 2 km/h
330 12-01-2014 00:00:00 2 C 5.28 g/m*3 2 C 3.06667 km/h
331 12-01-2014 01:00:00 1.575 C 5.13 g/m*3 1.58 C 3.74167 km/h
332 12-01-2014 02:00:00 1.1 C 4.97 g/m*3 -1.12 C 6.99167 km/h
333 12-01-2014 03:00:00 0.96667 C 4.97 g/m*3 -1.86 C 8.86667 km/h
334 12-01-2014 04:00:00 1.24167 C 5.07 g/m*3 -1.54 C 8.88333 km/h
335 12-01-2014 05:00:00 1.19167 C 5.05 g/m*3 -1.01 C 6.96667 km/h
336 12-01-2014 06:00:00 0.69167 C 4.88 g/m*3 0.69 C 2.4 km/h
337 12-01-2014 07:00:00 0.54167 C 4.87 g/m*3 0.54 C 3.86667 km/h
338 12-01-2014 08:00:00 0.11667 C 4.74 g/m*3 0.12 C 3.75 km/h
339 12-01-2014 09:00:00 -0.00833 C 4.7 g/m*3 -0.01 C 2 km/h
340 12-01-2014 10:00:00 0.15 C 4.75 g/m*3 0.15 C 4.95 km/h
341 12-01-2014 11:00:00 0.25833 C 4.81 g/m*3 -1.57 C 5.625 km/h
342 12-01-2014 12:00:00 0.46667 C 4.9 g/m*3 0.47 C 2.26667 km/h
343 12-01-2014 13:00:00 0.84167 C 5.03 g/m*3 0.84 C 2.26667 km/h
344 12-01-2014 14:00:00 1.35 C 5.21 g/m*3 1.35 C 2 km/h
345 12-01-2014 15:00:00 1.28571 C 5.19 g/m*3 1.29 C 2.74286 km/h
346 12-01-2014 16:00:00 1 C 5.09 g/m*3 1 C 1.2 km/h
347 12-01-2014 17:00:00 0.1875 C 4.81 g/m*3 0.19 C 0.6 km/h
348 12-01-2014 18:00:00 -0.26667 C 4.66 g/m*3 -0.27 C 0.8 km/h
349 12-01-2014 19:00:00 -0.55833 C 4.57 g/m*3 -0.56 C 0.4 km/h
350 12-01-2014 20:00:00 -0.80833 C 4.49 g/m*3 -0.81 C 1.2 km/h
Sensor: Nr:Datum:Temp:Abs-Feuchte:Windchill:Wind:
Aussen-T/F 351 12-01-2014 21:00:00 -1.225 C 4.36 g/m*3 -1.23 C 2.53333 km/h
352 12-01-2014 22:00:00 -1.55 C 4.26 g/m*3 -1.55 C 2.66667 km/h
353 12-01-2014 23:00:00 -1.7 C 4.22 g/m*3 -1.7 C 2 km/h
354 13-01-2014 00:00:00 -1.7 C 4.22 g/m*3 -1.7 C 0.26667 km/h
355 13-01-2014 01:00:00 -1.68333 C 4.22 g/m*3 -1.68 C 0.26667 km/h
356 13-01-2014 02:00:00 -1.08333 C 4.4 g/m*3 -1.08 C 0.66667 km/h
357 13-01-2014 03:00:00 -0.20833 C 4.68 g/m*3 -0.21 C 2.13333 km/h
358 13-01-2014 04:00:00 0.24167 C 4.83 g/m*3 0.24 C 2.13333 km/h
359 13-01-2014 05:00:00 1.05833 C 5.11 g/m*3 1.06 C 0.53333 km/h
360 13-01-2014 06:00:00 1.825 C 5.38 g/m*3 1.83 C 1.2 km/h
361 13-01-2014 07:00:00 2.33333 C 5.57 g/m*3 2.33 C 0.4 km/h
362 13-01-2014 08:00:00 2.65833 C 5.69 g/m*3 2.66 C 0.53333 km/h
363 13-01-2014 09:00:00 3.18333 C 5.9 g/m*3 3.18 C 0 km/h
364 13-01-2014 10:00:00 3.83333 C 6.19 g/m*3 3.83 C 0.53333 km/h
365 13-01-2014 11:00:00 5.125 C 6.77 g/m*3 5.13 C 2.26667 km/h
366 13-01-2014 12:00:00 6.38333 C 7.31 g/m*3 4.78 C 7.91667 km/h
367 13-01-2014 13:00:00 7.875 C 7.34 g/m*3 6.8 C 6.84167 km/h
368 13-01-2014 14:00:00 8.025 C 7.13 g/m*3 6.87 C 7.24167 km/h
369 13-01-2014 15:00:00 7.38333 C 7.12 g/m*3 7.38 C 1.2 km/h
370 13-01-2014 16:00:00 6.675 C 7.05 g/m*3 6.68 C 2 km/h
371 13-01-2014 17:00:00 6.20833 C 6.97 g/m*3 6.21 C 0.26667 km/h
372 13-01-2014 18:00:00 6.14167 C 6.99 g/m*3 6.14 C 0 km/h
373 13-01-2014 19:00:00 6.025 C 6.98 g/m*3 6.03 C 0 km/h
374 13-01-2014 20:00:00 5.73333 C 6.85 g/m*3 5.73 C 0.26667 km/h
375 13-01-2014 21:00:00 5.3 C 6.63 g/m*3 5.3 C 0 km/h
Sensor: Nr:Datum:Temp:Abs-Feuchte:Windchill:Wind:
Aussen-T/F 376 13-01-2014 22:00:00 4.29167 C 6.22 g/m*3 4.29 C 0.13333 km/h
377 13-01-2014 23:00:00 3.94167 C 6.12 g/m*3 3.94 C 1.2 km/h
378 14-01-2014 00:00:00 3.875 C 6.08 g/m*3 3.88 C 2.13333 km/h
379 14-01-2014 01:00:00 3.5 C 5.96 g/m*3 3.5 C 2 km/h
380 14-01-2014 02:00:00 3.3 C 5.88 g/m*3 3.3 C 1.46667 km/h
381 14-01-2014 03:00:00 4.01667 C 6.2 g/m*3 4.02 C 0.26667 km/h
382 14-01-2014 04:00:00 4.325 C 6.32 g/m*3 4.33 C 1.06667 km/h
383 14-01-2014 05:00:00 5.35 C 6.65 g/m*3 3.99 C 6.41667 km/h
384 14-01-2014 06:00:00 5.18333 C 6.47 g/m*3 5.18 C 4.54167 km/h
385 14-01-2014 07:00:00 4.65 C 6.31 g/m*3 4.65 C 2.54167 km/h
386 14-01-2014 08:00:00 4.275 C 6.22 g/m*3 4.28 C 2.54167 km/h
387 14-01-2014 09:00:00 4.975 C 6.56 g/m*3 4.97 C 2.53333 km/h
388 14-01-2014 10:00:00 5.8 C 6.71 g/m*3 5.8 C 2.93333 km/h
389 14-01-2014 11:00:00 5.88 C 6.77 g/m*3 5.88 C 2.88 km/h
390 14-01-2014 12:00:00 6.9 C 7 g/m*3 6.9 C 2.62727 km/h
391 14-01-2014 13:00:00 7.55833 C 7.16 g/m*3 7.56 C 3.33333 km/h
392 14-01-2014 14:00:00 7.975 C 7.18 g/m*3 7.98 C 2.93333 km/h
393 14-01-2014 15:00:00 7.38333 C 7.13 g/m*3 7.38 C 1.73333 km/h
394 14-01-2014 16:00:00 7.23333 C 6.93 g/m*3 7.23 C 3.2 km/h
395 14-01-2014 17:00:00 6.34167 C 6.82 g/m*3 6.34 C 2.26667 km/h
396 14-01-2014 18:00:00 5.20833 C 6.54 g/m*3 5.21 C 1.33333 km/h
397 14-01-2014 19:00:00 3.575 C 5.93 g/m*3 3.58 C 1.73333 km/h
398 14-01-2014 20:00:00 3.21667 C 5.84 g/m*3 3.22 C 0 km/h
399 14-01-2014 21:00:00 3.36667 C 5.91 g/m*3 3.37 C 0.53333 km/h
400 14-01-2014 22:00:00 3.81667 C 6.12 g/m*3 3.82 C 0.26667 km/h
Sensor: Nr:Datum:Temp:Abs-Feuchte:Windchill:Wind:
Aussen-T/F 401 14-01-2014 23:00:00 4.375 C 6.35 g/m*3 4.38 C 2.13333 km/h
402 15-01-2014 00:00:00 4.8 C 6.48 g/m*3 4.8 C 2.26667 km/h
403 15-01-2014 01:00:00 4.9 C 6.45 g/m*3 4.9 C 2.53333 km/h
404 15-01-2014 02:00:00 4.8 C 6.31 g/m*3 4.8 C 2.53333 km/h
405 15-01-2014 03:00:00 4.75833 C 6.1 g/m*3 3.62 C 5.49167 km/h
406 15-01-2014 04:00:00 4.04167 C 5.61 g/m*3 2.91 C 5.225 km/h
407 15-01-2014 05:00:00 3.16667 C 5.48 g/m*3 3.17 C 2.66667 km/h
408 15-01-2014 06:00:00 2.10833 C 5.22 g/m*3 2.11 C 1.46667 km/h
409 15-01-2014 07:00:00 1.56667 C 5.11 g/m*3 1.57 C 2.53333 km/h
410 15-01-2014 08:00:00 1.74167 C 5.2 g/m*3 1.74 C 0.4 km/h
411 15-01-2014 09:00:00 2.275 C 5.42 g/m*3 2.28 C 0 km/h
412 15-01-2014 10:00:00 3.45833 C 5.67 g/m*3 3.46 C 1.2 km/h
413 15-01-2014 11:00:00 4.61667 C 5.77 g/m*3 4.62 C 1.86667 km/h
414 15-01-2014 12:00:00 5.55 C 5.91 g/m*3 5.55 C 4.40833 km/h
415 15-01-2014 13:00:00 5.89167 C 5.94 g/m*3 4.1 C 8.31667 km/h
416 15-01-2014 14:00:00 5.35833 C 6.01 g/m*3 4.26 C 5.625 km/h
417 15-01-2014 15:00:00 4.81667 C 6.12 g/m*3 4.82 C 1.86667 km/h
418 15-01-2014 16:00:00 4.46667 C 6.08 g/m*3 4.47 C 1.06667 km/h
419 15-01-2014 17:00:00 4.44167 C 6.09 g/m*3 4.44 C 1.86667 km/h
420 15-01-2014 18:00:00 4.725 C 6.04 g/m*3 4.72 C 2 km/h
421 15-01-2014 19:00:00 4.81667 C 6.11 g/m*3 4.82 C 1.6 km/h
422 15-01-2014 20:00:00 4.775 C 6.21 g/m*3 4.78 C 0.53333 km/h
423 15-01-2014 21:00:00 4.65 C 6.29 g/m*3 4.65 C 0.66667 km/h
424 15-01-2014 22:00:00 4.45833 C 6.29 g/m*3 4.46 C 0 km/h
425 15-01-2014 23:00:00 4.45833 C 6.36 g/m*3 4.46 C 0 km/h
Sensor: Nr:Datum:Temp:Abs-Feuchte:Windchill:Wind:
Aussen-T/F 426 16-01-2014 00:00:00 4.5 C 6.38 g/m*3 4.5 C 0 km/h
427 16-01-2014 01:00:00 4.65 C 6.44 g/m*3 4.65 C 0 km/h
428 16-01-2014 02:00:00 4.9 C 6.55 g/m*3 4.9 C 0 km/h
429 16-01-2014 03:00:00 5.11667 C 6.71 g/m*3 5.12 C 0.13333 km/h
430 16-01-2014 04:00:00 5.275 C 6.78 g/m*3 5.28 C 0 km/h
431 16-01-2014 05:00:00 5.4 C 6.84 g/m*3 5.4 C 0.13333 km/h
432 16-01-2014 06:00:00 5.54167 C 6.9 g/m*3 5.54 C 0 km/h
433 16-01-2014 07:00:00 5.64167 C 6.95 g/m*3 5.64 C 0.13333 km/h
434 16-01-2014 08:00:00 5.44167 C 6.86 g/m*3 5.44 C 0.53333 km/h
435 16-01-2014 09:00:00 5.63333 C 6.94 g/m*3 5.63 C 0.53333 km/h
436 16-01-2014 10:00:00 6.10833 C 7.16 g/m*3 6.11 C 0.26667 km/h
437 16-01-2014 11:00:00 6.46667 C 7.13 g/m*3 6.47 C 2.8 km/h
438 16-01-2014 12:00:00 7.55 C 7.36 g/m*3 7.55 C 0.93333 km/h
439 16-01-2014 13:00:00 8.31667 C 7.28 g/m*3 8.32 C 2.26667 km/h
440 16-01-2014 14:00:00 8.075 C 7.41 g/m*3 8.07 C 1.2 km/h
441 16-01-2014 15:00:00 7.94167 C 7.25 g/m*3 7.94 C 3.2 km/h
442 16-01-2014 16:00:00 8.38333 C 7.23 g/m*3 8.38 C 4.825 km/h
443 16-01-2014 17:00:00 8.19167 C 7.28 g/m*3 8.19 C 3.06667 km/h
444 16-01-2014 18:00:00 8.10833 C 7.3 g/m*3 8.11 C 4.95 km/h
445 16-01-2014 19:00:00 8.7 C 7.35 g/m*3 7.97 C 6.01667 km/h
446 16-01-2014 20:00:00 7.54167 C 7.22 g/m*3 7.54 C 2.53333 km/h
447 16-01-2014 21:00:00 7.01667 C 7.19 g/m*3 7.02 C 2 km/h
448 16-01-2014 22:00:00 6.79167 C 7.11 g/m*3 6.79 C 1.33333 km/h
449 16-01-2014 23:00:00 5.60833 C 6.61 g/m*3 5.61 C 3.2 km/h
450 17-01-2014 00:00:00 5.76667 C 6.8 g/m*3 5.77 C 2.66667 km/h
Sensor: Nr:Datum:Temp:Abs-Feuchte:Windchill:Wind:
Aussen-T/F 451 17-01-2014 01:00:00 6.59167 C 7.05 g/m*3 6.59 C 1.46667 km/h
452 17-01-2014 02:00:00 6.875 C 7.1 g/m*3 6.88 C 0.8 km/h
453 17-01-2014 03:00:00 6.8 C 7.22 g/m*3 6.8 C 1.46667 km/h
454 17-01-2014 04:00:00 6.725 C 7.33 g/m*3 6.73 C 0.66667 km/h
455 17-01-2014 05:00:00 6.51667 C 7.28 g/m*3 6.52 C 1.06667 km/h
456 17-01-2014 06:00:00 6.41667 C 7.24 g/m*3 6.42 C 1.46667 km/h
457 17-01-2014 07:00:00 6.1 C 7.07 g/m*3 6.1 C 2.26667 km/h
458 17-01-2014 08:00:00 5.48333 C 6.81 g/m*3 5.48 C 2.8 km/h
459 17-01-2014 09:00:00 6.00833 C 7.04 g/m*3 6.01 C 1.86667 km/h
460 17-01-2014 10:00:00 6.625 C 7.29 g/m*3 6.63 C 2 km/h
461 17-01-2014 11:00:00 8.075 C 7.62 g/m*3 8.07 C 2.66667 km/h
462 17-01-2014 12:00:00 9.18333 C 7.63 g/m*3 9.18 C 4.41667 km/h
463 17-01-2014 13:00:00 9.93333 C 7.76 g/m*3 9.93 C 0.8 km/h
464 17-01-2014 14:00:00 10.025 C 7.94 g/m*3 10.03 C 1.2 km/h
465 17-01-2014 15:00:00 9.28333 C 8.02 g/m*3 9.28 C 2 km/h
466 17-01-2014 16:00:00 8.51667 C 7.54 g/m*3 8.52 C 3.2 km/h
467 17-01-2014 17:00:00 6.68333 C 6.89 g/m*3 6.68 C 3.46667 km/h
468 17-01-2014 18:00:00 6.01667 C 6.76 g/m*3 6.02 C 2.93333 km/h
469 17-01-2014 19:00:00 5.55833 C 6.6 g/m*3 5.56 C 3.06667 km/h
470 17-01-2014 20:00:00 5.21667 C 6.44 g/m*3 5.22 C 3.33333 km/h
471 17-01-2014 21:00:00 4.85833 C 6.28 g/m*3 4.86 C 3.6 km/h
472 17-01-2014 22:00:00 4.54167 C 6.2 g/m*3 4.54 C 3.33333 km/h
473 17-01-2014 23:00:00 4.2 C 6.08 g/m*3 4.2 C 2.66667 km/h
474 18-01-2014 00:00:00 3.775 C 5.93 g/m*3 3.78 C 2.53333 km/h
475 18-01-2014 01:00:00 3.525 C 5.85 g/m*3 3.53 C 1.73333 km/h
Sensor: Nr:Datum:Temp:Abs-Feuchte:Windchill:Wind:
Aussen-T/F 476 18-01-2014 02:00:00 3.00833 C 5.65 g/m*3 3.01 C 0.66667 km/h
477 18-01-2014 03:00:00 2.825 C 5.64 g/m*3 2.83 C 0.13333 km/h
478 18-01-2014 04:00:00 2.60833 C 5.56 g/m*3 2.61 C 0.53333 km/h
479 18-01-2014 05:00:00 1.90833 C 5.3 g/m*3 1.91 C 0.4 km/h
480 18-01-2014 06:00:00 1.93333 C 5.36 g/m*3 1.93 C 1.74167 km/h
481 18-01-2014 07:00:00 2.675 C 5.62 g/m*3 2.68 C 1.06667 km/h
482 18-01-2014 08:00:00 4.2 C 6 g/m*3 2.07 C 8.46667 km/h
483 18-01-2014 09:00:00 4.78333 C 5.96 g/m*3 3.46 C 6.03333 km/h
484 18-01-2014 10:00:00 4.98333 C 6.02 g/m*3 3.6 C 6.30833 km/h
485 18-01-2014 11:00:00 5.91667 C 6.79 g/m*3 4.72 C 6.16667 km/h
486 18-01-2014 12:00:00 6.9 C 6.54 g/m*3 6.9 C 2.4 km/h
487 18-01-2014 13:00:00 7.56667 C 6.59 g/m*3 7.57 C 3.33333 km/h
488 18-01-2014 14:00:00 7.95556 C 6.64 g/m*3 7.96 C 4.44444 km/h
489 18-01-2014 15:00:00 7.825 C 6.72 g/m*3 7.83 C 2.14167 km/h
490 18-01-2014 16:00:00 6.875 C 6.53 g/m*3 6.88 C 2 km/h
491 18-01-2014 17:00:00 5.79167 C 6.18 g/m*3 5.79 C 3.06667 km/h
492 18-01-2014 18:00:00 5.80833 C 6.04 g/m*3 5.81 C 3.46667 km/h
493 18-01-2014 19:00:00 6.04167 C 6.03 g/m*3 5.19 C 5.2 km/h
494 18-01-2014 20:00:00 5.04167 C 5.96 g/m*3 5.04 C 2.93333 km/h
495 18-01-2014 21:00:00 3.34167 C 5.58 g/m*3 3.34 C 1.2 km/h
496 18-01-2014 22:00:00 2.9 C 5.57 g/m*3 2.9 C 1.46667 km/h
497 18-01-2014 23:00:00 3.70833 C 5.88 g/m*3 3.71 C 0.13333 km/h
498 19-01-2014 00:00:00 4.18333 C 6.05 g/m*3 4.18 C 0.26667 km/h
499 19-01-2014 01:00:00 4.41667 C 6.13 g/m*3 4.42 C 0 km/h
500 19-01-2014 02:00:00 4.65833 C 6.13 g/m*3 4.66 C 1.2 km/h
Sensor: Nr:Datum:Temp:Abs-Feuchte:Windchill:Wind:
Aussen-T/F 501 19-01-2014 03:00:00 4.46667 C 5.99 g/m*3 4.47 C 1.86667 km/h
502 19-01-2014 04:00:00 4.2 C 5.94 g/m*3 4.2 C 0.13333 km/h
503 19-01-2014 05:00:00 4.15 C 5.97 g/m*3 4.15 C 0 km/h
504 19-01-2014 06:00:00 4.125 C 5.96 g/m*3 4.13 C 0.4 km/h
505 19-01-2014 07:00:00 3.99167 C 5.9 g/m*3 3.99 C 0.13333 km/h
506 19-01-2014 08:00:00 3.68333 C 5.82 g/m*3 3.68 C 0 km/h
507 19-01-2014 09:00:00 4.06667 C 6 g/m*3 4.07 C 0.53333 km/h
508 19-01-2014 10:00:00 5.025 C 6.18 g/m*3 3.61 C 6.43333 km/h
509 19-01-2014 11:00:00 5.625 C 6.31 g/m*3 4.39 C 6.16667 km/h
510 19-01-2014 12:00:00 6.2 C 6.4 g/m*3 6.2 C 3.46667 km/h
511 19-01-2014 13:00:00 6.775 C 6.59 g/m*3 6.78 C 0.93333 km/h
512 19-01-2014 14:00:00 7.1 C 6.65 g/m*3 5.93 C 6.7 km/h
513 19-01-2014 15:00:00 7.24167 C 6.64 g/m*3 7.24 C 4.40833 km/h
514 19-01-2014 16:00:00 5.74 C 6.92 g/m*3 5.74 C 0.32 km/h
515 19-01-2014 17:00:00 4.20833 C 6 g/m*3 4.21 C 0.8 km/h
516 19-01-2014 18:00:00 3.81667 C 5.93 g/m*3 3.82 C 0.13333 km/h
517 19-01-2014 19:00:00 3.68333 C 5.91 g/m*3 3.68 C 0.13333 km/h
518 19-01-2014 20:00:00 3.41667 C 5.81 g/m*3 3.42 C 1.06667 km/h
519 19-01-2014 21:00:00 3.38333 C 5.8 g/m*3 3.38 C 0 km/h
520 19-01-2014 22:00:00 3.60833 C 5.88 g/m*3 3.61 C 0 km/h
521 19-01-2014 23:00:00 3.79167 C 5.96 g/m*3 3.79 C 0 km/h
522 20-01-2014 00:00:00 4.06667 C 6.07 g/m*3 4.07 C 0 km/h
523 20-01-2014 01:00:00 4.2 C 6.12 g/m*3 4.2 C 0.26667 km/h
524 20-01-2014 02:00:00 4.2 C 6.06 g/m*3 4.2 C 0.4 km/h
525 20-01-2014 03:00:00 4.2 C 6.06 g/m*3 4.2 C 0 km/h
Sensor: Nr:Datum:Temp:Abs-Feuchte:Windchill:Wind:
Aussen-T/F 526 20-01-2014 04:00:00 4.275 C 6.14 g/m*3 4.28 C 0 km/h
527 20-01-2014 05:00:00 4.3 C 6.1 g/m*3 4.3 C 0 km/h
528 20-01-2014 06:00:00 4.3 C 6.1 g/m*3 4.3 C 0 km/h
529 20-01-2014 07:00:00 4.29167 C 6.15 g/m*3 4.29 C 0 km/h
530 20-01-2014 08:00:00 4.2 C 6.12 g/m*3 4.2 C 0 km/h
531 20-01-2014 09:00:00 4.2625 C 6.21 g/m*3 4.26 C 0 km/h
532 20-01-2014 10:00:00 4.36667 C 6.3 g/m*3 4.37 C 0 km/h
533 20-01-2014 11:00:00 4.61 C 6.42 g/m*3 4.61 C 0.48 km/h
534 20-01-2014 12:00:00 4.8 C 6.44 g/m*3 4.8 C 1.14286 km/h
535 20-01-2014 13:00:00 4.79167 C 6.43 g/m*3 4.79 C 1.33333 km/h
536 20-01-2014 14:00:00 4.7 C 6.32 g/m*3 4.7 C 2.93333 km/h
537 20-01-2014 15:00:00 4.61667 C 6.23 g/m*3 4.62 C 1.73333 km/h
538 20-01-2014 16:00:00 4.58333 C 6.21 g/m*3 4.58 C 0.66667 km/h
539 20-01-2014 17:00:00 4.55 C 6.16 g/m*3 4.55 C 1.86667 km/h
540 20-01-2014 18:00:00 4.61667 C 6.13 g/m*3 4.62 C 1.73333 km/h
541 20-01-2014 19:00:00 4.425 C 6.04 g/m*3 3.2 C 5.60833 km/h
542 20-01-2014 20:00:00 4.125 C 5.99 g/m*3 4.13 C 0.8 km/h
543 20-01-2014 21:00:00 3.95 C 5.99 g/m*3 3.95 C 0.13333 km/h
544 20-01-2014 22:00:00 3.80833 C 6.02 g/m*3 3.81 C 0.53333 km/h
545 20-01-2014 23:00:00 3.76667 C 6.01 g/m*3 3.77 C 3.06667 km/h
546 21-01-2014 00:00:00 3.61667 C 5.95 g/m*3 3.62 C 1.33333 km/h
547 21-01-2014 01:00:00 3.49167 C 5.88 g/m*3 3.49 C 2.93333 km/h
548 21-01-2014 02:00:00 3.4 C 5.67 g/m*3 1.06 C 8.74167 km/h
549 21-01-2014 03:00:00 3.16667 C 5.58 g/m*3 1.12 C 7.51667 km/h
550 21-01-2014 04:00:00 2.94167 C 5.51 g/m*3 1.2 C 6.43333 km/h
Sensor: Nr:Datum:Temp:Abs-Feuchte:Windchill:Wind:
Aussen-T/F 551 21-01-2014 05:00:00 2.88333 C 5.46 g/m*3 2.88 C 4.13333 km/h
552 21-01-2014 06:00:00 2.88333 C 5.4 g/m*3 2.88 C 3.875 km/h
553 21-01-2014 07:00:00 2.83333 C 5.39 g/m*3 2.83 C 4.55833 km/h
554 21-01-2014 08:00:00 2.7 C 5.42 g/m*3 2.7 C 3.88333 km/h
555 21-01-2014 09:00:00 2.80833 C 5.52 g/m*3 2.81 C 1.86667 km/h
556 21-01-2014 10:00:00 3.11667 C 5.55 g/m*3 3.12 C 2.66667 km/h
557 21-01-2014 11:00:00 3.3 C 5.63 g/m*3 3.3 C 2.80833 km/h
558 21-01-2014 12:00:00 3.38333 C 5.68 g/m*3 3.38 C 0.4 km/h
559 21-01-2014 13:00:00 3.875 C 5.76 g/m*3 3.88 C 0.93333 km/h
560 21-01-2014 14:00:00 4.175 C 5.85 g/m*3 4.18 C 0.93333 km/h
561 21-01-2014 15:00:00 4.23333 C 5.87 g/m*3 4.23 C 0.53333 km/h
562 21-01-2014 16:00:00 4.01667 C 5.9 g/m*3 4.02 C 0 km/h
563 21-01-2014 17:00:00 3.83333 C 5.94 g/m*3 3.83 C 0 km/h
564 21-01-2014 18:00:00 3.8 C 6.01 g/m*3 3.8 C 0 km/h
565 21-01-2014 19:00:00 3.9 C 6.06 g/m*3 3.9 C 0 km/h
566 21-01-2014 20:00:00 3.975 C 6.09 g/m*3 3.98 C 0 km/h
567 21-01-2014 21:00:00 3.9 C 6.06 g/m*3 3.9 C 0 km/h
568 21-01-2014 22:00:00 3.9 C 6.06 g/m*3 3.9 C 0 km/h
569 21-01-2014 23:00:00 3.81667 C 6.03 g/m*3 3.82 C 0 km/h
570 22-01-2014 00:00:00 3.825 C 6.04 g/m*3 3.83 C 0 km/h
571 22-01-2014 01:00:00 3.91667 C 6.07 g/m*3 3.92 C 0 km/h
572 22-01-2014 02:00:00 4 C 6.17 g/m*3 4 C 0 km/h
573 22-01-2014 03:00:00 4.025 C 6.18 g/m*3 4.03 C 0 km/h
574 22-01-2014 04:00:00 4.05833 C 6.18 g/m*3 4.06 C 0.66667 km/h
575 22-01-2014 05:00:00 3.825 C 6.02 g/m*3 3.83 C 1.33333 km/h
Sensor: Nr:Datum:Temp:Abs-Feuchte:Windchill:Wind:
Aussen-T/F 576 22-01-2014 06:00:00 3.58333 C 5.77 g/m*3 2.34 C 5.35 km/h
577 22-01-2014 07:00:00 3.41667 C 5.64 g/m*3 3.42 C 4.28333 km/h
578 22-01-2014 08:00:00 3.35 C 5.64 g/m*3 3.35 C 2 km/h
579 22-01-2014 12:00:00 4.8 C 5.9 g/m*3 3.73 C 5.33333 km/h
580 22-01-2014 16:00:00 3.4 C 5.8 g/m*3 3.4 C 0.8 km/h
581 22-01-2014 17:00:00 2.975 C 5.63 g/m*3 2.98 C 2.26667 km/h
582 22-01-2014 18:00:00 2.66667 C 5.52 g/m*3 2.67 C 2.4 km/h
583 22-01-2014 19:00:00 2.25 C 5.41 g/m*3 2.25 C 1.33333 km/h
584 22-01-2014 20:00:00 1.73333 C 5.24 g/m*3 1.73 C 0 km/h
585 22-01-2014 21:00:00 1.55833 C 5.21 g/m*3 1.56 C 0.26667 km/h
586 22-01-2014 22:00:00 1.82222 C 5.33 g/m*3 1.82 C 0 km/h
587 23-01-2014 09:00:00 3.48 C 5.71 g/m*3 2.31 C 5.12 km/h
588 23-01-2014 10:00:00 3.65714 C 5.72 g/m*3 1.54 C 8.05714 km/h
589 23-01-2014 11:00:00 3.8 C 5.65 g/m*3 0.78 C 12.1 km/h
590 23-01-2014 12:00:00 4.26667 C 5.65 g/m*3 1.32 C 12.23333 km/h
591 23-01-2014 13:00:00 4.38333 C 5.62 g/m*3 2.33 C 8.31667 km/h
592 23-01-2014 14:00:00 4.325 C 5.55 g/m*3 2.63 C 6.975 km/h
593 23-01-2014 15:00:00 4.59167 C 5.69 g/m*3 3.39 C 5.61667 km/h
594 23-01-2014 16:00:00 4.24167 C 5.85 g/m*3 4.24 C 3.06667 km/h
595 23-01-2014 17:00:00 3.28333 C 5.68 g/m*3 3.28 C 0.4 km/h
596 23-01-2014 18:00:00 2.83333 C 5.61 g/m*3 2.83 C 0.26667 km/h
597 23-01-2014 19:00:00 3.14167 C 5.79 g/m*3 3.14 C 0.66667 km/h
598 23-01-2014 20:00:00 3.3 C 5.88 g/m*3 3.3 C 1.06667 km/h
599 23-01-2014 21:00:00 3.35 C 5.9 g/m*3 3.35 C 0 km/h
600 23-01-2014 22:00:00 3.54167 C 5.98 g/m*3 3.54 C 0.26667 km/h
Sensor: Nr:Datum:Temp:Abs-Feuchte:Windchill:Wind:
Aussen-T/F 601 23-01-2014 23:00:00 3.59167 C 6 g/m*3 3.59 C 0.53333 km/h
602 24-01-2014 00:00:00 3.05833 C 5.75 g/m*3 1.63 C 5.625 km/h
603 24-01-2014 01:00:00 3.025 C 5.72 g/m*3 3.03 C 3.33333 km/h
604 24-01-2014 02:00:00 3.85 C 5.95 g/m*3 1.27 C 10.05833 km/h
605 24-01-2014 03:00:00 4.25 C 5.99 g/m*3 2.46 C 7.25833 km/h
606 24-01-2014 04:00:00 4.3 C 5.96 g/m*3 3.11 C 5.475 km/h
607 24-01-2014 05:00:00 4.29167 C 5.92 g/m*3 3 C 5.75 km/h
608 24-01-2014 06:00:00 4.275 C 5.9 g/m*3 2.75 C 6.43333 km/h
609 24-01-2014 07:00:00 3.825 C 5.8 g/m*3 3.83 C 4.4 km/h
610 24-01-2014 08:00:00 3.83333 C 5.76 g/m*3 3.83 C 4.275 km/h
611 24-01-2014 09:00:00 3.95 C 5.84 g/m*3 3.95 C 0.93333 km/h
612 24-01-2014 10:00:00 4.23636 C 5.96 g/m*3 4.24 C 1.01818 km/h
613 24-01-2014 12:00:00 4.8 C 5.98 g/m*3 4.8 C 1.6 km/h
614 24-01-2014 13:00:00 4.8 C 6.04 g/m*3 4.8 C 1.6 km/h
615 24-01-2014 14:00:00 4.7 C 6 g/m*3 4.7 C 1.2 km/h
616 24-01-2014 15:00:00 4.7 C 6 g/m*3 4.7 C 1.92 km/h
617 24-01-2014 17:00:00 4.1 C 6.08 g/m*3 4.1 C 0.32 km/h
618 24-01-2014 18:00:00 4.1 C 6.08 g/m*3 4.1 C 0 km/h
619 24-01-2014 19:00:00 3.94167 C 6.02 g/m*3 3.94 C 0 km/h
620 24-01-2014 20:00:00 3.85833 C 6 g/m*3 3.86 C 0 km/h
621 24-01-2014 21:00:00 3.66667 C 5.95 g/m*3 3.67 C 0 km/h
622 24-01-2014 22:00:00 3.5 C 5.9 g/m*3 3.5 C 0 km/h
623 24-01-2014 23:00:00 3.20833 C 5.79 g/m*3 3.21 C 0 km/h
624 25-01-2014 00:00:00 3.14167 C 5.76 g/m*3 3.14 C 0 km/h
625 25-01-2014 01:00:00 3.1 C 5.75 g/m*3 3.1 C 0.13333 km/h
Sensor: Nr:Datum:Temp:Abs-Feuchte:Windchill:Wind:
Aussen-T/F 626 25-01-2014 02:00:00 3.18333 C 5.78 g/m*3 3.18 C 0 km/h
627 25-01-2014 03:00:00 2.575 C 5.54 g/m*3 2.58 C 0.66667 km/h
628 25-01-2014 04:00:00 1.5 C 5.16 g/m*3 1.5 C 0.8 km/h
629 25-01-2014 05:00:00 1.80833 C 5.32 g/m*3 1.81 C 1.2 km/h
630 25-01-2014 06:00:00 2.325 C 5.51 g/m*3 2.33 C 0.13333 km/h
631 25-01-2014 07:00:00 2.29167 C 5.5 g/m*3 2.29 C 0.13333 km/h
632 25-01-2014 08:00:00 1.93333 C 5.36 g/m*3 1.93 C 0 km/h
633 25-01-2014 09:00:00 2.175 C 5.44 g/m*3 2.17 C 3.6 km/h
634 25-01-2014 10:00:00 2.525 C 5.5 g/m*3 2.53 C 1.2 km/h
635 25-01-2014 11:00:00 3.18333 C 5.66 g/m*3 3.18 C 2.26667 km/h
636 25-01-2014 12:00:00 3.775 C 5.78 g/m*3 3.78 C 3.33333 km/h
637 25-01-2014 13:00:00 4.41667 C 5.88 g/m*3 4.42 C 4.66667 km/h
638 25-01-2014 14:00:00 4.8 C 5.97 g/m*3 4.8 C 4.4 km/h
639 25-01-2014 17:00:00 3.22 C 5.62 g/m*3 3.22 C 2.88 km/h
640 25-01-2014 18:00:00 3.2375 C 5.6 g/m*3 3.24 C 0.8 km/h
641 25-01-2014 22:00:00 3.6 C 5.36 g/m*3 1.06 C 9.66667 km/h
642 25-01-2014 23:00:00 3.00833 C 5.44 g/m*3 -0.38 C 13.15 km/h
643 26-01-2014 00:00:00 3.01667 C 5.52 g/m*3 -0.54 C 14.1 km/h
644 26-01-2014 01:00:00 3.4 C 5.71 g/m*3 0.82 C 9.675 km/h
645 26-01-2014 02:00:00 4.28333 C 5.9 g/m*3 1.91 C 9.54167 km/h
646 26-01-2014 03:00:00 5.04167 C 5.9 g/m*3 1.5 C 17.03333 km/h
647 26-01-2014 04:00:00 5.35833 C 5.89 g/m*3 1.84 C 17.44167 km/h
648 26-01-2014 05:00:00 5.9 C 5.76 g/m*3 2.07 C 21.16667 km/h
649 26-01-2014 06:00:00 6.01667 C 5.77 g/m*3 2.1 C 22.25833 km/h
650 26-01-2014 07:00:00 6.025 C 5.76 g/m*3 2.95 C 15.43333 km/h
Sensor: Nr:Datum:Temp:Abs-Feuchte:Windchill:Wind:
Aussen-T/F 651 26-01-2014 08:00:00 5.8 C 5.74 g/m*3 3.68 C 9.68333 km/h
652 26-01-2014 09:00:00 5.65 C 5.71 g/m*3 2.77 C 13.56667 km/h
653 26-01-2014 10:00:00 5.65833 C 5.72 g/m*3 2.66 C 14.36667 km/h
654 26-01-2014 11:00:00 5.83333 C 5.68 g/m*3 3 C 13.56667 km/h
655 26-01-2014 12:00:00 6.06 C 5.58 g/m*3 3.55 C 11.94 km/h
656 26-01-2014 13:00:00 6.15 C 5.56 g/m*3 3.63 C 12.09167 km/h
657 26-01-2014 14:00:00 6.2 C 5.47 g/m*3 3.99 C 10.48333 km/h
658 26-01-2014 15:00:00 6.16667 C 5.45 g/m*3 4.52 C 7.93333 km/h
659 26-01-2014 16:00:00 5.78333 C 5.34 g/m*3 5.78 C 4.14167 km/h
660 26-01-2014 17:00:00 5.5 C 5.38 g/m*3 4.42 C 5.625 km/h
661 26-01-2014 18:00:00 5.2 C 5.51 g/m*3 5.2 C 1.86667 km/h
662 26-01-2014 19:00:00 4.84167 C 5.68 g/m*3 4.84 C 3.06667 km/h
663 26-01-2014 20:00:00 4.3 C 5.9 g/m*3 4.3 C 4.13333 km/h
664 26-01-2014 21:00:00 3.75833 C 5.85 g/m*3 3.76 C 2.66667 km/h
665 26-01-2014 22:00:00 3.66667 C 5.84 g/m*3 3.67 C 3.2 km/h
666 26-01-2014 23:00:00 3.78333 C 5.9 g/m*3 3.78 C 4.41667 km/h
667 27-01-2014 00:00:00 4.1 C 5.97 g/m*3 4.1 C 4.83333 km/h
668 27-01-2014 01:00:00 4.24167 C 6.13 g/m*3 4.24 C 3.2 km/h
669 27-01-2014 02:00:00 4.31667 C 6.16 g/m*3 3.03 C 5.75 km/h
670 27-01-2014 03:00:00 5 C 6.25 g/m*3 2.73 C 9.68333 km/h
671 27-01-2014 04:00:00 4.19167 C 5.94 g/m*3 4.19 C 4.55833 km/h
672 27-01-2014 05:00:00 4.28333 C 5.93 g/m*3 2.8 C 6.3 km/h
673 27-01-2014 06:00:00 4.11667 C 5.77 g/m*3 4.12 C 4 km/h
674 27-01-2014 07:00:00 3.14167 C 5.54 g/m*3 3.14 C 3.2 km/h
675 27-01-2014 08:00:00 3.94167 C 5.5 g/m*3 1.73 C 8.59167 km/h
Sensor: Nr:Datum:Temp:Abs-Feuchte:Windchill:Wind:
Aussen-T/F 676 27-01-2014 09:00:00 4.1 C 5.5 g/m*3 4.1 C 4.8 km/h
677 27-01-2014 12:00:00 5.12727 C 5.43 g/m*3 2.41 C 12.00909 km/h
678 27-01-2014 13:00:00 4.45833 C 5.64 g/m*3 2.52 C 7.91667 km/h
679 27-01-2014 14:00:00 5.08333 C 5.36 g/m*3 2.63 C 10.60833 km/h
680 27-01-2014 15:00:00 5.30833 C 5.31 g/m*3 3.7 C 7.25 km/h
681 27-01-2014 16:00:00 5.04167 C 5.33 g/m*3 5.04 C 4.55833 km/h
682 27-01-2014 17:00:00 4.25833 C 5.39 g/m*3 4.26 C 2.94167 km/h
683 27-01-2014 18:00:00 4.06364 C 5.33 g/m*3 4.06 C 2.47273 km/h
684 27-01-2014 21:00:00 4.4 C 6.53 g/m*3 2.53 C 7.65 km/h
685 28-01-2014 08:00:00 1.4 C 4.96 g/m*3 1.4 C 2.13333 km/h
686 28-01-2014 10:00:00 3.63333 C 5.25 g/m*3 3.63 C 4.3 km/h
687 28-01-2014 11:00:00 3.85833 C 5.3 g/m*3 2.5 C 5.75833 km/h
688 28-01-2014 12:00:00 5.125 C 5.28 g/m*3 3.02 C 9.0625 km/h
689 28-01-2014 16:00:00 6.6 C 5.66 g/m*3 5.78 C 5.33333 km/h
690 28-01-2014 17:00:00 3.7 C 5.42 g/m*3 3.7 C 3.2 km/h
691 28-01-2014 18:00:00 2.69167 C 5.21 g/m*3 2.69 C 3.46667 km/h
692 28-01-2014 19:00:00 1.925 C 5.02 g/m*3 1.93 C 3.33333 km/h
693 28-01-2014 20:00:00 1.46667 C 4.93 g/m*3 1.47 C 2.93333 km/h
694 28-01-2014 21:00:00 1.04167 C 4.84 g/m*3 1.04 C 2.66667 km/h
695 28-01-2014 22:00:00 0.80833 C 4.77 g/m*3 0.81 C 3.06667 km/h
696 28-01-2014 23:00:00 0.38333 C 4.72 g/m*3 0.38 C 3.2 km/h
697 29-01-2014 00:00:00 0.11667 C 4.62 g/m*3 0.12 C 2.8 km/h
698 29-01-2014 01:00:00 -0.20833 C 4.53 g/m*3 -0.21 C 3.06667 km/h
699 29-01-2014 02:00:00 0.20833 C 4.69 g/m*3 0.21 C 2.53333 km/h
700 29-01-2014 03:00:00 0.2 C 4.67 g/m*3 0.2 C 3.2 km/h
Sensor: Nr:Datum:Temp:Abs-Feuchte:Windchill:Wind:
Aussen-T/F 701 29-01-2014 04:00:00 1.2 C 4.87 g/m*3 1.2 C 2.66667 km/h
702 29-01-2014 05:00:00 1.36667 C 4.84 g/m*3 1.37 C 2.66667 km/h
703 29-01-2014 07:00:00 1.62222 C 4.73 g/m*3 1.62 C 2.66667 km/h
704 29-01-2014 08:00:00 1.76667 C 4.74 g/m*3 1.77 C 2.53333 km/h
705 29-01-2014 09:00:00 2.05 C 4.74 g/m*3 0.17 C 6.43333 km/h
706 29-01-2014 13:00:00 4.06667 C 4.81 g/m*3 1.75 C 9.13333 km/h
707 29-01-2014 14:00:00 3.86667 C 4.64 g/m*3 2.65 C 5.36667 km/h
708 29-01-2014 15:00:00 3.8 C 4.64 g/m*3 3.8 C 3.2 km/h
709 29-01-2014 16:00:00 2.9 C 4.49 g/m*3 -0.46 C 12.9 km/h
710 29-01-2014 17:00:00 2.625 C 4.48 g/m*3 2.63 C 3.6 km/h
711 29-01-2014 18:00:00 2.01667 C 4.54 g/m*3 2.02 C 1.06667 km/h
712 29-01-2014 19:00:00 1.78333 C 4.54 g/m*3 1.78 C 3.33333 km/h
713 29-01-2014 20:00:00 2.23333 C 4.5 g/m*3 2.23 C 4.025 km/h
714 29-01-2014 21:00:00 1.925 C 4.48 g/m*3 1.93 C 2.53333 km/h
715 29-01-2014 22:00:00 1.86667 C 4.52 g/m*3 1.87 C 1.86667 km/h
716 29-01-2014 23:00:00 1.475 C 4.55 g/m*3 1.48 C 1.6 km/h
717 30-01-2014 00:00:00 2.03333 C 4.57 g/m*3 2.03 C 1.86667 km/h
718 30-01-2014 01:00:00 1.79167 C 4.6 g/m*3 1.79 C 0.26667 km/h
719 30-01-2014 02:00:00 1.875 C 4.61 g/m*3 1.88 C 0.8 km/h
720 30-01-2014 03:00:00 1.9 C 4.56 g/m*3 1.9 C 0.8 km/h
721 30-01-2014 04:00:00 1.89167 C 4.53 g/m*3 1.89 C 1.86667 km/h
722 30-01-2014 05:00:00 1.89167 C 4.56 g/m*3 1.89 C 0.13333 km/h
723 30-01-2014 06:00:00 1.35833 C 4.51 g/m*3 1.36 C 0.66667 km/h
724 30-01-2014 07:00:00 0.18333 C 4.31 g/m*3 0.18 C 1.46667 km/h
725 30-01-2014 08:00:00 0.56667 C 4.45 g/m*3 0.57 C 0.26667 km/h
Sensor: Nr:Datum:Temp:Abs-Feuchte:Windchill:Wind:
Aussen-T/F 726 30-01-2014 09:00:00 1.225 C 4.48 g/m*3 1.23 C 0.93333 km/h
727 30-01-2014 10:00:00 2.10833 C 4.54 g/m*3 2.11 C 2.93333 km/h
728 30-01-2014 11:00:00 3.06667 C 4.63 g/m*3 3.07 C 4 km/h
729 30-01-2014 12:00:00 3.35 C 4.74 g/m*3 3.35 C 3.46667 km/h
730 30-01-2014 13:00:00 4.10833 C 4.95 g/m*3 4.11 C 4.41667 km/h
731 30-01-2014 14:00:00 5.35833 C 5.1 g/m*3 5.36 C 3.6 km/h
732 30-01-2014 15:00:00 4.78333 C 5.36 g/m*3 4.78 C 1.06667 km/h
733 30-01-2014 16:00:00 4.33333 C 5.37 g/m*3 4.33 C 1.2 km/h
734 30-01-2014 17:00:00 2.51667 C 4.97 g/m*3 2.52 C 2.4 km/h
735 30-01-2014 18:00:00 1.54167 C 4.78 g/m*3 1.54 C 2.93333 km/h
736 30-01-2014 19:00:00 0.91667 C 4.64 g/m*3 0.92 C 2.93333 km/h
737 30-01-2014 20:00:00 0.58333 C 4.54 g/m*3 0.58 C 2.53333 km/h
738 30-01-2014 21:00:00 0.225 C 4.43 g/m*3 0.23 C 1.46667 km/h
739 30-01-2014 22:00:00 0 C 4.41 g/m*3 0 C 1.06667 km/h
740 30-01-2014 23:00:00 0.05833 C 4.48 g/m*3 0.06 C 0 km/h
741 31-01-2014 00:00:00 0.23333 C 4.53 g/m*3 0.23 C 0 km/h
742 31-01-2014 01:00:00 0.33333 C 4.53 g/m*3 0.33 C 0 km/h
743 31-01-2014 02:00:00 0.225 C 4.49 g/m*3 0.23 C 0 km/h
744 31-01-2014 03:00:00 -0.01667 C 4.42 g/m*3 -0.02 C 0 km/h
745 31-01-2014 04:00:00 0.275 C 4.49 g/m*3 0.28 C 0 km/h
746 31-01-2014 05:00:00 0.13333 C 4.45 g/m*3 0.13 C 0.26667 km/h
747 31-01-2014 06:00:00 -0.28333 C 4.36 g/m*3 -0.28 C 0.26667 km/h
748 31-01-2014 07:00:00 -0.95 C 4.23 g/m*3 -0.95 C 0.13333 km/h
749 31-01-2014 08:00:00 -1.15 C 4.18 g/m*3 -1.15 C 0 km/h
750 31-01-2014 09:00:00 -1.06667 C 4.23 g/m*3 -1.07 C 0 km/h
Sensor: Nr:Datum:Temp:Abs-Feuchte:Windchill:Wind:
Aussen-T/F 751 31-01-2014 10:00:00 -0.5 C 4.41 g/m*3 -0.5 C 0 km/h
752 31-01-2014 11:00:00 0.35 C 4.65 g/m*3 0.35 C 1.2 km/h
753 31-01-2014 12:00:00 1.35833 C 4.88 g/m*3 1.36 C 1.6 km/h
754 31-01-2014 13:00:00 2.15833 C 5.06 g/m*3 2.16 C 1.86667 km/h
755 31-01-2014 14:00:00 2.91667 C 5.29 g/m*3 2.92 C 2.53333 km/h
756 31-01-2014 15:00:00 3.65833 C 5.45 g/m*3 3.66 C 2.8 km/h
757 31-01-2014 16:00:00 3.95833 C 5.43 g/m*3 3.96 C 4.275 km/h
758 31-01-2014 17:00:00 3.3 C 5.21 g/m*3 3.3 C 4.95833 km/h
759 31-01-2014 18:00:00 1.95833 C 4.99 g/m*3 1.96 C 3.33333 km/h
760 31-01-2014 19:00:00 1.39167 C 4.9 g/m*3 1.39 C 2.93333 km/h
761 31-01-2014 20:00:00 1.64167 C 5 g/m*3 1.64 C 4.28333 km/h
762 31-01-2014 21:00:00 2.63333 C 5.12 g/m*3 0.75 C 6.71667 km/h
763 31-01-2014 22:00:00 1.425 C 4.89 g/m*3 1.43 C 2.66667 km/h
764 31-01-2014 23:00:00 0.93333 C 4.82 g/m*3 0.93 C 1.6 km/h
765 01-02-2014 00:00:00 1.06667 C 4.89 g/m*3 1.07 C 0.93333 km/h
766 01-02-2014 01:00:00 1.29167 C 4.97 g/m*3 1.29 C 1.46667 km/h
767 01-02-2014 02:00:00 1.9 C 5.09 g/m*3 1.9 C 3.60833 km/h
768 01-02-2014 03:00:00 2.20833 C 5.14 g/m*3 2.21 C 2.53333 km/h
769 01-02-2014 04:00:00 2.98333 C 5.32 g/m*3 2.98 C 4.53333 km/h
770 01-02-2014 05:00:00 3.48333 C 5.4 g/m*3 3.48 C 4.14167 km/h
771 01-02-2014 06:00:00 3.68333 C 5.49 g/m*3 3.68 C 3.6 km/h
772 01-02-2014 07:00:00 4.29167 C 5.54 g/m*3 4.29 C 4.275 km/h
773 01-02-2014 08:00:00 4.90833 C 5.56 g/m*3 3.84 C 5.35833 km/h
774 01-02-2014 09:00:00 5.66667 C 5.75 g/m*3 4.31 C 6.56667 km/h
775 01-02-2014 10:00:00 4.95833 C 6.18 g/m*3 4.96 C 2.8 km/h
Sensor: Nr:Datum:Temp:Abs-Feuchte:Windchill:Wind:
Aussen-T/F 776 01-02-2014 11:00:00 4.49167 C 6.14 g/m*3 4.49 C 2.26667 km/h
777 01-02-2014 12:00:00 5.28333 C 6.65 g/m*3 5.28 C 1.6 km/h
778 01-02-2014 13:00:00 6.35 C 6.75 g/m*3 4.04 C 11.15833 km/h
779 01-02-2014 14:00:00 6.58333 C 6.65 g/m*3 4.28 C 11.41667 km/h
780 01-02-2014 15:00:00 7 C 6.69 g/m*3 5 C 10.21667 km/h
781 01-02-2014 16:00:00 6.90833 C 6.7 g/m*3 6.22 C 5.08333 km/h
782 01-02-2014 17:00:00 6.45833 C 6.66 g/m*3 5.71 C 5.08333 km/h
783 01-02-2014 18:00:00 6.25 C 6.59 g/m*3 5.47 C 5.09167 km/h
784 01-02-2014 19:00:00 5.88333 C 6.55 g/m*3 5.88 C 1.73333 km/h
785 01-02-2014 20:00:00 5.65833 C 6.51 g/m*3 5.66 C 1.33333 km/h
786 01-02-2014 21:00:00 5.125 C 6.31 g/m*3 5.13 C 1.2 km/h
787 01-02-2014 22:00:00 4.70833 C 6.12 g/m*3 4.71 C 2.26667 km/h
788 01-02-2014 23:00:00 4.175 C 6 g/m*3 4.18 C 1.86667 km/h
789 02-02-2014 00:00:00 3.80833 C 5.9 g/m*3 3.81 C 0.13333 km/h
790 02-02-2014 01:00:00 3.79167 C 5.96 g/m*3 3.79 C 0.13333 km/h
791 02-02-2014 02:00:00 3.70833 C 5.92 g/m*3 3.71 C 0 km/h
792 02-02-2014 03:00:00 3.70833 C 5.94 g/m*3 3.71 C 0.4 km/h
793 02-02-2014 04:00:00 3.86667 C 5.99 g/m*3 3.87 C 0.93333 km/h
794 02-02-2014 05:00:00 4.70833 C 6.23 g/m*3 4.71 C 3.75 km/h
795 02-02-2014 06:00:00 5.2 C 6.26 g/m*3 5.2 C 1.73333 km/h
796 02-02-2014 07:00:00 4.44167 C 6.07 g/m*3 4.44 C 1.33333 km/h
797 02-02-2014 08:00:00 3.3 C 5.73 g/m*3 3.3 C 1.6 km/h
798 02-02-2014 09:00:00 3.96667 C 6.05 g/m*3 3.97 C 0.66667 km/h
799 02-02-2014 10:00:00 4.41667 C 6.13 g/m*3 4.42 C 0.93333 km/h
800 02-02-2014 11:00:00 5.53333 C 6.14 g/m*3 4.24 C 6.31667 km/h
Sensor: Nr:Datum:Temp:Abs-Feuchte:Windchill:Wind:
Aussen-T/F 801 02-02-2014 12:00:00 5.84167 C 6.09 g/m*3 5.84 C 4.40833 km/h
802 02-02-2014 13:00:00 6.18333 C 6.13 g/m*3 5.03 C 6.15833 km/h
803 02-02-2014 14:00:00 7.48333 C 6.14 g/m*3 5.61 C 10.08333 km/h
804 02-02-2014 15:00:00 7.84167 C 6.08 g/m*3 6.11 C 9.7 km/h
805 02-02-2014 16:00:00 6.43333 C 5.92 g/m*3 5.44 C 5.775 km/h
806 02-02-2014 17:00:00 4.48333 C 5.6 g/m*3 4.48 C 3.6 km/h
807 02-02-2014 18:00:00 3.20833 C 5.37 g/m*3 3.21 C 3.73333 km/h
808 02-02-2014 19:00:00 2.53333 C 5.27 g/m*3 2.53 C 1.86667 km/h
809 02-02-2014 20:00:00 1.975 C 5.15 g/m*3 1.98 C 0.53333 km/h
810 02-02-2014 21:00:00 1.69167 C 5.09 g/m*3 1.69 C 0.8 km/h
811 02-02-2014 22:00:00 1.00833 C 4.88 g/m*3 1.01 C 0 km/h
812 02-02-2014 23:00:00 0.3 C 4.68 g/m*3 0.3 C 0.4 km/h
813 03-02-2014 00:00:00 -0.03333 C 4.59 g/m*3 -0.03 C 0.4 km/h
814 03-02-2014 01:00:00 -0.49167 C 4.47 g/m*3 -0.49 C 0.26667 km/h
815 03-02-2014 02:00:00 -0.99167 C 4.34 g/m*3 -0.99 C 0 km/h
816 03-02-2014 03:00:00 -1.24167 C 4.27 g/m*3 -1.24 C 0 km/h
817 03-02-2014 04:00:00 -1.40833 C 4.22 g/m*3 -1.41 C 0.13333 km/h
818 03-02-2014 05:00:00 -1.70833 C 4.14 g/m*3 -1.71 C 0.4 km/h
819 03-02-2014 06:00:00 -1.8 C 4.15 g/m*3 -1.8 C 0.13333 km/h
820 03-02-2014 07:00:00 -1.80833 C 4.14 g/m*3 -1.81 C 0.8 km/h
821 03-02-2014 08:00:00 -1.86667 C 4.13 g/m*3 -1.87 C 0.13333 km/h
822 03-02-2014 09:00:00 -0.84167 C 4.46 g/m*3 -0.84 C 0.13333 km/h
823 03-02-2014 10:00:00 0.3 C 4.84 g/m*3 0.3 C 1.46667 km/h
824 03-02-2014 11:00:00 0.9 C 5.05 g/m*3 0.9 C 0.4 km/h
825 03-02-2014 12:00:00 1.80833 C 5.38 g/m*3 1.81 C 1.86667 km/h
Sensor: Nr:Datum:Temp:Abs-Feuchte:Windchill:Wind:
Aussen-T/F 826 03-02-2014 13:00:00 2.525 C 5.62 g/m*3 2.53 C 0.4 km/h
827 03-02-2014 14:00:00 2.91667 C 5.68 g/m*3 2.92 C 0 km/h
828 03-02-2014 15:00:00 3.23333 C 5.7 g/m*3 3.23 C 0.13333 km/h
829 03-02-2014 16:00:00 3.34167 C 5.72 g/m*3 3.34 C 0.13333 km/h
830 03-02-2014 17:00:00 3.25 C 5.72 g/m*3 3.25 C 0.13333 km/h
831 03-02-2014 18:00:00 3.25 C 5.74 g/m*3 3.25 C 0 km/h
832 03-02-2014 19:00:00 3.35833 C 5.77 g/m*3 3.36 C 0.4 km/h
833 03-02-2014 20:00:00 2.74167 C 5.47 g/m*3 2.74 C 2.53333 km/h
834 03-02-2014 21:00:00 2.41667 C 5.37 g/m*3 2.42 C 2.13333 km/h
835 03-02-2014 22:00:00 3.43333 C 5.58 g/m*3 1.96 C 5.9 km/h
836 03-02-2014 23:00:00 2.94167 C 5.39 g/m*3 2.94 C 3.34167 km/h
837 04-02-2014 00:00:00 2.73333 C 5.4 g/m*3 2.73 C 3.34167 km/h
838 04-02-2014 01:00:00 2.575 C 5.34 g/m*3 2.58 C 4.01667 km/h
839 04-02-2014 02:00:00 2.4 C 5.34 g/m*3 2.4 C 2 km/h
840 04-02-2014 03:00:00 2.44167 C 5.34 g/m*3 2.44 C 2.66667 km/h
841 04-02-2014 04:00:00 1.96667 C 5.22 g/m*3 1.97 C 2.8 km/h
842 04-02-2014 05:00:00 1.675 C 5.17 g/m*3 1.68 C 2.53333 km/h
843 04-02-2014 06:00:00 2.36667 C 5.43 g/m*3 2.37 C 2.53333 km/h
844 04-02-2014 07:00:00 2.825 C 5.58 g/m*3 2.83 C 2.80833 km/h
845 04-02-2014 08:00:00 3.3 C 5.7 g/m*3 3.3 C 1.86667 km/h
846 04-02-2014 09:00:00 4.95 C 5.87 g/m*3 4.95 C 4.80833 km/h
847 04-02-2014 10:00:00 5.95833 C 6.01 g/m*3 4.95 C 5.61667 km/h
848 04-02-2014 11:00:00 6.24167 C 6.08 g/m*3 5.02 C 6.43333 km/h
849 04-02-2014 12:00:00 6.84167 C 6.22 g/m*3 6.84 C 4.26667 km/h
850 04-02-2014 13:00:00 7.5 C 6.36 g/m*3 7.5 C 3.73333 km/h
Sensor: Nr:Datum:Temp:Abs-Feuchte:Windchill:Wind:
Aussen-T/F 851 04-02-2014 14:00:00 8.14167 C 6.56 g/m*3 8.14 C 2.8 km/h
852 04-02-2014 15:00:00 7.26667 C 6.73 g/m*3 7.27 C 1.6 km/h
853 04-02-2014 16:00:00 7.175 C 6.63 g/m*3 7.18 C 2 km/h
854 04-02-2014 17:00:00 5.8 C 6.28 g/m*3 5.8 C 3.33333 km/h
855 04-02-2014 18:00:00 5.26667 C 6.21 g/m*3 5.27 C 1.33333 km/h
856 04-02-2014 19:00:00 4.28333 C 5.88 g/m*3 4.28 C 2.40833 km/h
857 04-02-2014 20:00:00 3.48333 C 5.73 g/m*3 3.48 C 1.86667 km/h
858 04-02-2014 21:00:00 2.925 C 5.57 g/m*3 2.93 C 2.8 km/h
859 04-02-2014 22:00:00 2.51667 C 5.47 g/m*3 2.52 C 3.2 km/h
860 04-02-2014 23:00:00 2.275 C 5.42 g/m*3 2.28 C 2.66667 km/h
861 05-02-2014 00:00:00 2.25 C 5.43 g/m*3 2.25 C 2.8 km/h
862 05-02-2014 01:00:00 2.13333 C 5.38 g/m*3 2.13 C 2.66667 km/h
863 05-02-2014 02:00:00 2.1 C 5.37 g/m*3 2.1 C 3.33333 km/h
864 05-02-2014 03:00:00 2.66667 C 5.51 g/m*3 2.67 C 4.28333 km/h
865 05-02-2014 04:00:00 2.8 C 5.47 g/m*3 2.8 C 3.875 km/h
866 05-02-2014 05:00:00 3.05833 C 5.52 g/m*3 0.99 C 7.51667 km/h
867 05-02-2014 06:00:00 3.56667 C 5.5 g/m*3 1.18 C 9.00833 km/h
868 05-02-2014 07:00:00 3.44167 C 5.4 g/m*3 1.92 C 6.03333 km/h
869 05-02-2014 08:00:00 3.325 C 5.38 g/m*3 3.33 C 3.06667 km/h
870 05-02-2014 09:00:00 3.20833 C 5.61 g/m*3 3.21 C 1.46667 km/h
871 05-02-2014 10:00:00 3.89167 C 5.94 g/m*3 3.89 C 2 km/h
872 05-02-2014 11:00:00 4.93333 C 6.3 g/m*3 4.93 C 2.66667 km/h
873 05-02-2014 12:00:00 5.58333 C 6.36 g/m*3 5.58 C 3.6 km/h
874 05-02-2014 13:00:00 6.69167 C 6.46 g/m*3 5.71 C 5.875 km/h
875 05-02-2014 14:00:00 6.95 C 6.55 g/m*3 5.95 C 6.03333 km/h
Sensor: Nr:Datum:Temp:Abs-Feuchte:Windchill:Wind:
Aussen-T/F 876 05-02-2014 15:00:00 6.25 C 6.46 g/m*3 6.25 C 4.53333 km/h
877 05-02-2014 16:00:00 6.025 C 6.28 g/m*3 5.16 C 5.225 km/h
878 05-02-2014 17:00:00 5.80833 C 6.32 g/m*3 5.81 C 4.14167 km/h
879 05-02-2014 18:00:00 5.95 C 6.51 g/m*3 5.95 C 1.86667 km/h
880 05-02-2014 19:00:00 5.64167 C 6.42 g/m*3 5.64 C 1.86667 km/h
881 05-02-2014 20:00:00 5.43333 C 6.39 g/m*3 5.43 C 1.73333 km/h
882 05-02-2014 21:00:00 6.44167 C 6.49 g/m*3 5.63 C 5.23333 km/h
883 05-02-2014 22:00:00 7.8 C 6.43 g/m*3 6.12 C 9.39167 km/h
884 05-02-2014 23:00:00 7.86667 C 6.48 g/m*3 5.51 C 13.43333 km/h
885 06-02-2014 00:00:00 7.725 C 6.62 g/m*3 5.44 C 12.75833 km/h
886 06-02-2014 01:00:00 7.79167 C 6.77 g/m*3 5.42 C 13.41667 km/h
887 06-02-2014 02:00:00 8.125 C 6.86 g/m*3 6.01 C 12.21667 km/h
888 06-02-2014 03:00:00 8.29167 C 6.84 g/m*3 6.08 C 13.03333 km/h
889 06-02-2014 04:00:00 8.26667 C 6.84 g/m*3 6.04 C 13.15833 km/h
890 06-02-2014 05:00:00 8.05833 C 6.73 g/m*3 5.82 C 12.89167 km/h
891 06-02-2014 06:00:00 7.66667 C 6.45 g/m*3 5.16 C 14.09167 km/h
892 06-02-2014 07:00:00 7.05 C 6.28 g/m*3 5.09 C 10.08333 km/h
893 06-02-2014 08:00:00 6.73333 C 6.18 g/m*3 5.36 C 7.23333 km/h
894 06-02-2014 09:00:00 7.79167 C 6.38 g/m*3 6.53 C 7.51667 km/h
895 06-02-2014 10:00:00 8.44167 C 6.51 g/m*3 6.68 C 10.475 km/h
896 06-02-2014 11:00:00 8.85 C 6.51 g/m*3 6.17 C 17.7 km/h
897 06-02-2014 12:00:00 9.24167 C 6.48 g/m*3 6.81 C 16.36667 km/h
898 06-02-2014 13:00:00 9.93333 C 6.4 g/m*3 8.18 C 12.36667 km/h
899 06-02-2014 14:00:00 10.41667 C 6.46 g/m*3 9.38 C 8.59167 km/h
900 06-02-2014 15:00:00 10.20833 C 6.32 g/m*3 9.38 C 7.39167 km/h
Sensor: Nr:Datum:Temp:Abs-Feuchte:Windchill:Wind:
Aussen-T/F 901 06-02-2014 16:00:00 9.06667 C 6.51 g/m*3 9.07 C 2.53333 km/h
902 06-02-2014 17:00:00 8.66667 C 6.47 g/m*3 8.67 C 4.00833 km/h
903 06-02-2014 18:00:00 8.40833 C 6.54 g/m*3 8.41 C 4.15 km/h
904 06-02-2014 19:00:00 8.75 C 6.46 g/m*3 8.75 C 3.46667 km/h
905 06-02-2014 20:00:00 8.05 C 6.57 g/m*3 8.05 C 2.8 km/h
906 06-02-2014 21:00:00 8.45 C 6.19 g/m*3 7.57 C 6.43333 km/h
907 06-02-2014 22:00:00 8.04167 C 6.13 g/m*3 8.04 C 3.74167 km/h
908 06-02-2014 23:00:00 8.15833 C 6.45 g/m*3 8.16 C 4.40833 km/h
909 07-02-2014 00:00:00 7.64167 C 6.9 g/m*3 7.64 C 4.4 km/h
910 07-02-2014 01:00:00 7.76667 C 6.91 g/m*3 7.77 C 3.6 km/h
911 07-02-2014 02:00:00 8.025 C 6.82 g/m*3 8.03 C 4.14167 km/h
912 07-02-2014 03:00:00 8.2 C 6.84 g/m*3 8.2 C 4.55 km/h
913 07-02-2014 04:00:00 7.83333 C 6.96 g/m*3 7.83 C 3.6 km/h
914 07-02-2014 05:00:00 7.71667 C 6.97 g/m*3 7.72 C 3.60833 km/h
915 07-02-2014 06:00:00 9.13333 C 7.36 g/m*3 8.13 C 7.38333 km/h
916 07-02-2014 07:00:00 10.63333 C 7.43 g/m*3 9.56 C 9.00833 km/h
917 07-02-2014 08:00:00 11.35833 C 7.46 g/m*3 11.36 C 9.40833 km/h
918 07-02-2014 09:00:00 12.48333 C 7.51 g/m*3 12.48 C 15.03333 km/h
919 07-02-2014 10:00:00 13.06667 C 7.54 g/m*3 13.07 C 21.575 km/h
920 07-02-2014 11:00:00 11.65833 C 7.64 g/m*3 11.66 C 28.83333 km/h
921 07-02-2014 12:00:00 10.76667 C 6.89 g/m*3 7.49 C 31.25833 km/h
922 07-02-2014 13:00:00 10.35833 C 6.86 g/m*3 7.25 C 27.08333 km/h
923 07-02-2014 14:00:00 10.54167 C 6.6 g/m*3 7.08 C 33.25 km/h
924 07-02-2014 15:00:00 9.85833 C 6.65 g/m*3 6.29 C 31.51667 km/h
925 07-02-2014 16:00:00 9.25833 C 6.53 g/m*3 6.02 C 24.66667 km/h
Sensor: Nr:Datum:Temp:Abs-Feuchte:Windchill:Wind:
Aussen-T/F 926 07-02-2014 17:00:00 8.64167 C 6.61 g/m*3 6.1 C 16.1 km/h
927 07-02-2014 18:00:00 7.60833 C 6.6 g/m*3 4.3 C 20.51667 km/h
928 07-02-2014 19:00:00 6.99167 C 6.36 g/m*3 4.42 C 13.56667 km/h
929 07-02-2014 20:00:00 6.64167 C 6.22 g/m*3 4.21 C 12.23333 km/h
930 07-02-2014 21:00:00 5.99167 C 6.14 g/m*3 4.09 C 8.86667 km/h
931 07-02-2014 22:00:00 5.075 C 5.94 g/m*3 4.08 C 5.225 km/h
932 07-02-2014 23:00:00 3.74167 C 5.64 g/m*3 3.74 C 2.4 km/h
933 08-02-2014 00:00:00 2.86667 C 5.46 g/m*3 2.87 C 2.66667 km/h
934 08-02-2014 01:00:00 2.275 C 5.27 g/m*3 2.28 C 1.33333 km/h
935 08-02-2014 02:00:00 2.45833 C 5.3 g/m*3 2.46 C 1.6 km/h
936 08-02-2014 03:00:00 3.55 C 5.53 g/m*3 3.55 C 3.73333 km/h
937 08-02-2014 04:00:00 5.33333 C 5.86 g/m*3 4 C 6.31667 km/h
938 08-02-2014 05:00:00 5.925 C 5.98 g/m*3 5.93 C 4.40833 km/h
939 08-02-2014 06:00:00 6.025 C 6.07 g/m*3 4.94 C 5.88333 km/h
940 08-02-2014 07:00:00 6.53333 C 6.09 g/m*3 5.02 C 7.64167 km/h
941 08-02-2014 08:00:00 7.2 C 6.06 g/m*3 5.74 C 7.91667 km/h
942 08-02-2014 09:00:00 7.78333 C 6.05 g/m*3 6.24 C 8.725 km/h
943 08-02-2014 10:00:00 8.275 C 6.14 g/m*3 7.03 C 7.79167 km/h
944 08-02-2014 11:00:00 9.25 C 6.25 g/m*3 8.12 C 8.05 km/h
945 08-02-2014 12:00:00 9.59167 C 6.55 g/m*3 8.15 C 9.95833 km/h
946 08-02-2014 13:00:00 8.79167 C 6.91 g/m*3 7.7 C 7.50833 km/h
947 08-02-2014 14:00:00 8.46667 C 6.95 g/m*3 7.38 C 7.25 km/h
948 08-02-2014 15:00:00 7.71667 C 7.05 g/m*3 6.84 C 6.025 km/h
949 08-02-2014 16:00:00 7.16667 C 7.1 g/m*3 7.17 C 3.34167 km/h
950 08-02-2014 17:00:00 6.475 C 6.91 g/m*3 6.48 C 2.93333 km/h
Sensor: Nr:Datum:Temp:Abs-Feuchte:Windchill:Wind:
Aussen-T/F 951 08-02-2014 18:00:00 6.05 C 6.79 g/m*3 6.05 C 4.28333 km/h
952 08-02-2014 19:00:00 6.78333 C 6.83 g/m*3 5.81 C 5.89167 km/h
953 08-02-2014 20:00:00 7.1 C 6.82 g/m*3 5.72 C 7.525 km/h
954 08-02-2014 21:00:00 7.125 C 6.52 g/m*3 5.65 C 7.93333 km/h
955 08-02-2014 22:00:00 7.01667 C 6.33 g/m*3 5.28 C 8.98333 km/h
956 08-02-2014 23:00:00 6.98333 C 6.06 g/m*3 4.76 C 11.425 km/h
957 09-02-2014 00:00:00 6.35833 C 6.01 g/m*3 3.16 C 16.90833 km/h
958 09-02-2014 01:00:00 4.44167 C 5.82 g/m*3 2.1 C 9.525 km/h
959 09-02-2014 02:00:00 4.44167 C 5.75 g/m*3 2.81 C 6.83333 km/h
960 09-02-2014 03:00:00 5.75 C 5.8 g/m*3 4.22 C 7.23333 km/h
961 09-02-2014 04:00:00 5.79167 C 5.84 g/m*3 4.54 C 6.29167 km/h
962 09-02-2014 05:00:00 5.91667 C 5.88 g/m*3 3.71 C 10.19167 km/h
963 09-02-2014 06:00:00 5.68333 C 5.86 g/m*3 3.09 C 11.95833 km/h
964 09-02-2014 07:00:00 5.65 C 5.8 g/m*3 2.73 C 13.825 km/h
965 09-02-2014 08:00:00 5.725 C 5.78 g/m*3 3.48 C 10.225 km/h
966 09-02-2014 09:00:00 5.9 C 5.78 g/m*3 3.15 C 13.15 km/h
967 09-02-2014 10:00:00 6.30833 C 5.79 g/m*3 3.3 C 15.43333 km/h
968 09-02-2014 11:00:00 6.575 C 5.83 g/m*3 3.36 C 17.43333 km/h
969 09-02-2014 12:00:00 7.15833 C 5.7 g/m*3 3.66 C 21.175 km/h
970 09-02-2014 13:00:00 7.725 C 5.55 g/m*3 4.67 C 18.50833 km/h
971 09-02-2014 14:00:00 6.875 C 5.8 g/m*3 3.82 C 16.775 km/h
972 09-02-2014 15:00:00 7.31667 C 5.55 g/m*3 4.74 C 14.09167 km/h
973 09-02-2014 16:00:00 6.80833 C 5.43 g/m*3 4.55 C 11.425 km/h
974 09-02-2014 17:00:00 6.25833 C 5.33 g/m*3 4.29 C 9.4 km/h
975 09-02-2014 18:00:00 4.16667 C 5.26 g/m*3 4.17 C 2.26667 km/h
Sensor: Nr:Datum:Temp:Abs-Feuchte:Windchill:Wind:
Aussen-T/F 976 09-02-2014 19:00:00 3.84167 C 5.35 g/m*3 3.84 C 3.34167 km/h
977 09-02-2014 20:00:00 2.775 C 5.18 g/m*3 2.78 C 3.06667 km/h
978 09-02-2014 21:00:00 2.7 C 5.24 g/m*3 2.7 C 2.8 km/h
979 09-02-2014 22:00:00 2.325 C 5.2 g/m*3 2.33 C 1.33333 km/h
980 09-02-2014 23:00:00 1.75833 C 5.07 g/m*3 1.76 C 0.4 km/h
981 10-02-2014 00:00:00 1.425 C 5 g/m*3 1.43 C 0.8 km/h
982 10-02-2014 01:00:00 1.175 C 4.93 g/m*3 1.18 C 0.93333 km/h
983 10-02-2014 02:00:00 1.15 C 4.94 g/m*3 1.15 C 2.94167 km/h
984 10-02-2014 03:00:00 2.84167 C 5.23 g/m*3 0.74 C 7.51667 km/h
985 10-02-2014 04:00:00 1.50833 C 4.91 g/m*3 1.51 C 2.13333 km/h
986 10-02-2014 05:00:00 1.775 C 5.05 g/m*3 1.78 C 4.95 km/h
987 10-02-2014 06:00:00 3.05833 C 5.13 g/m*3 3.06 C 4.96667 km/h
988 10-02-2014 07:00:00 2.24167 C 5.06 g/m*3 2.24 C 0.93333 km/h
989 10-02-2014 08:00:00 1.91667 C 5.04 g/m*3 1.92 C 0.26667 km/h
990 10-02-2014 09:00:00 2.31667 C 5.18 g/m*3 2.32 C 0.13333 km/h
991 10-02-2014 10:00:00 3.80833 C 5.32 g/m*3 1.95 C 7.25 km/h
992 10-02-2014 11:00:00 5.95833 C 5.3 g/m*3 3.9 C 9.55 km/h
993 10-02-2014 12:00:00 6.5 C 4.92 g/m*3 5.44 C 6.025 km/h
994 10-02-2014 13:00:00 6.66667 C 4.85 g/m*3 5.94 C 5.08333 km/h
995 10-02-2014 14:00:00 6.78333 C 4.9 g/m*3 6.78 C 4.93333 km/h
996 10-02-2014 15:00:00 6.01667 C 5.44 g/m*3 6.02 C 4.15833 km/h
997 10-02-2014 16:00:00 4.5 C 5.92 g/m*3 4.5 C 0.26667 km/h
998 10-02-2014 17:00:00 3.775 C 5.87 g/m*3 3.78 C 0 km/h
999 10-02-2014 18:00:00 3.48333 C 5.83 g/m*3 3.48 C 0 km/h
1000 10-02-2014 19:00:00 3.3 C 5.79 g/m*3 3.3 C 0 km/h
Sensor: Nr:Datum:Temp:Abs-Feuchte:Windchill:Wind:
Aussen-T/F 1001 10-02-2014 20:00:00 3.14167 C 5.75 g/m*3 3.14 C 0.8 km/h
1002 10-02-2014 21:00:00 2.63333 C 5.51 g/m*3 2.63 C 1.86667 km/h
1003 10-02-2014 22:00:00 2.63333 C 5.52 g/m*3 2.63 C 2.8 km/h
1004 10-02-2014 23:00:00 2.70833 C 5.53 g/m*3 2.71 C 4.40833 km/h
1005 11-02-2014 00:00:00 2.95 C 5.63 g/m*3 2.95 C 4.275 km/h
1006 11-02-2014 01:00:00 3.64167 C 5.7 g/m*3 0.95 C 10.36667 km/h
1007 11-02-2014 02:00:00 4.10833 C 5.77 g/m*3 1.4 C 10.88333 km/h
1008 11-02-2014 03:00:00 3.875 C 5.75 g/m*3 1.52 C 9.13333 km/h
1009 11-02-2014 04:00:00 3.99167 C 5.78 g/m*3 2.38 C 6.55833 km/h
1010 11-02-2014 05:00:00 3.86667 C 5.76 g/m*3 2.32 C 6.29167 km/h
1011 11-02-2014 06:00:00 4.78333 C 5.94 g/m*3 3.05 C 7.375 km/h
1012 11-02-2014 07:00:00 5.325 C 5.92 g/m*3 2.71 C 11.69167 km/h
1013 11-02-2014 08:00:00 5.425 C 5.81 g/m*3 3.01 C 10.75833 km/h
1014 11-02-2014 09:00:00 5.69167 C 5.64 g/m*3 3.61 C 9.4 km/h
1015 11-02-2014 10:00:00 5.94167 C 5.84 g/m*3 3.88 C 9.54167 km/h
1016 11-02-2014 11:00:00 6.43333 C 6.05 g/m*3 3.67 C 13.96667 km/h
1017 11-02-2014 12:00:00 6.61667 C 5.88 g/m*3 4.07 C 12.89167 km/h
1018 11-02-2014 13:00:00 7.31667 C 5.83 g/m*3 5.6 C 9.14167 km/h
1019 11-02-2014 14:00:00 7.98333 C 5.68 g/m*3 6.66 C 7.9 km/h
1020 11-02-2014 15:00:00 8.38333 C 5.5 g/m*3 6.98 C 8.59167 km/h
1021 11-02-2014 16:00:00 7.3 C 5.54 g/m*3 6.66 C 5.08333 km/h
1022 11-02-2014 17:00:00 5.775 C 5.61 g/m*3 5.78 C 3.2 km/h
1023 11-02-2014 18:00:00 4.575 C 5.61 g/m*3 4.58 C 3.06667 km/h
1024 11-02-2014 19:00:00 4.65 C 5.64 g/m*3 4.65 C 3.075 km/h
1025 11-02-2014 20:00:00 4.68333 C 5.64 g/m*3 4.68 C 2.26667 km/h
Sensor: Nr:Datum:Temp:Abs-Feuchte:Windchill:Wind:
Aussen-T/F 1026 11-02-2014 21:00:00 5.225 C 5.57 g/m*3 5.23 C 3.2 km/h
1027 11-02-2014 22:00:00 5.625 C 5.61 g/m*3 5.63 C 2.53333 km/h
1028 11-02-2014 23:00:00 5.75833 C 5.71 g/m*3 5.76 C 2.66667 km/h
1029 12-02-2014 00:00:00 5.45 C 5.93 g/m*3 5.45 C 2.94167 km/h
1030 12-02-2014 01:00:00 5.31667 C 5.99 g/m*3 3.99 C 6.31667 km/h
1031 12-02-2014 02:00:00 5.15 C 6.02 g/m*3 2.68 C 10.74167 km/h
1032 12-02-2014 03:00:00 5.00833 C 5.98 g/m*3 2.2 C 12.36667 km/h
1033 12-02-2014 04:00:00 4.225 C 5.77 g/m*3 2.6 C 6.71667 km/h
1034 12-02-2014 05:00:00 3.73333 C 5.66 g/m*3 2.07 C 6.58333 km/h
1035 12-02-2014 06:00:00 3.61667 C 5.55 g/m*3 1.85 C 6.84167 km/h
1036 12-02-2014 07:00:00 3.88333 C 5.64 g/m*3 1.81 C 8.05 km/h
1037 12-02-2014 08:00:00 3.55 C 5.55 g/m*3 3.55 C 3.61667 km/h
1038 12-02-2014 09:00:00 3.69167 C 5.62 g/m*3 3.69 C 4.68333 km/h
1039 12-02-2014 10:00:00 5.475 C 5.69 g/m*3 3.1 C 10.61667 km/h
1040 12-02-2014 11:00:00 6.29167 C 5.59 g/m*3 3.46 C 14.225 km/h
1041 12-02-2014 12:00:00 6.75833 C 5.63 g/m*3 4.22 C 13.03333 km/h
1042 12-02-2014 13:00:00 7.95833 C 5.54 g/m*3 5.8 C 12.225 km/h
1043 12-02-2014 14:00:00 8.14167 C 5.5 g/m*3 6.18 C 11.3 km/h
1044 12-02-2014 15:00:00 8.34167 C 5.35 g/m*3 6.56 C 10.48333 km/h
1045 12-02-2014 16:00:00 7.31667 C 5.42 g/m*3 7.32 C 4.275 km/h
1046 12-02-2014 17:00:00 5.75833 C 5.38 g/m*3 4.91 C 5.08333 km/h
1047 12-02-2014 18:00:00 4.54167 C 5.37 g/m*3 4.54 C 2.8 km/h
1048 12-02-2014 19:00:00 4.33333 C 5.48 g/m*3 4.33 C 1.86667 km/h
1049 12-02-2014 20:00:00 4.58333 C 5.58 g/m*3 4.58 C 3.2 km/h
1050 12-02-2014 21:00:00 4.89167 C 5.64 g/m*3 4.89 C 2.93333 km/h
Sensor: Nr:Datum:Temp:Abs-Feuchte:Windchill:Wind:
Aussen-T/F 1051 12-02-2014 22:00:00 6.475 C 5.58 g/m*3 4.76 C 8.45 km/h
1052 12-02-2014 23:00:00 6.075 C 6.02 g/m*3 4.91 C 6.15833 km/h
1053 13-02-2014 00:00:00 5.625 C 6.03 g/m*3 3.63 C 8.99167 km/h
1054 13-02-2014 01:00:00 5.98333 C 6.14 g/m*3 3.63 C 11.025 km/h
1055 13-02-2014 02:00:00 5.925 C 6.32 g/m*3 5.93 C 3.075 km/h
1056 13-02-2014 03:00:00 5.80833 C 6.56 g/m*3 5.81 C 3.08333 km/h
1057 13-02-2014 04:00:00 6.2 C 6.66 g/m*3 4.74 C 7.24167 km/h
1058 13-02-2014 05:00:00 6.16667 C 6.43 g/m*3 4.24 C 9.125 km/h
1059 13-02-2014 06:00:00 5.43333 C 6.23 g/m*3 5.43 C 4.93333 km/h
1060 13-02-2014 07:00:00 5.425 C 6.21 g/m*3 5.43 C 4.81667 km/h
1061 13-02-2014 08:00:00 5.88333 C 6.37 g/m*3 5.88 C 2.8 km/h
1062 13-02-2014 09:00:00 6.30833 C 6.48 g/m*3 6.31 C 2.675 km/h
1063 13-02-2014 10:00:00 7.5 C 6.58 g/m*3 7.5 C 4.14167 km/h
1064 13-02-2014 11:00:00 7.90833 C 6.78 g/m*3 7.91 C 2.13333 km/h
1065 13-02-2014 12:00:00 7.28333 C 7 g/m*3 7.28 C 2.41667 km/h
1066 13-02-2014 13:00:00 5.91667 C 6.6 g/m*3 5.09 C 5.1 km/h
1067 13-02-2014 14:00:00 4.95833 C 6.25 g/m*3 3.85 C 5.49167 km/h
1068 13-02-2014 15:00:00 4.61667 C 6.19 g/m*3 4.62 C 0.4 km/h
1069 13-02-2014 16:00:00 4.55 C 6.19 g/m*3 4.55 C 4.69167 km/h
1070 13-02-2014 17:00:00 4.59167 C 6.18 g/m*3 2.9 C 7.10833 km/h
1071 13-02-2014 18:00:00 5.1 C 6.27 g/m*3 3.24 C 8.05833 km/h
1072 13-02-2014 19:00:00 5.59167 C 6.38 g/m*3 3.29 C 10.34167 km/h
1073 13-02-2014 20:00:00 5.64167 C 6.29 g/m*3 3.22 C 11.025 km/h
1074 13-02-2014 21:00:00 5.41667 C 5.94 g/m*3 2.49 C 13.56667 km/h
1075 13-02-2014 22:00:00 4.96667 C 5.63 g/m*3 2.75 C 9.40833 km/h
Sensor: Nr:Datum:Temp:Abs-Feuchte:Windchill:Wind:
Aussen-T/F 1076 13-02-2014 23:00:00 4.425 C 5.55 g/m*3 2.63 C 7.375 km/h
1077 14-02-2014 00:00:00 4.45833 C 5.6 g/m*3 3 C 6.3 km/h
1078 14-02-2014 01:00:00 4.36667 C 5.58 g/m*3 2.01 C 9.54167 km/h
1079 14-02-2014 02:00:00 4.91667 C 5.62 g/m*3 2.54 C 10.08333 km/h
1080 14-02-2014 03:00:00 4.98333 C 5.59 g/m*3 2.77 C 9.425 km/h
1081 14-02-2014 04:00:00 4.69167 C 5.48 g/m*3 2.83 C 7.8 km/h
1082 14-02-2014 05:00:00 4.19167 C 5.4 g/m*3 2.17 C 8.05 km/h
1083 14-02-2014 06:00:00 3.925 C 5.35 g/m*3 1.89 C 7.91667 km/h
1084 14-02-2014 07:00:00 2.825 C 5.28 g/m*3 2.83 C 2.8 km/h
1085 14-02-2014 08:00:00 3.64167 C 5.6 g/m*3 3.64 C 2.13333 km/h
1086 14-02-2014 09:00:00 5.19167 C 5.8 g/m*3 5.19 C 4.13333 km/h
1087 14-02-2014 10:00:00 5.89167 C 5.89 g/m*3 5.89 C 4.28333 km/h
1088 14-02-2014 11:00:00 6.64167 C 6.05 g/m*3 6.64 C 4.81667 km/h
1089 14-02-2014 12:00:00 7.78333 C 6.27 g/m*3 6.87 C 6.16667 km/h
1090 14-02-2014 13:00:00 8.16667 C 6.34 g/m*3 6.48 C 9.81667 km/h
1091 14-02-2014 14:00:00 8.19167 C 6.41 g/m*3 7.27 C 6.45 km/h
1092 14-02-2014 15:00:00 8.3 C 6.54 g/m*3 8.3 C 4.94167 km/h
1093 14-02-2014 16:00:00 7.83333 C 6.77 g/m*3 7.83 C 3.60833 km/h
1094 14-02-2014 17:00:00 6.25833 C 6.77 g/m*3 6.26 C 2.8 km/h
1095 14-02-2014 18:00:00 5.89167 C 6.5 g/m*3 4.38 C 7.25 km/h
1096 14-02-2014 19:00:00 5.56667 C 6.54 g/m*3 5.57 C 2.53333 km/h
1097 14-02-2014 20:00:00 5.09167 C 6.45 g/m*3 5.09 C 3.86667 km/h
1098 14-02-2014 21:00:00 5.09167 C 6.51 g/m*3 5.09 C 4.4 km/h
1099 14-02-2014 22:00:00 5.88333 C 6.84 g/m*3 5.88 C 4 km/h
1100 14-02-2014 23:00:00 5.75 C 6.74 g/m*3 5.75 C 3.46667 km/h
Sensor: Nr:Datum:Temp:Abs-Feuchte:Windchill:Wind:
Aussen-T/F 1101 15-02-2014 00:00:00 5.76667 C 6.72 g/m*3 5.77 C 4.54167 km/h
1102 15-02-2014 01:00:00 6.44167 C 6.95 g/m*3 6.44 C 4.94167 km/h
1103 15-02-2014 02:00:00 7.75 C 7.38 g/m*3 7.09 C 5.35 km/h
1104 15-02-2014 03:00:00 7.78333 C 7.26 g/m*3 7.78 C 4.54167 km/h
1105 15-02-2014 04:00:00 7.5 C 7.26 g/m*3 7.5 C 4.8 km/h
1106 15-02-2014 05:00:00 8.41667 C 7.65 g/m*3 8.42 C 4.4 km/h
1107 15-02-2014 06:00:00 9.55833 C 7.91 g/m*3 8.48 C 8.05 km/h
1108 15-02-2014 07:00:00 10.88333 C 7.81 g/m*3 9.2 C 13.41667 km/h
1109 15-02-2014 08:00:00 11.34167 C 7.47 g/m*3 11.34 C 13.83333 km/h
1110 15-02-2014 09:00:00 11.79167 C 7.35 g/m*3 11.79 C 22.10833 km/h
1111 15-02-2014 10:00:00 12 C 7.31 g/m*3 12 C 23.76667 km/h
1112 15-02-2014 11:00:00 12.23 C 7.18 g/m*3 12.23 C 23.16 km/h
1113 15-02-2014 12:00:00 12.16667 C 7.03 g/m*3 12.17 C 19.96667 km/h
1114 15-02-2014 13:00:00 12.13333 C 7.19 g/m*3 12.13 C 17.16667 km/h
1115 15-02-2014 14:00:00 12.30833 C 7.45 g/m*3 12.31 C 16.23333 km/h
1116 15-02-2014 15:00:00 11.94167 C 7.26 g/m*3 11.94 C 16.1 km/h
1117 15-02-2014 16:00:00 11.35333 C 7.11 g/m*3 11.35 C 14.28667 km/h
1118 15-02-2014 17:00:00 10.59167 C 7.02 g/m*3 9.07 C 11.7 km/h
1119 15-02-2014 18:00:00 9.96667 C 6.97 g/m*3 8.42 C 11.01667 km/h
1120 15-02-2014 19:00:00 9.16667 C 7.34 g/m*3 7.55 C 10.475 km/h
1121 15-02-2014 20:00:00 7.5 C 7.42 g/m*3 7.5 C 4.275 km/h
1122 15-02-2014 21:00:00 7.81667 C 7.26 g/m*3 6.09 C 9.66667 km/h
1123 15-02-2014 22:00:00 8.64167 C 7.07 g/m*3 6.47 C 13.29167 km/h
1124 15-02-2014 23:00:00 8.80833 C 6.84 g/m*3 6.24 C 16.63333 km/h
1125 16-02-2014 00:00:00 8.40833 C 6.76 g/m*3 6.09 C 13.975 km/h
Sensor: Nr:Datum:Temp:Abs-Feuchte:Windchill:Wind:
Aussen-T/F 1126 16-02-2014 01:00:00 8.45 C 6.63 g/m*3 5.76 C 16.90833 km/h
1127 16-02-2014 02:00:00 8.275 C 6.57 g/m*3 5.82 C 14.76667 km/h
1128 16-02-2014 03:00:00 7.95833 C 6.41 g/m*3 5.78 C 12.36667 km/h
1129 16-02-2014 04:00:00 8.125 C 6.3 g/m*3 5.86 C 13.15833 km/h
1130 16-02-2014 05:00:00 7.775 C 6.31 g/m*3 5.5 C 12.75833 km/h
1131 16-02-2014 06:00:00 7.69167 C 6.37 g/m*3 5.19 C 14.1 km/h
1132 16-02-2014 07:00:00 7.575 C 6.42 g/m*3 5.23 C 12.9 km/h
1133 16-02-2014 08:00:00 7.35833 C 6.37 g/m*3 5.08 C 12.23333 km/h
1134 16-02-2014 09:00:00 7.49167 C 6.53 g/m*3 5.17 C 12.625 km/h
1135 16-02-2014 10:00:00 8.00833 C 6.57 g/m*3 5.6 C 13.96667 km/h
1136 16-02-2014 11:00:00 8.56667 C 6.6 g/m*3 6.14 C 15.04167 km/h
1137 16-02-2014 12:00:00 8.45833 C 6.84 g/m*3 6.33 C 12.75833 km/h
1138 16-02-2014 13:00:00 8.68333 C 6.88 g/m*3 6.32 C 14.76667 km/h
1139 16-02-2014 14:00:00 9.21667 C 6.74 g/m*3 6.84 C 15.83333 km/h
1140 16-02-2014 15:00:00 9.325 C 6.58 g/m*3 7.18 C 14.23333 km/h
1141 16-02-2014 16:00:00 9.625 C 6.6 g/m*3 7.66 C 13.425 km/h
1142 16-02-2014 17:00:00 8.8 C 6.38 g/m*3 7.59 C 8.05 km/h
1143 16-02-2014 18:00:00 6.19167 C 6.26 g/m*3 6.19 C 3.86667 km/h
1144 16-02-2014 19:00:00 5.24167 C 6.1 g/m*3 5.24 C 3.86667 km/h
1145 16-02-2014 20:00:00 4.5 C 5.92 g/m*3 4.5 C 3.06667 km/h
1146 16-02-2014 21:00:00 3.86667 C 5.79 g/m*3 3.87 C 2.8 km/h
1147 16-02-2014 22:00:00 3.81667 C 5.68 g/m*3 3.82 C 3.46667 km/h
1148 16-02-2014 23:00:00 3.35 C 5.53 g/m*3 3.35 C 2.26667 km/h
1149 17-02-2014 00:00:00 2.775 C 5.39 g/m*3 2.78 C 1.86667 km/h
1150 17-02-2014 01:00:00 1.69167 C 5.11 g/m*3 1.69 C 0.13333 km/h
Sensor: Nr:Datum:Temp:Abs-Feuchte:Windchill:Wind:
Aussen-T/F 1151 17-02-2014 02:00:00 1.24167 C 5.01 g/m*3 1.24 C 0.66667 km/h
1152 17-02-2014 03:00:00 0.55833 C 4.79 g/m*3 0.56 C 0 km/h
1153 17-02-2014 04:00:00 0.16667 C 4.71 g/m*3 0.17 C 0 km/h
1154 17-02-2014 05:00:00 -0.04167 C 4.64 g/m*3 -0.04 C 0 km/h
1155 17-02-2014 06:00:00 0.13333 C 4.72 g/m*3 0.13 C 0.26667 km/h
1156 17-02-2014 07:00:00 0.49167 C 4.86 g/m*3 0.49 C 0.13333 km/h
1157 17-02-2014 08:00:00 1.25 C 5.12 g/m*3 1.25 C 2 km/h
1158 17-02-2014 09:00:00 2.24167 C 5.48 g/m*3 2.24 C 1.2 km/h
1159 17-02-2014 10:00:00 3.51667 C 5.95 g/m*3 3.52 C 4.44167 km/h
1160 17-02-2014 11:00:00 4.99167 C 6.36 g/m*3 3.98 C 5.23333 km/h
1161 17-02-2014 12:00:00 6.93333 C 6.79 g/m*3 4.67 C 11.56667 km/h
1162 17-02-2014 13:00:00 7.65833 C 6.75 g/m*3 5.25 C 13.43333 km/h
1163 17-02-2014 14:00:00 8.71667 C 6.81 g/m*3 6.68 C 12.5 km/h
1164 17-02-2014 15:00:00 9.35833 C 6.76 g/m*3 7.6 C 11.56667 km/h
1165 17-02-2014 16:00:00 8.59167 C 6.75 g/m*3 8 C 5.5 km/h
1166 17-02-2014 17:00:00 6.51667 C 6.54 g/m*3 6.52 C 4 km/h
1167 17-02-2014 18:00:00 5.03333 C 6.23 g/m*3 5.03 C 4.13333 km/h
1168 17-02-2014 19:00:00 4.21667 C 6 g/m*3 4.22 C 1.6 km/h
1169 17-02-2014 20:00:00 3.65833 C 5.85 g/m*3 3.66 C 0.26667 km/h
1170 17-02-2014 21:00:00 2.95 C 5.6 g/m*3 2.95 C 0 km/h
1171 17-02-2014 22:00:00 2.09167 C 5.33 g/m*3 2.09 C 0 km/h
1172 17-02-2014 23:00:00 1.625 C 5.2 g/m*3 1.63 C 0 km/h
1173 18-02-2014 00:00:00 1.3 C 5.09 g/m*3 1.3 C 0.13333 km/h
1174 18-02-2014 01:00:00 0.9 C 4.95 g/m*3 0.9 C 0 km/h
1175 18-02-2014 02:00:00 0.675 C 4.92 g/m*3 0.68 C 0 km/h
Sensor: Nr:Datum:Temp:Abs-Feuchte:Windchill:Wind:
Aussen-T/F 1176 18-02-2014 03:00:00 0.51667 C 4.87 g/m*3 0.52 C 0 km/h
1177 18-02-2014 04:00:00 0.425 C 4.84 g/m*3 0.43 C 1.06667 km/h
1178 18-02-2014 05:00:00 0.31667 C 4.8 g/m*3 0.32 C 1.6 km/h
1179 18-02-2014 06:00:00 0.21667 C 4.77 g/m*3 0.22 C 1.2 km/h
1180 18-02-2014 07:00:00 0.1 C 4.73 g/m*3 0.1 C 0 km/h
1181 18-02-2014 08:00:00 0.13333 C 4.76 g/m*3 0.13 C 0.8 km/h
1182 18-02-2014 09:00:00 0.28333 C 4.82 g/m*3 0.28 C 0.13333 km/h
1183 18-02-2014 10:00:00 0.925 C 5.06 g/m*3 0.93 C 1.33333 km/h
1184 18-02-2014 11:00:00 2.46667 C 5.62 g/m*3 2.47 C 1.6 km/h
1185 18-02-2014 12:00:00 3.35 C 5.96 g/m*3 3.35 C 1.46667 km/h
1186 18-02-2014 13:00:00 4.79167 C 6.34 g/m*3 4.79 C 0.93333 km/h
1187 18-02-2014 14:00:00 6.64167 C 6.67 g/m*3 6.64 C 0.66667 km/h
1188 18-02-2014 15:00:00 7.79167 C 6.85 g/m*3 7.79 C 0.8 km/h
1189 18-02-2014 16:00:00 7.85833 C 7.11 g/m*3 7.86 C 0 km/h
1190 18-02-2014 17:00:00 6.95833 C 6.99 g/m*3 6.96 C 0 km/h
1191 18-02-2014 18:00:00 6.54167 C 6.82 g/m*3 6.54 C 1.2 km/h
1192 18-02-2014 19:00:00 6.075 C 6.65 g/m*3 6.08 C 0 km/h
1193 18-02-2014 20:00:00 5.76667 C 6.58 g/m*3 5.77 C 0.66667 km/h
1194 18-02-2014 21:00:00 5.65 C 6.58 g/m*3 5.65 C 0.13333 km/h
1195 18-02-2014 22:00:00 5.75833 C 6.6 g/m*3 5.76 C 0.26667 km/h
1196 18-02-2014 23:00:00 5.85 C 6.56 g/m*3 5.85 C 0.13333 km/h
1197 19-02-2014 00:00:00 5.50833 C 6.51 g/m*3 5.51 C 0 km/h
1198 19-02-2014 01:00:00 5.3 C 6.44 g/m*3 5.3 C 0.13333 km/h
1199 19-02-2014 02:00:00 5.075 C 6.35 g/m*3 5.08 C 0.4 km/h
1200 19-02-2014 03:00:00 5.06667 C 6.35 g/m*3 5.07 C 1.06667 km/h
Sensor: Nr:Datum:Temp:Abs-Feuchte:Windchill:Wind:
Aussen-T/F 1201 19-02-2014 04:00:00 5.45833 C 6.5 g/m*3 5.46 C 0.66667 km/h
1202 19-02-2014 05:00:00 6.9 C 6.78 g/m*3 6.9 C 3.75833 km/h
1203 19-02-2014 06:00:00 6.99167 C 6.91 g/m*3 5.96 C 6.175 km/h
1204 19-02-2014 07:00:00 7.175 C 6.91 g/m*3 6.17 C 6.16667 km/h
1205 19-02-2014 08:00:00 7 C 6.97 g/m*3 6.28 C 5.21667 km/h
1206 19-02-2014 09:00:00 7.83333 C 7.16 g/m*3 7.83 C 4.81667 km/h
1207 19-02-2014 10:00:00 8.63333 C 7.21 g/m*3 6.48 C 13.15833 km/h
1208 19-02-2014 11:00:00 9.175 C 7.15 g/m*3 6.91 C 14.9 km/h
1209 19-02-2014 12:00:00 10.31667 C 7.12 g/m*3 8.4 C 14.23333 km/h
1210 19-02-2014 13:00:00 11.53333 C 7.04 g/m*3 11.53 C 13.16667 km/h
1211 19-02-2014 14:00:00 11.525 C 6.98 g/m*3 11.53 C 13.425 km/h
1212 19-02-2014 15:00:00 10.83333 C 7.06 g/m*3 9.31 C 12.08333 km/h
1213 19-02-2014 16:00:00 9.59167 C 7.44 g/m*3 9.15 C 5.48333 km/h
1214 19-02-2014 17:00:00 9.25833 C 7.29 g/m*3 8.4 C 6.85 km/h
1215 19-02-2014 18:00:00 8.85833 C 7.24 g/m*3 8.15 C 6.025 km/h
1216 19-02-2014 19:00:00 8.19167 C 7.09 g/m*3 8.19 C 4.14167 km/h
1217 19-02-2014 20:00:00 7.76667 C 7.08 g/m*3 7.77 C 3.73333 km/h
1218 19-02-2014 21:00:00 6.825 C 6.83 g/m*3 6.83 C 3.73333 km/h
1219 19-02-2014 22:00:00 6.2 C 6.72 g/m*3 6.2 C 3.6 km/h
1220 19-02-2014 23:00:00 6.78333 C 6.83 g/m*3 6.78 C 3.6 km/h
1221 20-02-2014 00:00:00 6.96667 C 6.81 g/m*3 6.19 C 5.35 km/h
1222 20-02-2014 01:00:00 6.55 C 6.73 g/m*3 5.81 C 5.08333 km/h
1223 20-02-2014 02:00:00 6.48333 C 6.8 g/m*3 6.48 C 4.01667 km/h
1224 20-02-2014 03:00:00 6.38333 C 6.77 g/m*3 6.38 C 3.61667 km/h
1225 20-02-2014 04:00:00 6.425 C 6.71 g/m*3 6.43 C 3.61667 km/h
Sensor: Nr:Datum:Temp:Abs-Feuchte:Windchill:Wind:
Aussen-T/F 1226 20-02-2014 05:00:00 5.86667 C 6.67 g/m*3 5.87 C 1.06667 km/h
1227 20-02-2014 06:00:00 5.96667 C 6.74 g/m*3 5.97 C 0.4 km/h
1228 20-02-2014 07:00:00 6.09167 C 6.79 g/m*3 6.09 C 1.33333 km/h
1229 20-02-2014 08:00:00 6.75 C 6.94 g/m*3 6.75 C 1.73333 km/h
1230 20-02-2014 09:00:00 7.98333 C 7.05 g/m*3 7.98 C 3.60833 km/h
1231 20-02-2014 10:00:00 8.88333 C 7.14 g/m*3 8.88 C 4.275 km/h
1232 20-02-2014 11:00:00 9.73333 C 7.07 g/m*3 8.68 C 8.05 km/h
1233 20-02-2014 12:00:00 10.76667 C 6.9 g/m*3 9.4 C 10.9 km/h
1234 20-02-2014 13:00:00 11.35 C 6.88 g/m*3 11.35 C 10.89167 km/h
1235 20-02-2014 14:00:00 11.225 C 7.08 g/m*3 11.23 C 8.74167 km/h
1236 20-02-2014 15:00:00 11.15 C 7.35 g/m*3 11.15 C 6.30833 km/h
1237 20-02-2014 16:00:00 11.25833 C 7.42 g/m*3 11.26 C 3.075 km/h
1238 20-02-2014 17:00:00 10.875 C 7.51 g/m*3 10.88 C 2.8 km/h
1239 20-02-2014 18:00:00 9.95 C 7.47 g/m*3 9.95 C 1.73333 km/h
1240 20-02-2014 19:00:00 9.75 C 7.35 g/m*3 9.75 C 2.66667 km/h
1241 20-02-2014 20:00:00 9.475 C 7.4 g/m*3 9.48 C 2.53333 km/h
1242 20-02-2014 21:00:00 9.6 C 7.53 g/m*3 9.6 C 2.53333 km/h
1243 20-02-2014 22:00:00 9.65 C 7.67 g/m*3 9.65 C 1.46667 km/h
1244 20-02-2014 23:00:00 9.41667 C 7.81 g/m*3 9.42 C 2.93333 km/h
1245 21-02-2014 00:00:00 9.38333 C 7.94 g/m*3 9.38 C 4.15 km/h
1246 21-02-2014 01:00:00 9.65 C 8.08 g/m*3 9.65 C 2.26667 km/h
1247 21-02-2014 02:00:00 9.73333 C 8.15 g/m*3 9.73 C 4.425 km/h
1248 21-02-2014 03:00:00 9.45 C 8.05 g/m*3 9.02 C 5.35833 km/h
1249 21-02-2014 04:00:00 9.525 C 7.89 g/m*3 8.52 C 7.65833 km/h
1250 21-02-2014 05:00:00 9.38333 C 7.52 g/m*3 7.98 C 9.53333 km/h
Sensor: Nr:Datum:Temp:Abs-Feuchte:Windchill:Wind:
Aussen-T/F 1251 21-02-2014 06:00:00 8.21667 C 7.41 g/m*3 8.22 C 2.94167 km/h
1252 21-02-2014 07:00:00 7.95833 C 7.24 g/m*3 7.41 C 5.075 km/h
1253 21-02-2014 08:00:00 8.25833 C 7.09 g/m*3 6.86 C 8.46667 km/h
1254 21-02-2014 09:00:00 8.9 C 7 g/m*3 6.57 C 14.9 km/h
1255 21-02-2014 10:00:00 9.28333 C 6.98 g/m*3 7.2 C 13.7 km/h
1256 21-02-2014 11:00:00 8.90833 C 6.95 g/m*3 6.55 C 15.175 km/h
1257 21-02-2014 12:00:00 7.91667 C 7.06 g/m*3 5.41 C 14.5 km/h
1258 21-02-2014 13:00:00 8.575 C 6.68 g/m*3 5.71 C 18.775 km/h
1259 21-02-2014 14:00:00 9.03333 C 6.69 g/m*3 6.65 C 15.56667 km/h
1260 21-02-2014 15:00:00 9.21667 C 6.35 g/m*3 6.56 C 18.36667 km/h
1261 21-02-2014 16:00:00 7.69167 C 6.31 g/m*3 5.16 C 14.36667 km/h
1262 21-02-2014 17:00:00 7.125 C 6.2 g/m*3 5.1 C 10.5 km/h
1263 21-02-2014 18:00:00 5.64167 C 6.05 g/m*3 5.64 C 4.4 km/h
1264 21-02-2014 19:00:00 5.1 C 5.95 g/m*3 5.1 C 4.80833 km/h
1265 21-02-2014 20:00:00 4.11667 C 5.82 g/m*3 4.12 C 3.2 km/h
1266 21-02-2014 21:00:00 3.55 C 5.69 g/m*3 3.55 C 2.93333 km/h
1267 21-02-2014 22:00:00 3.225 C 5.63 g/m*3 3.23 C 1.46667 km/h
1268 21-02-2014 23:00:00 3.53333 C 5.73 g/m*3 3.53 C 1.46667 km/h
1269 22-02-2014 00:00:00 2.86667 C 5.5 g/m*3 2.87 C 3.46667 km/h
1270 22-02-2014 01:00:00 2.35 C 5.37 g/m*3 2.35 C 2.4 km/h
1271 22-02-2014 02:00:00 1.96667 C 5.27 g/m*3 1.97 C 1.73333 km/h
1272 22-02-2014 03:00:00 1.675 C 5.16 g/m*3 1.68 C 1.6 km/h
1273 22-02-2014 04:00:00 1.33333 C 5.04 g/m*3 1.33 C 1.46667 km/h
1274 22-02-2014 05:00:00 1.19167 C 5.02 g/m*3 1.19 C 1.2 km/h
1275 22-02-2014 06:00:00 2.05 C 5.34 g/m*3 2.05 C 2.95 km/h
Sensor: Nr:Datum:Temp:Abs-Feuchte:Windchill:Wind:
Aussen-T/F 1276 22-02-2014 07:00:00 3.3 C 5.64 g/m*3 3.3 C 2.66667 km/h
1277 22-02-2014 08:00:00 3.93333 C 5.77 g/m*3 3.93 C 0.8 km/h
1278 22-02-2014 09:00:00 5.05 C 5.96 g/m*3 5.05 C 4.41667 km/h
1279 22-02-2014 10:00:00 6.24167 C 6.11 g/m*3 4.83 C 7.10833 km/h
1280 22-02-2014 11:00:00 7.00833 C 6.16 g/m*3 5.01 C 10.21667 km/h
1281 22-02-2014 12:00:00 7.48333 C 6.35 g/m*3 5.39 C 11.29167 km/h
1282 22-02-2014 13:00:00 7.28333 C 6.36 g/m*3 5.01 C 12.1 km/h
1283 22-02-2014 14:00:00 7.56667 C 6.41 g/m*3 5.35 C 12.08333 km/h
1284 22-02-2014 15:00:00 7.76667 C 6.43 g/m*3 5.85 C 10.625 km/h
1285 22-02-2014 16:00:00 7.775 C 6.45 g/m*3 6.41 C 7.925 km/h
1286 22-02-2014 17:00:00 7.36667 C 6.41 g/m*3 6.21 C 6.84167 km/h
1287 22-02-2014 18:00:00 6.74167 C 6.32 g/m*3 6.74 C 4.00833 km/h
1288 22-02-2014 19:00:00 6.34167 C 6.19 g/m*3 4.94 C 7.11667 km/h
1289 22-02-2014 20:00:00 6.10833 C 6.21 g/m*3 6.11 C 2.53333 km/h
1290 22-02-2014 21:00:00 5.75 C 6.24 g/m*3 5.75 C 1.2 km/h
1291 22-02-2014 22:00:00 5.53333 C 6.21 g/m*3 5.53 C 0.26667 km/h
1292 22-02-2014 23:00:00 5.28333 C 6.13 g/m*3 5.28 C 0.53333 km/h
1293 23-02-2014 00:00:00 5.55 C 6.07 g/m*3 5.55 C 1.86667 km/h
1294 23-02-2014 01:00:00 4.35 C 5.71 g/m*3 4.35 C 2.66667 km/h
1295 23-02-2014 02:00:00 3.04167 C 5.43 g/m*3 3.04 C 3.33333 km/h
1296 23-02-2014 03:00:00 2.88333 C 5.35 g/m*3 2.88 C 4 km/h
1297 23-02-2014 04:00:00 2.19167 C 5.17 g/m*3 2.19 C 0.66667 km/h
1298 23-02-2014 05:00:00 2.06667 C 5.2 g/m*3 2.07 C 0.8 km/h
1299 23-02-2014 06:00:00 2.91667 C 5.47 g/m*3 2.92 C 2.53333 km/h
1300 23-02-2014 07:00:00 3.725 C 5.63 g/m*3 3.73 C 2.8 km/h
Sensor: Nr:Datum:Temp:Abs-Feuchte:Windchill:Wind:
Aussen-T/F 1301 23-02-2014 08:00:00 4.51 C 5.96 g/m*3 4.51 C 0.64 km/h
1302 23-02-2014 09:00:00 6 C 6.1 g/m*3 6 C 1.06667 km/h
1303 23-02-2014 12:00:00 10.125 C 7.13 g/m*3 9.32 C 7.225 km/h
1304 23-02-2014 13:00:00 10.40833 C 6.48 g/m*3 9.04 C 10.49167 km/h
1305 23-02-2014 14:00:00 10.35 C 6.72 g/m*3 8.71 C 12.225 km/h
1306 23-02-2014 15:00:00 9.74167 C 6.78 g/m*3 8.66 C 8.20833 km/h
1307 23-02-2014 16:00:00 9.98333 C 6.61 g/m*3 9.98 C 4.81667 km/h
1308 23-02-2014 17:00:00 9.40833 C 6.71 g/m*3 9.41 C 0.66667 km/h
1309 23-02-2014 18:00:00 8.38333 C 6.5 g/m*3 8.38 C 2 km/h
1310 23-02-2014 19:00:00 7.50833 C 6.55 g/m*3 7.51 C 3.86667 km/h
1311 23-02-2014 20:00:00 6.3 C 6.25 g/m*3 6.3 C 4.53333 km/h
1312 23-02-2014 21:00:00 5.4 C 6.04 g/m*3 5.4 C 4.66667 km/h
1313 23-02-2014 22:00:00 4.675 C 5.87 g/m*3 4.68 C 4.26667 km/h
1314 23-02-2014 23:00:00 3.8 C 5.68 g/m*3 3.8 C 3.2 km/h
1315 24-02-2014 00:00:00 3.28333 C 5.58 g/m*3 3.28 C 3.33333 km/h
1316 24-02-2014 01:00:00 2.84167 C 5.47 g/m*3 2.84 C 4.13333 km/h
1317 24-02-2014 02:00:00 2.05833 C 5.21 g/m*3 2.06 C 0.26667 km/h
1318 24-02-2014 03:00:00 1.29167 C 4.99 g/m*3 1.29 C 0 km/h
1319 24-02-2014 04:00:00 0.61667 C 4.8 g/m*3 0.62 C 0 km/h
1320 24-02-2014 05:00:00 0.15833 C 4.69 g/m*3 0.16 C 0 km/h
1321 24-02-2014 06:00:00 -0.29167 C 4.56 g/m*3 -0.29 C 0.8 km/h
1322 24-02-2014 07:00:00 -0.55833 C 4.47 g/m*3 -0.56 C 0.4 km/h
1323 24-02-2014 08:00:00 0.64167 C 4.91 g/m*3 0.64 C 4.00833 km/h
1324 24-02-2014 09:00:00 4.45833 C 5.66 g/m*3 2.55 C 7.79167 km/h
1325 24-02-2014 10:00:00 6.31667 C 5.82 g/m*3 4.87 C 7.25833 km/h
Sensor: Nr:Datum:Temp:Abs-Feuchte:Windchill:Wind:
Aussen-T/F 1326 24-02-2014 11:00:00 7.65 C 6.17 g/m*3 6.84 C 5.75833 km/h
1327 24-02-2014 12:00:00 10.65833 C 6.33 g/m*3 10.22 C 6.03333 km/h
1328 24-02-2014 13:00:00 12.98333 C 6.4 g/m*3 12.98 C 7.78333 km/h
1329 24-02-2014 14:00:00 13.59167 C 6.36 g/m*3 13.59 C 7.38333 km/h
1330 24-02-2014 15:00:00 13.99167 C 6.4 g/m*3 13.99 C 9.11667 km/h
1331 24-02-2014 16:00:00 13.34167 C 6.38 g/m*3 13.34 C 5.46667 km/h
1332 24-02-2014 17:00:00 11.69167 C 6.39 g/m*3 11.69 C 4.81667 km/h
1333 24-02-2014 18:00:00 7.9 C 6.39 g/m*3 7.9 C 4.66667 km/h
1334 24-02-2014 19:00:00 6.80833 C 6.27 g/m*3 5.76 C 6.15 km/h
1335 24-02-2014 20:00:00 6.30833 C 6.21 g/m*3 5.49 C 5.2 km/h
1336 24-02-2014 21:00:00 5.775 C 6.06 g/m*3 5.78 C 3.46667 km/h
1337 24-02-2014 22:00:00 4.89167 C 5.93 g/m*3 4.89 C 0.53333 km/h
1338 24-02-2014 23:00:00 4.325 C 5.75 g/m*3 4.33 C 0.53333 km/h
1339 25-02-2014 00:00:00 3.79167 C 5.64 g/m*3 3.79 C 1.06667 km/h
1340 25-02-2014 01:00:00 3.24167 C 5.52 g/m*3 3.24 C 0 km/h
1341 25-02-2014 02:00:00 2.725 C 5.4 g/m*3 2.73 C 0.4 km/h
1342 25-02-2014 03:00:00 2.175 C 5.26 g/m*3 2.17 C 0.13333 km/h
1343 25-02-2014 04:00:00 1.75 C 5.16 g/m*3 1.75 C 0 km/h
1344 25-02-2014 05:00:00 1.55833 C 5.12 g/m*3 1.56 C 0 km/h
1345 25-02-2014 06:00:00 1.26667 C 5.03 g/m*3 1.27 C 0 km/h
1346 25-02-2014 07:00:00 1.5 C 5.16 g/m*3 1.5 C 0.4 km/h
1347 25-02-2014 08:00:00 1.96667 C 5.32 g/m*3 1.97 C 0.4 km/h
1348 25-02-2014 09:00:00 3.30833 C 5.85 g/m*3 3.31 C 0.93333 km/h
1349 25-02-2014 10:00:00 7.58333 C 6.79 g/m*3 7.58 C 3.34167 km/h
1350 25-02-2014 11:00:00 10.35 C 6.55 g/m*3 9.83 C 6.15833 km/h
Sensor: Nr:Datum:Temp:Abs-Feuchte:Windchill:Wind:
Aussen-T/F 1351 25-02-2014 12:00:00 11.55833 C 6.71 g/m*3 11.56 C 7.49167 km/h
1352 25-02-2014 13:00:00 10.98333 C 6.78 g/m*3 10.98 C 4 km/h
1353 25-02-2014 14:00:00 11.525 C 6.85 g/m*3 11.53 C 5.75833 km/h
1354 25-02-2014 15:00:00 11.575 C 6.89 g/m*3 11.58 C 7.38333 km/h
1355 25-02-2014 16:00:00 12 C 6.96 g/m*3 12 C 7.79167 km/h
1356 25-02-2014 17:00:00 11.475 C 6.94 g/m*3 11.48 C 6.025 km/h
1357 25-02-2014 18:00:00 9.71667 C 6.78 g/m*3 9.72 C 3.46667 km/h
1358 25-02-2014 19:00:00 8.45833 C 6.69 g/m*3 8.46 C 2.93333 km/h
1359 25-02-2014 20:00:00 8.25833 C 6.81 g/m*3 8.26 C 1.73333 km/h
1360 25-02-2014 21:00:00 7.98333 C 6.76 g/m*3 7.98 C 3.06667 km/h
1361 25-02-2014 22:00:00 7.86667 C 6.77 g/m*3 7.87 C 3.2 km/h
1362 25-02-2014 23:00:00 7.86667 C 6.91 g/m*3 7.87 C 3.46667 km/h
1363 26-02-2014 00:00:00 7.35 C 6.79 g/m*3 7.35 C 4 km/h
1364 26-02-2014 01:00:00 7.55833 C 6.91 g/m*3 7.56 C 2.66667 km/h
1365 26-02-2014 02:00:00 8.13333 C 7.07 g/m*3 8.13 C 2.4 km/h
1366 26-02-2014 03:00:00 7.71667 C 6.97 g/m*3 7.72 C 3.6 km/h
1367 26-02-2014 04:00:00 7.9 C 7.03 g/m*3 7.9 C 2.8 km/h
1368 26-02-2014 05:00:00 8.50833 C 7.03 g/m*3 7.9 C 5.5 km/h
1369 26-02-2014 06:00:00 8.125 C 7.02 g/m*3 8.13 C 4.14167 km/h
1370 26-02-2014 07:00:00 6.85 C 6.72 g/m*3 6.85 C 1.33333 km/h
1371 26-02-2014 08:00:00 7.39167 C 6.95 g/m*3 7.39 C 2.54167 km/h
1372 26-02-2014 09:00:00 7.41667 C 6.93 g/m*3 7.42 C 1.2 km/h
1373 26-02-2014 10:00:00 8.55 C 7.2 g/m*3 7.35 C 7.8 km/h
1374 26-02-2014 11:00:00 9.675 C 7.06 g/m*3 8.4 C 9.14167 km/h
1375 26-02-2014 12:00:00 10.25833 C 7.12 g/m*3 9.38 C 7.64167 km/h
Sensor: Nr:Datum:Temp:Abs-Feuchte:Windchill:Wind:
Aussen-T/F 1376 26-02-2014 13:00:00 10.83333 C 7.03 g/m*3 10.2 C 6.975 km/h
1377 26-02-2014 14:00:00 11.28333 C 7.01 g/m*3 11.28 C 7.79167 km/h
1378 26-02-2014 15:00:00 10.71667 C 6.92 g/m*3 10.29 C 6.03333 km/h
1379 26-02-2014 16:00:00 10.40833 C 7 g/m*3 10.41 C 2.8 km/h
1380 26-02-2014 17:00:00 9.825 C 7.17 g/m*3 9.82 C 0.66667 km/h
1381 26-02-2014 18:00:00 8.73333 C 7.1 g/m*3 8.73 C 3.33333 km/h
1382 26-02-2014 19:00:00 8.09167 C 6.98 g/m*3 8.09 C 3.33333 km/h
1383 26-02-2014 20:00:00 7.50909 C 6.89 g/m*3 7.51 C 1.30909 km/h
1384 26-02-2014 22:00:00 7.49167 C 6.84 g/m*3 7.49 C 1.86667 km/h
1385 26-02-2014 23:00:00 6.96667 C 6.7 g/m*3 6.97 C 2 km/h
1386 27-02-2014 00:00:00 5.95 C 6.46 g/m*3 5.95 C 2.4 km/h
1387 27-02-2014 01:00:00 5 C 6.19 g/m*3 5 C 1.33333 km/h
1388 27-02-2014 02:00:00 4.03333 C 5.92 g/m*3 4.03 C 0.8 km/h
1389 27-02-2014 03:00:00 3.25833 C 5.68 g/m*3 3.26 C 0.13333 km/h
1390 27-02-2014 04:00:00 2.65833 C 5.51 g/m*3 2.66 C 1.2 km/h
1391 27-02-2014 05:00:00 1.91667 C 5.25 g/m*3 1.92 C 0.93333 km/h
1392 27-02-2014 06:00:00 1.575 C 5.18 g/m*3 1.58 C 0.93333 km/h
1393 27-02-2014 07:00:00 1.31667 C 5.09 g/m*3 1.32 C 1.20833 km/h
1394 27-02-2014 08:00:00 1.1 C 5.02 g/m*3 1.1 C 0 km/h
1395 27-02-2014 09:00:00 1.6 C 5.25 g/m*3 1.6 C 1.06667 km/h
1396 27-02-2014 11:00:00 7.525 C 6.85 g/m*3 6.23 C 7.45 km/h
1397 27-02-2014 12:00:00 9.85 C 6.43 g/m*3 8.29 C 11.00833 km/h
1398 27-02-2014 13:00:00 9.825 C 6.24 g/m*3 8.15 C 11.69167 km/h
1399 27-02-2014 14:00:00 10.04167 C 6.26 g/m*3 8.94 C 8.6 km/h
1400 27-02-2014 15:00:00 10.6 C 6.09 g/m*3 9.43 C 9.54167 km/h
Sensor: Nr:Datum:Temp:Abs-Feuchte:Windchill:Wind:
Aussen-T/F 1401 27-02-2014 16:00:00 9.875 C 5.69 g/m*3 9.18 C 6.575 km/h
1402 27-02-2014 17:00:00 9.3 C 5.84 g/m*3 9.3 C 4.54167 km/h
1403 27-02-2014 18:00:00 7.76667 C 6.24 g/m*3 6.31 C 8.325 km/h
1404 27-02-2014 19:00:00 6.35833 C 6.35 g/m*3 6.36 C 4.29167 km/h
1405 27-02-2014 20:00:00 5.475 C 6.4 g/m*3 5.48 C 1.46667 km/h
1406 27-02-2014 21:00:00 4.96667 C 6.41 g/m*3 4.97 C 0.8 km/h
1407 27-02-2014 22:00:00 4.625 C 6.28 g/m*3 4.63 C 1.6 km/h
1408 27-02-2014 23:00:00 4.40833 C 6.08 g/m*3 4.41 C 3.86667 km/h
1409 28-02-2014 00:00:00 4.48333 C 6.1 g/m*3 2.99 C 6.43333 km/h
1410 28-02-2014 01:00:00 4.775 C 6.2 g/m*3 3.5 C 5.88333 km/h
1411 28-02-2014 02:00:00 4.85 C 6.09 g/m*3 2.71 C 9.00833 km/h
1412 28-02-2014 03:00:00 4.1 C 5.88 g/m*3 2.42 C 6.825 km/h
1413 28-02-2014 04:00:00 3.91667 C 5.93 g/m*3 3.92 C 3.73333 km/h
1414 28-02-2014 05:00:00 3.58333 C 5.88 g/m*3 3.58 C 1.6 km/h
1415 28-02-2014 06:00:00 3.86667 C 6.03 g/m*3 3.87 C 1.06667 km/h
1416 28-02-2014 07:00:00 4.125 C 6.14 g/m*3 4.13 C 0.66667 km/h
1417 28-02-2014 08:00:00 4.69167 C 6.28 g/m*3 4.69 C 1.2 km/h
1418 28-02-2014 09:00:00 5.68333 C 6.42 g/m*3 5.68 C 3.06667 km/h
1419 28-02-2014 10:00:00 6.75833 C 6.61 g/m*3 6.76 C 3.73333 km/h
1420 28-02-2014 11:00:00 7.78333 C 6.73 g/m*3 6.55 C 7.38333 km/h
1421 28-02-2014 12:00:00 7.99167 C 6.78 g/m*3 7.15 C 6.03333 km/h
1422 28-02-2014 13:00:00 8.48333 C 6.86 g/m*3 7.43 C 7.10833 km/h
1423 28-02-2014 14:00:00 9.43333 C 6.71 g/m*3 8.51 C 7.23333 km/h
1424 28-02-2014 15:00:00 9.225 C 6.55 g/m*3 9.23 C 4 km/h
1425 28-02-2014 16:00:00 9.3 C 6.53 g/m*3 8.86 C 5.33333 km/h
Sensor: Nr:Datum:Temp:Abs-Feuchte:Windchill:Wind:
Aussen-T/F 1426 28-02-2014 17:00:00 9.07273 C 6.65 g/m*3 9.07 C 4.66364 km/h
1427 28-02-2014 18:00:00 8.1 C 6.74 g/m*3 8.1 C 1.86667 km/h
1428 28-02-2014 19:00:00 7.00833 C 6.61 g/m*3 7.01 C 3.33333 km/h
1429 28-02-2014 20:00:00 6.63333 C 6.66 g/m*3 6.63 C 3.6 km/h
1430 28-02-2014 21:00:00 6.89167 C 6.84 g/m*3 6.89 C 0.8 km/h
1431 28-02-2014 22:00:00 6.3 C 6.88 g/m*3 6.3 C 3.08333 km/h
1432 28-02-2014 23:00:00 5.65 C 6.7 g/m*3 5.65 C 1.86667 km/h
1433 01-03-2014 00:00:00 5.29167 C 6.63 g/m*3 5.29 C 1.06667 km/h
1434 01-03-2014 01:00:00 4.825 C 6.45 g/m*3 4.83 C 0.4 km/h
1435 01-03-2014 02:00:00 4.85 C 6.49 g/m*3 4.85 C 0.66667 km/h
1436 01-03-2014 03:00:00 4.19167 C 6.18 g/m*3 4.19 C 1.6 km/h
1437 01-03-2014 04:00:00 3.675 C 5.97 g/m*3 3.68 C 2.66667 km/h
1438 01-03-2014 05:00:00 2.64167 C 5.57 g/m*3 2.64 C 0.66667 km/h
1439 01-03-2014 06:00:00 2.56667 C 5.58 g/m*3 2.57 C 0 km/h
1440 01-03-2014 07:00:00 2.75 C 5.67 g/m*3 2.75 C 0.26667 km/h
1441 01-03-2014 08:00:00 3.13333 C 5.82 g/m*3 3.13 C 0.13333 km/h
1442 01-03-2014 09:00:00 3.8 C 6.09 g/m*3 3.8 C 0.26667 km/h
1443 01-03-2014 10:00:00 5.41667 C 6.63 g/m*3 5.42 C 1.86667 km/h
1444 01-03-2014 11:00:00 7.21667 C 6.65 g/m*3 7.22 C 2.93333 km/h
1445 01-03-2014 12:00:00 8.25 C 6.78 g/m*3 7.58 C 5.60833 km/h
1446 01-03-2014 13:00:00 8.975 C 6.65 g/m*3 8.01 C 7.10833 km/h
1447 01-03-2014 14:00:00 9.29167 C 6.27 g/m*3 8.76 C 5.625 km/h
1448 01-03-2014 15:00:00 9.40833 C 6.17 g/m*3 9.02 C 5.21667 km/h
1449 01-03-2014 16:00:00 9.05833 C 6.1 g/m*3 9.06 C 4.01667 km/h
1450 01-03-2014 17:00:00 7.95833 C 6.28 g/m*3 6.69 C 7.66667 km/h
Sensor: Nr:Datum:Temp:Abs-Feuchte:Windchill:Wind:
Aussen-T/F 1451 01-03-2014 18:00:00 6.96667 C 6.46 g/m*3 6.97 C 0.66667 km/h
1452 01-03-2014 19:00:00 6.15833 C 6.47 g/m*3 6.16 C 0.53333 km/h
1453 01-03-2014 20:00:00 5.2 C 6.16 g/m*3 5.2 C 1.86667 km/h
1454 01-03-2014 21:00:00 3.575 C 5.66 g/m*3 3.58 C 1.46667 km/h
1455 01-03-2014 22:00:00 2.85833 C 5.51 g/m*3 2.86 C 1.86667 km/h
1456 01-03-2014 23:00:00 2.59167 C 5.42 g/m*3 2.59 C 0.8 km/h
1457 02-03-2014 00:00:00 1.825 C 5.19 g/m*3 1.83 C 0.26667 km/h
1458 02-03-2014 01:00:00 1.50833 C 5.12 g/m*3 1.51 C 0.93333 km/h
1459 02-03-2014 02:00:00 1.425 C 5.11 g/m*3 1.43 C 0.53333 km/h
1460 02-03-2014 03:00:00 1.95833 C 5.32 g/m*3 1.96 C 0.26667 km/h
1461 02-03-2014 04:00:00 1.69167 C 5.2 g/m*3 1.69 C 0.93333 km/h
1462 02-03-2014 05:00:00 0.86667 C 4.93 g/m*3 0.87 C 0.13333 km/h
1463 02-03-2014 06:00:00 0.375 C 4.77 g/m*3 0.38 C 0 km/h
1464 02-03-2014 07:00:00 0.28333 C 4.76 g/m*3 0.28 C 0.93333 km/h
1465 02-03-2014 08:00:00 0.55833 C 4.88 g/m*3 0.56 C 1.6 km/h
1466 02-03-2014 09:00:00 1.23333 C 5.12 g/m*3 1.23 C 0.66667 km/h
1467 02-03-2014 10:00:00 2.81667 C 5.75 g/m*3 2.82 C 2.13333 km/h
1468 02-03-2014 11:00:00 4.40833 C 6.16 g/m*3 3.22 C 5.5 km/h
1469 02-03-2014 12:00:00 6.25833 C 5.79 g/m*3 3.63 C 12.9 km/h
1470 02-03-2014 13:00:00 7.16667 C 5.68 g/m*3 5.36 C 9.41667 km/h
1471 02-03-2014 14:00:00 8.03333 C 5.69 g/m*3 6.56 C 8.61667 km/h
1472 02-03-2014 15:00:00 8.98333 C 5.78 g/m*3 8.15 C 6.56667 km/h
1473 02-03-2014 16:00:00 9.10833 C 5.7 g/m*3 8.63 C 5.35 km/h
1474 02-03-2014 17:00:00 7.90833 C 5.86 g/m*3 7.91 C 2.93333 km/h
1475 02-03-2014 18:00:00 4.98333 C 5.68 g/m*3 4.98 C 4.93333 km/h
Sensor: Nr:Datum:Temp:Abs-Feuchte:Windchill:Wind:
Aussen-T/F 1476 02-03-2014 19:00:00 3.58333 C 5.31 g/m*3 2.34 C 5.33333 km/h
1477 02-03-2014 20:00:00 2.98333 C 5.2 g/m*3 2.98 C 4.4 km/h
1478 02-03-2014 21:00:00 2.65833 C 5.16 g/m*3 2.66 C 4.13333 km/h
1479 02-03-2014 22:00:00 2.525 C 5.22 g/m*3 2.53 C 3.33333 km/h
1480 02-03-2014 23:00:00 2.075 C 5.14 g/m*3 2.08 C 3.33333 km/h
1481 03-03-2014 00:00:00 2.16667 C 5.17 g/m*3 2.17 C 3.33333 km/h
1482 03-03-2014 01:00:00 2.80833 C 5.33 g/m*3 2.81 C 3.6 km/h
1483 03-03-2014 02:00:00 3.41667 C 5.43 g/m*3 3.42 C 4.28333 km/h
1484 03-03-2014 03:00:00 3.14167 C 5.37 g/m*3 3.14 C 3.06667 km/h
1485 03-03-2014 04:00:00 3.325 C 5.53 g/m*3 2.1 C 5.20833 km/h
1486 03-03-2014 05:00:00 4.04167 C 5.64 g/m*3 2.47 C 6.44167 km/h
1487 03-03-2014 06:00:00 3.95833 C 5.61 g/m*3 2.81 C 5.21667 km/h
1488 03-03-2014 07:00:00 4.325 C 5.61 g/m*3 2.06 C 9.125 km/h
1489 03-03-2014 08:00:00 4.80833 C 5.69 g/m*3 4.81 C 3.875 km/h
1490 03-03-2014 09:00:00 5.39167 C 5.86 g/m*3 5.39 C 3.6 km/h
1491 03-03-2014 10:00:00 5.99167 C 6.19 g/m*3 5.03 C 5.48333 km/h
1492 03-03-2014 11:00:00 7.06667 C 6.47 g/m*3 6.17 C 5.75833 km/h
1493 03-03-2014 12:00:00 7.35833 C 6.54 g/m*3 7.36 C 4.54167 km/h
1494 03-03-2014 13:00:00 7.79167 C 6.93 g/m*3 7.79 C 4.80833 km/h
1495 03-03-2014 14:00:00 7.98333 C 7.21 g/m*3 7.98 C 3.2 km/h
1496 03-03-2014 15:00:00 8.86667 C 7.03 g/m*3 8.39 C 5.23333 km/h
1497 03-03-2014 16:00:00 9.29167 C 6.64 g/m*3 9.29 C 3.34167 km/h
1498 03-03-2014 17:00:00 8.425 C 6.88 g/m*3 8.43 C 2.4 km/h
1499 03-03-2014 18:00:00 6.74167 C 6.55 g/m*3 6.74 C 3.86667 km/h
1500 03-03-2014 19:00:00 5.175 C 6.09 g/m*3 5.18 C 4.26667 km/h
Sensor: Nr:Datum:Temp:Abs-Feuchte:Windchill:Wind:
Aussen-T/F 1501 03-03-2014 20:00:00 4.325 C 5.85 g/m*3 4.33 C 4.66667 km/h
1502 03-03-2014 21:00:00 4.09167 C 5.73 g/m*3 4.09 C 4 km/h
1503 03-03-2014 22:00:00 3.575 C 5.6 g/m*3 3.58 C 4.66667 km/h
1504 03-03-2014 23:00:00 2.59167 C 5.34 g/m*3 2.59 C 1.33333 km/h
1505 04-03-2014 00:00:00 1.725 C 5.11 g/m*3 1.73 C 0.26667 km/h
1506 04-03-2014 01:00:00 0.95833 C 4.87 g/m*3 0.96 C 0 km/h
1507 04-03-2014 02:00:00 0.41667 C 4.74 g/m*3 0.42 C 0 km/h
1508 04-03-2014 03:00:00 0.21667 C 4.71 g/m*3 0.22 C 0.4 km/h
1509 04-03-2014 04:00:00 -0.175 C 4.6 g/m*3 -0.18 C 0.26667 km/h
1510 04-03-2014 05:00:00 -0.66667 C 4.44 g/m*3 -0.67 C 0 km/h
1511 04-03-2014 06:00:00 -0.80833 C 4.41 g/m*3 -0.81 C 0.53333 km/h
1512 04-03-2014 07:00:00 -0.88333 C 4.41 g/m*3 -0.88 C 0.26667 km/h
1513 04-03-2014 08:00:00 -0.85833 C 4.43 g/m*3 -0.86 C 0.93333 km/h
1514 04-03-2014 09:00:00 -0.61667 C 4.5 g/m*3 -0.62 C 1.6 km/h
1515 04-03-2014 10:00:00 0.375 C 4.83 g/m*3 0.38 C 0.13333 km/h
1516 04-03-2014 11:00:00 1.85833 C 5.38 g/m*3 1.86 C 0.8 km/h
1517 04-03-2014 12:00:00 5.63333 C 6.64 g/m*3 5.63 C 1.46667 km/h
1518 04-03-2014 13:00:00 9.93333 C 6.99 g/m*3 9.93 C 1.86667 km/h
1519 04-03-2014 14:00:00 11.40833 C 6.43 g/m*3 11.41 C 4.55 km/h
1520 04-03-2014 15:00:00 12.14167 C 5.9 g/m*3 12.14 C 4.81667 km/h
1521 04-03-2014 16:00:00 9.85833 C 6.67 g/m*3 9.86 C 2.8 km/h
1522 04-03-2014 17:00:00 8.95833 C 6.8 g/m*3 8.96 C 2.93333 km/h
1523 04-03-2014 18:00:00 7.35 C 6.39 g/m*3 7.35 C 4.4 km/h
1524 04-03-2014 19:00:00 7.55833 C 6.43 g/m*3 7.56 C 4.66667 km/h
1525 04-03-2014 20:00:00 8.05 C 6.5 g/m*3 8.05 C 3.73333 km/h
Sensor: Nr:Datum:Temp:Abs-Feuchte:Windchill:Wind:
Aussen-T/F 1526 04-03-2014 21:00:00 7.09167 C 6.41 g/m*3 7.09 C 2.66667 km/h
1527 04-03-2014 22:00:00 6.20833 C 6.29 g/m*3 6.21 C 2.8 km/h
1528 04-03-2014 23:00:00 5.475 C 6.08 g/m*3 5.48 C 0.66667 km/h
1529 05-03-2014 00:00:00 4.74167 C 5.88 g/m*3 4.74 C 1.33333 km/h
1530 05-03-2014 01:00:00 3.51667 C 5.57 g/m*3 3.52 C 0.26667 km/h
1531 05-03-2014 02:00:00 2.51667 C 5.35 g/m*3 2.52 C 0.53333 km/h
1532 05-03-2014 03:00:00 2.01667 C 5.22 g/m*3 2.02 C 1.33333 km/h
1533 05-03-2014 04:00:00 1.76667 C 5.16 g/m*3 1.77 C 1.86667 km/h
1534 05-03-2014 05:00:00 1.9 C 5.18 g/m*3 1.9 C 2.26667 km/h
1535 05-03-2014 06:00:00 1.5 C 5.08 g/m*3 1.5 C 0.66667 km/h
1536 05-03-2014 07:00:00 2.19167 C 5.28 g/m*3 2.19 C 4.41667 km/h
1537 05-03-2014 08:00:00 2.23333 C 5.22 g/m*3 2.23 C 4.275 km/h
1538 05-03-2014 09:00:00 2.85833 C 5.48 g/m*3 2.86 C 1.33333 km/h
1539 05-03-2014 10:00:00 4.92 C 6.12 g/m*3 4.92 C 3.06 km/h
1540 05-03-2014 11:00:00 8.6 C 6.79 g/m*3 7.75 C 6.4 km/h
1541 05-03-2014 12:00:00 9.30833 C 6.71 g/m*3 8.4 C 7.10833 km/h
1542 05-03-2014 13:00:00 10.66667 C 7.06 g/m*3 9.48 C 9.7 km/h
1543 05-03-2014 14:00:00 10.1 C 6.34 g/m*3 8.8 C 9.7 km/h
1544 05-03-2014 15:00:00 10.51667 C 6.38 g/m*3 8.83 C 12.76667 km/h
1545 05-03-2014 16:00:00 9.89167 C 6.35 g/m*3 9.2 C 6.575 km/h
1546 05-03-2014 17:00:00 9.56667 C 6.2 g/m*3 8.7 C 7.10833 km/h
1547 05-03-2014 18:00:00 7.45 C 6.06 g/m*3 7.45 C 3.46667 km/h
1548 05-03-2014 19:00:00 5.46667 C 6.02 g/m*3 4.54 C 5.2 km/h
1549 05-03-2014 20:00:00 4.875 C 5.96 g/m*3 4.88 C 4.8 km/h
1550 05-03-2014 21:00:00 3.75833 C 5.71 g/m*3 3.76 C 1.33333 km/h
Sensor: Nr:Datum:Temp:Abs-Feuchte:Windchill:Wind:
Aussen-T/F 1551 05-03-2014 22:00:00 2.925 C 5.51 g/m*3 2.93 C 0.4 km/h
1552 05-03-2014 23:00:00 2.175 C 5.3 g/m*3 2.17 C 0 km/h
1553 06-03-2014 00:00:00 1.71667 C 5.17 g/m*3 1.72 C 0.26667 km/h
1554 06-03-2014 01:00:00 1.25833 C 5.02 g/m*3 1.26 C 0 km/h
1555 06-03-2014 02:00:00 0.675 C 4.85 g/m*3 0.68 C 0.13333 km/h
1556 06-03-2014 03:00:00 0.16667 C 4.71 g/m*3 0.17 C 0.13333 km/h
1557 06-03-2014 04:00:00 -0.2 C 4.59 g/m*3 -0.2 C 0 km/h
1558 06-03-2014 05:00:00 -0.61667 C 4.46 g/m*3 -0.62 C 0 km/h
1559 06-03-2014 06:00:00 -0.24167 C 4.62 g/m*3 -0.24 C 1.6 km/h
1560 06-03-2014 07:00:00 -0.10833 C 4.66 g/m*3 -0.11 C 1.06667 km/h
1561 06-03-2014 08:00:00 0.29167 C 4.8 g/m*3 0.29 C 1.06667 km/h
1562 06-03-2014 09:00:00 0.75833 C 4.95 g/m*3 0.76 C 1.46667 km/h
1563 06-03-2014 10:00:00 1.475 C 5.22 g/m*3 1.48 C 1.86667 km/h
1564 06-03-2014 11:00:00 2.41667 C 5.6 g/m*3 2.42 C 2.4 km/h
1565 06-03-2014 12:00:00 4.25 C 6.34 g/m*3 4.25 C 2.26667 km/h
1566 06-03-2014 13:00:00 7.75 C 7.28 g/m*3 7.75 C 4.26667 km/h
1567 06-03-2014 14:00:00 10.26667 C 7.44 g/m*3 10.27 C 4.54167 km/h
1568 06-03-2014 15:00:00 12.58333 C 7.3 g/m*3 12.58 C 6.41667 km/h
1569 06-03-2014 16:00:00 12.3 C 6.9 g/m*3 12.3 C 5.75833 km/h
1570 06-03-2014 17:00:00 10.175 C 7.01 g/m*3 10.18 C 4.80833 km/h
1571 06-03-2014 18:00:00 7.48333 C 6.47 g/m*3 6.5 C 6.26667 km/h
1572 06-03-2014 19:00:00 6.275 C 6.26 g/m*3 5.32 C 5.6 km/h
1573 06-03-2014 20:00:00 5.275 C 5.97 g/m*3 5.28 C 4.66667 km/h
1574 06-03-2014 21:00:00 4.05833 C 5.65 g/m*3 4.06 C 1.46667 km/h
1575 06-03-2014 22:00:00 3.10833 C 5.35 g/m*3 3.11 C 0.13333 km/h
Sensor: Nr:Datum:Temp:Abs-Feuchte:Windchill:Wind:
Aussen-T/F 1576 06-03-2014 23:00:00 1.99167 C 5.07 g/m*3 1.99 C 0 km/h
1577 07-03-2014 00:00:00 1.275 C 4.93 g/m*3 1.27 C 0 km/h
1578 07-03-2014 01:00:00 0.80833 C 4.82 g/m*3 0.81 C 0 km/h
1579 07-03-2014 02:00:00 0.20833 C 4.67 g/m*3 0.21 C 0 km/h
1580 07-03-2014 03:00:00 -0.15 C 4.56 g/m*3 -0.15 C 0 km/h
1581 07-03-2014 04:00:00 -0.36 C 4.52 g/m*3 -0.36 C 0 km/h
1582 07-03-2014 07:00:00 -0.9 C 4.42 g/m*3 -0.9 C 1.6 km/h
1583 07-03-2014 08:00:00 -0.78333 C 4.45 g/m*3 -0.78 C 0.53333 km/h
1584 07-03-2014 09:00:00 -0.15 C 4.65 g/m*3 -0.15 C 0.8 km/h
1585 07-03-2014 10:00:00 0.99 C 5.04 g/m*3 0.99 C 0.8 km/h
1586 07-03-2014 13:00:00 12.16667 C 7.53 g/m*3 12.17 C 3.73333 km/h
1587 07-03-2014 14:00:00 13.80833 C 7.17 g/m*3 13.81 C 4.275 km/h
1588 07-03-2014 15:00:00 15.15833 C 5.97 g/m*3 15.16 C 7.79167 km/h
1589 07-03-2014 16:00:00 13.975 C 6.67 g/m*3 13.98 C 5.225 km/h
1590 07-03-2014 17:00:00 11.40833 C 7.15 g/m*3 11.41 C 4.26667 km/h
1591 07-03-2014 18:00:00 10.03333 C 6.91 g/m*3 10.03 C 4.93333 km/h
1592 07-03-2014 19:00:00 9.18889 C 6.76 g/m*3 9.19 C 3.91111 km/h
1593 07-03-2014 20:00:00 8.30833 C 6.56 g/m*3 8.31 C 4.14167 km/h
1594 07-03-2014 21:00:00 7.76667 C 6.51 g/m*3 6.86 C 6.15833 km/h
1595 07-03-2014 22:00:00 7.33333 C 6.46 g/m*3 7.33 C 3.6 km/h
1596 07-03-2014 23:00:00 5.49167 C 6.08 g/m*3 5.49 C 0.53333 km/h
1597 08-03-2014 00:00:00 4.8 C 5.9 g/m*3 4.8 C 0.53333 km/h
1598 08-03-2014 01:00:00 4.40833 C 5.86 g/m*3 4.41 C 1.6 km/h
1599 08-03-2014 02:00:00 4.35 C 5.85 g/m*3 4.35 C 0.53333 km/h
1600 08-03-2014 03:00:00 3.625 C 5.62 g/m*3 3.63 C 0 km/h
Sensor: Nr:Datum:Temp:Abs-Feuchte:Windchill:Wind:
Aussen-T/F 1601 08-03-2014 04:00:00 3.00833 C 5.49 g/m*3 3.01 C 0.66667 km/h
1602 08-03-2014 05:00:00 2.3 C 5.31 g/m*3 2.3 C 0.26667 km/h
1603 08-03-2014 06:00:00 1.93333 C 5.21 g/m*3 1.93 C 0.26667 km/h
1604 08-03-2014 07:00:00 1.70833 C 5.18 g/m*3 1.71 C 0.4 km/h
1605 08-03-2014 08:00:00 1.89167 C 5.25 g/m*3 1.89 C 0.66667 km/h
1606 08-03-2014 09:00:00 3.09167 C 5.72 g/m*3 3.09 C 0 km/h
1607 08-03-2014 10:00:00 5.45455 C 6.56 g/m*3 5.45 C 0.43636 km/h
1608 08-03-2014 11:00:00 9.66667 C 7.68 g/m*3 9.67 C 2.13333 km/h
1609 08-03-2014 12:00:00 13.74167 C 7.68 g/m*3 13.74 C 7.65833 km/h
1610 08-03-2014 13:00:00 15.45833 C 7.1 g/m*3 15.46 C 8.31667 km/h
1611 08-03-2014 14:00:00 15.8 C 6.92 g/m*3 15.8 C 8.46667 km/h
1612 08-03-2014 15:00:00 16.18333 C 6.88 g/m*3 16.18 C 8.46667 km/h
1613 08-03-2014 16:00:00 15.40833 C 6.68 g/m*3 15.41 C 6.84167 km/h
1614 08-03-2014 17:00:00 14.025 C 7.02 g/m*3 14.03 C 6.56667 km/h
1615 08-03-2014 18:00:00 10.25833 C 6.89 g/m*3 9.76 C 6.01667 km/h
1616 08-03-2014 19:00:00 8.58333 C 6.67 g/m*3 7.88 C 5.875 km/h
1617 08-03-2014 20:00:00 7.18333 C 6.5 g/m*3 7.18 C 3.46667 km/h
1618 08-03-2014 21:00:00 6.10833 C 6.24 g/m*3 6.11 C 0.66667 km/h
1619 08-03-2014 22:00:00 5.11667 C 5.96 g/m*3 5.12 C 0 km/h
1620 08-03-2014 23:00:00 4.10833 C 5.67 g/m*3 4.11 C 0.13333 km/h
1621 09-03-2014 00:00:00 3.24167 C 5.46 g/m*3 3.24 C 0 km/h
1622 09-03-2014 01:00:00 2.65 C 5.34 g/m*3 2.65 C 0 km/h
1623 09-03-2014 02:00:00 2.03333 C 5.2 g/m*3 2.03 C 0 km/h
1624 09-03-2014 03:00:00 1.66667 C 5.11 g/m*3 1.67 C 0 km/h
1625 09-03-2014 04:00:00 1.23333 C 4.99 g/m*3 1.23 C 0 km/h
Sensor: Nr:Datum:Temp:Abs-Feuchte:Windchill:Wind:
Aussen-T/F 1626 09-03-2014 05:00:00 0.90833 C 4.9 g/m*3 0.91 C 0 km/h
1627 09-03-2014 06:00:00 0.29167 C 4.7 g/m*3 0.29 C 0 km/h
1628 09-03-2014 07:00:00 0.1 C 4.68 g/m*3 0.1 C 0 km/h
1629 09-03-2014 08:00:00 0.175 C 4.71 g/m*3 0.18 C 0.13333 km/h
1630 09-03-2014 09:00:00 0.95833 C 5.01 g/m*3 0.96 C 0.13333 km/h
1631 09-03-2014 10:00:00 3.52222 C 5.93 g/m*3 3.52 C 0.71111 km/h
1632 09-03-2014 11:00:00 7.2 C 6.95 g/m*3 7.2 C 1.2 km/h
1633 09-03-2014 12:00:00 11.70833 C 7.68 g/m*3 11.71 C 3.2 km/h
1634 09-03-2014 13:00:00 16.89167 C 6.15 g/m*3 16.89 C 4.95833 km/h
1635 09-03-2014 14:00:00 19.19167 C 4.97 g/m*3 19.19 C 6.01667 km/h
1636 09-03-2014 15:00:00 20.125 C 4.8 g/m*3 20.13 C 5.61667 km/h
1637 09-03-2014 16:00:00 17.30833 C 6.28 g/m*3 17.31 C 4.14167 km/h
1638 09-03-2014 17:00:00 15.1 C 6.78 g/m*3 15.1 C 5.2 km/h
1639 09-03-2014 18:00:00 12.59167 C 6.53 g/m*3 12.59 C 6.26667 km/h
1640 09-03-2014 19:00:00 10.4 C 6.51 g/m*3 10.15 C 5.2 km/h
1641 09-03-2014 20:00:00 8.61667 C 6.47 g/m*3 8.62 C 2.66667 km/h
1642 09-03-2014 21:00:00 7.29167 C 6.09 g/m*3 7.29 C 0.26667 km/h
1643 09-03-2014 22:00:00 5.89167 C 5.77 g/m*3 5.89 C 0 km/h
1644 09-03-2014 23:00:00 4.50833 C 5.54 g/m*3 4.51 C 0 km/h
1645 10-03-2014 00:00:00 3.70833 C 5.36 g/m*3 3.71 C 0 km/h
1646 10-03-2014 01:00:00 2.775 C 5.21 g/m*3 2.78 C 0 km/h
1647 10-03-2014 02:00:00 2.18333 C 5.09 g/m*3 2.18 C 0 km/h
1648 10-03-2014 03:00:00 1.775 C 5.02 g/m*3 1.78 C 0 km/h
1649 10-03-2014 04:00:00 1.34167 C 4.91 g/m*3 1.34 C 0.13333 km/h
1650 10-03-2014 05:00:00 1.18333 C 4.89 g/m*3 1.18 C 0.13333 km/h
Sensor: Nr:Datum:Temp:Abs-Feuchte:Windchill:Wind:
Aussen-T/F 1651 10-03-2014 06:00:00 0.91667 C 4.84 g/m*3 0.92 C 0.26667 km/h
1652 10-03-2014 07:00:00 0.61667 C 4.77 g/m*3 0.62 C 0.13333 km/h
1653 10-03-2014 08:00:00 0.975 C 4.92 g/m*3 0.98 C 0.13333 km/h
1654 10-03-2014 09:00:00 2.44167 C 5.42 g/m*3 2.44 C 0.53333 km/h
1655 10-03-2014 10:00:00 5.16667 C 6.2 g/m*3 5.17 C 0.13333 km/h
1656 10-03-2014 11:00:00 8.03333 C 7 g/m*3 8.03 C 0.8 km/h
1657 10-03-2014 12:00:00 13.2 C 7.55 g/m*3 13.2 C 1.86667 km/h
1658 10-03-2014 13:00:00 16.99167 C 6.86 g/m*3 16.99 C 4.675 km/h
1659 10-03-2014 14:00:00 17.15 C 6.58 g/m*3 17.15 C 2.8 km/h
1660 10-03-2014 15:00:00 17.825 C 6.54 g/m*3 17.83 C 2.93333 km/h
1661 10-03-2014 16:00:00 16.18333 C 6.61 g/m*3 16.18 C 3.33333 km/h
1662 10-03-2014 17:00:00 14.55833 C 6.69 g/m*3 14.56 C 5.46667 km/h
1663 10-03-2014 18:00:00 12.39167 C 6.22 g/m*3 12.39 C 6.40833 km/h
1664 10-03-2014 19:00:00 10.46667 C 6.2 g/m*3 10.47 C 4.675 km/h
1665 10-03-2014 20:00:00 8.8 C 6.01 g/m*3 8.8 C 1.06667 km/h
1666 10-03-2014 21:00:00 7.61667 C 5.76 g/m*3 7.62 C 0.8 km/h
1667 10-03-2014 22:00:00 6.65 C 5.67 g/m*3 6.65 C 0.66667 km/h
1668 10-03-2014 23:00:00 5.71667 C 5.55 g/m*3 5.72 C 0.53333 km/h
1669 11-03-2014 00:00:00 4.74167 C 5.56 g/m*3 4.74 C 0 km/h
1670 11-03-2014 01:00:00 3.96667 C 5.42 g/m*3 3.97 C 0.26667 km/h
1671 11-03-2014 02:00:00 3.65 C 5.43 g/m*3 3.65 C 0.4 km/h
1672 11-03-2014 03:00:00 3.40833 C 5.43 g/m*3 3.41 C 0.53333 km/h
1673 11-03-2014 04:00:00 3.125 C 5.37 g/m*3 3.13 C 0 km/h
1674 11-03-2014 05:00:00 3.06667 C 5.35 g/m*3 3.07 C 0.8 km/h
1675 11-03-2014 06:00:00 2.34167 C 5.2 g/m*3 2.34 C 0 km/h
Sensor: Nr:Datum:Temp:Abs-Feuchte:Windchill:Wind:
Aussen-T/F 1676 11-03-2014 07:00:00 2.30833 C 5.25 g/m*3 2.31 C 0 km/h
1677 11-03-2014 08:00:00 2.8 C 5.47 g/m*3 2.8 C 0.66667 km/h
1678 11-03-2014 09:00:00 5.525 C 6.44 g/m*3 5.53 C 2.66667 km/h
1679 11-03-2014 10:00:00 7.4 C 6.94 g/m*3 7.4 C 2.26667 km/h
1680 11-03-2014 11:00:00 9.625 C 7.32 g/m*3 9.63 C 2.53333 km/h
1681 11-03-2014 12:00:00 12.76667 C 7.92 g/m*3 12.77 C 3.46667 km/h
1682 11-03-2014 13:00:00 15.29167 C 7.97 g/m*3 15.29 C 3.33333 km/h
1683 11-03-2014 14:00:00 16.30833 C 7.78 g/m*3 16.31 C 4.54167 km/h
1684 11-03-2014 15:00:00 17.9 C 7.67 g/m*3 17.9 C 5.35 km/h
1685 11-03-2014 16:00:00 17.075 C 8.02 g/m*3 17.08 C 7.1 km/h
1686 11-03-2014 17:00:00 14.95 C 8.26 g/m*3 14.95 C 3.73333 km/h
1687 11-03-2014 18:00:00 12.04167 C 8.03 g/m*3 12.04 C 5.06667 km/h
1688 11-03-2014 19:00:00 10.5 C 7.77 g/m*3 10.26 C 5.2 km/h
1689 11-03-2014 20:00:00 9.00833 C 7.07 g/m*3 9.01 C 2.66667 km/h
1690 11-03-2014 21:00:00 8.39167 C 6.71 g/m*3 8.39 C 2.26667 km/h
1691 11-03-2014 22:00:00 7.75 C 6.5 g/m*3 7.75 C 2.66667 km/h
1692 11-03-2014 23:00:00 8.1 C 6.27 g/m*3 8.1 C 4.675 km/h
1693 12-03-2014 00:00:00 7.35833 C 6.18 g/m*3 6.74 C 5.06667 km/h
1694 12-03-2014 01:00:00 6.80833 C 6.22 g/m*3 5.97 C 5.46667 km/h
1695 12-03-2014 02:00:00 6.33333 C 6.26 g/m*3 5.34 C 5.75 km/h
1696 12-03-2014 03:00:00 5.60833 C 6.16 g/m*3 4.75 C 5.06667 km/h
1697 12-03-2014 04:00:00 4.55833 C 5.92 g/m*3 4.56 C 1.46667 km/h
1698 12-03-2014 05:00:00 3.775 C 5.74 g/m*3 3.78 C 0.4 km/h
1699 12-03-2014 06:00:00 2.975 C 5.54 g/m*3 2.98 C 0.13333 km/h
1700 12-03-2014 07:00:00 2.66667 C 5.5 g/m*3 2.67 C 0 km/h
Sensor: Nr:Datum:Temp:Abs-Feuchte:Windchill:Wind:
Aussen-T/F 1701 12-03-2014 08:00:00 3 C 5.66 g/m*3 3 C 0.26667 km/h
1702 12-03-2014 09:00:00 4.30833 C 6.25 g/m*3 4.31 C 0 km/h
1703 12-03-2014 10:00:00 7.23333 C 7.3 g/m*3 7.23 C 0.13333 km/h
1704 12-03-2014 11:00:00 10.46667 C 7.41 g/m*3 10.47 C 2.93333 km/h
1705 12-03-2014 12:00:00 14.89167 C 7.54 g/m*3 14.89 C 4.275 km/h
1706 12-03-2014 13:00:00 17.175 C 6.9 g/m*3 17.18 C 5.34167 km/h
1707 12-03-2014 14:00:00 17.64167 C 6.54 g/m*3 17.64 C 6.15 km/h
1708 12-03-2014 15:00:00 18.89167 C 6.09 g/m*3 18.89 C 6.55833 km/h
1709 12-03-2014 16:00:00 17.50833 C 6.22 g/m*3 17.51 C 3.60833 km/h
1710 12-03-2014 17:00:00 15.11667 C 6.8 g/m*3 15.12 C 4.8 km/h
1711 12-03-2014 18:00:00 12.40833 C 6.46 g/m*3 12.41 C 7.10833 km/h
1712 12-03-2014 19:00:00 10.525 C 6.47 g/m*3 10.04 C 6.15833 km/h
1713 12-03-2014 20:00:00 9.08333 C 6.35 g/m*3 9.08 C 3.73333 km/h
1714 12-03-2014 21:00:00 7.7 C 6.2 g/m*3 7.7 C 0.93333 km/h
1715 12-03-2014 22:00:00 6.33333 C 5.94 g/m*3 6.33 C 0.13333 km/h
1716 12-03-2014 23:00:00 5.50833 C 5.82 g/m*3 5.51 C 0 km/h
1717 13-03-2014 00:00:00 4.44167 C 5.64 g/m*3 4.44 C 0 km/h
1718 13-03-2014 01:00:00 4.11667 C 5.6 g/m*3 4.12 C 0.53333 km/h
1719 13-03-2014 02:00:00 3.56667 C 5.46 g/m*3 3.57 C 0.26667 km/h
1720 13-03-2014 03:00:00 3 C 5.33 g/m*3 3 C 0.4 km/h
1721 13-03-2014 04:00:00 2.325 C 5.16 g/m*3 2.33 C 0.13333 km/h
1722 13-03-2014 05:00:00 1.74167 C 5.04 g/m*3 1.74 C 0.13333 km/h
1723 13-03-2014 06:00:00 1.28333 C 4.93 g/m*3 1.28 C 0.4 km/h
1724 13-03-2014 07:00:00 1.05 C 4.9 g/m*3 1.05 C 0.4 km/h
1725 13-03-2014 08:00:00 1.64167 C 5.13 g/m*3 1.64 C 0 km/h
Sensor: Nr:Datum:Temp:Abs-Feuchte:Windchill:Wind:
Aussen-T/F 1726 13-03-2014 09:00:00 3.00833 C 5.56 g/m*3 3.01 C 0 km/h
1727 13-03-2014 10:00:00 5.69167 C 6.33 g/m*3 5.69 C 0 km/h
1728 13-03-2014 11:00:00 8.54167 C 7.02 g/m*3 8.54 C 0.53333 km/h
1729 13-03-2014 12:00:00 13.825 C 7.66 g/m*3 13.83 C 3.46667 km/h
1730 13-03-2014 13:00:00 17.35 C 7.46 g/m*3 17.35 C 2.66667 km/h
1731 13-03-2014 14:00:00 17.55 C 6.62 g/m*3 17.55 C 2.4 km/h
1732 13-03-2014 15:00:00 18.63333 C 6.35 g/m*3 18.63 C 5.50833 km/h
1733 13-03-2014 16:00:00 18.66667 C 5.55 g/m*3 18.67 C 6.83333 km/h
1734 13-03-2014 17:00:00 17.79167 C 5.3 g/m*3 17.79 C 7.39167 km/h
1735 13-03-2014 18:00:00 12.93333 C 6.15 g/m*3 12.93 C 5.225 km/h
1736 13-03-2014 19:00:00 10.64167 C 5.9 g/m*3 10.24 C 5.88333 km/h
1737 13-03-2014 20:00:00 8.79167 C 5.93 g/m*3 8.79 C 1.73333 km/h
1738 13-03-2014 21:00:00 7.44167 C 5.79 g/m*3 7.44 C 0.53333 km/h
1739 13-03-2014 22:00:00 6.16667 C 5.67 g/m*3 6.17 C 0 km/h
1740 13-03-2014 23:00:00 5.64167 C 5.58 g/m*3 5.64 C 0.26667 km/h
1741 14-03-2014 00:00:00 5.01667 C 5.49 g/m*3 5.02 C 0.66667 km/h
1742 14-03-2014 01:00:00 4.25833 C 5.39 g/m*3 4.26 C 0.4 km/h
1743 14-03-2014 02:00:00 3.49167 C 5.23 g/m*3 3.49 C 0.53333 km/h
1744 14-03-2014 03:00:00 2.64167 C 5.12 g/m*3 2.64 C 0.93333 km/h
1745 14-03-2014 04:00:00 2.00833 C 4.99 g/m*3 2.01 C 0 km/h
1746 14-03-2014 05:00:00 1.65833 C 4.96 g/m*3 1.66 C 0.93333 km/h
1747 14-03-2014 06:00:00 1.25833 C 4.85 g/m*3 1.26 C 1.06667 km/h
1748 14-03-2014 07:00:00 1.05833 C 4.84 g/m*3 1.06 C 0.4 km/h
1749 14-03-2014 08:00:00 1.475 C 5.03 g/m*3 1.48 C 0.26667 km/h
1750 14-03-2014 09:00:00 3.04167 C 5.54 g/m*3 3.04 C 0 km/h
Sensor: Nr:Datum:Temp:Abs-Feuchte:Windchill:Wind:
Aussen-T/F 1751 14-03-2014 10:00:00 6.05 C 6.26 g/m*3 6.05 C 0 km/h
1752 14-03-2014 11:00:00 9.03333 C 6.86 g/m*3 9.03 C 2 km/h
1753 14-03-2014 12:00:00 13.40833 C 7.69 g/m*3 13.41 C 2.8 km/h
1754 14-03-2014 13:00:00 15.81667 C 7.42 g/m*3 15.82 C 3.6 km/h
1755 14-03-2014 14:00:00 16.28333 C 6.78 g/m*3 16.28 C 4.26667 km/h
1756 14-03-2014 15:00:00 17.44167 C 6.61 g/m*3 17.44 C 3.2 km/h
1757 14-03-2014 16:00:00 17.06667 C 6.44 g/m*3 17.07 C 4 km/h
1758 14-03-2014 17:00:00 14.5 C 7.55 g/m*3 14.5 C 2.26667 km/h
1759 14-03-2014 18:00:00 12.15833 C 7.32 g/m*3 12.16 C 5.2 km/h
1760 14-03-2014 19:00:00 10.28333 C 7.12 g/m*3 10.28 C 4.13333 km/h
1761 14-03-2014 20:00:00 9.50833 C 7.16 g/m*3 9.51 C 3.60833 km/h
1762 14-03-2014 21:00:00 8.33333 C 6.93 g/m*3 8.33 C 1.86667 km/h
1763 14-03-2014 22:00:00 7 C 6.65 g/m*3 7 C 1.46667 km/h
1764 14-03-2014 23:00:00 7.275 C 6.56 g/m*3 7.28 C 3.73333 km/h
1765 15-03-2014 00:00:00 6.80833 C 6.38 g/m*3 5.92 C 5.61667 km/h
1766 15-03-2014 01:00:00 7.175 C 6.39 g/m*3 6.06 C 6.56667 km/h
1767 15-03-2014 02:00:00 7.23333 C 6.34 g/m*3 6.2 C 6.3 km/h
1768 15-03-2014 03:00:00 7.175 C 6.22 g/m*3 6.22 C 6.01667 km/h
1769 15-03-2014 04:00:00 7.675 C 6.28 g/m*3 7.04 C 5.21667 km/h
1770 15-03-2014 05:00:00 8.48333 C 6.57 g/m*3 7.88 C 5.5 km/h
1771 15-03-2014 06:00:00 9.2 C 7.03 g/m*3 8.33 C 6.84167 km/h
1772 15-03-2014 07:00:00 9.58333 C 7.16 g/m*3 7.99 C 10.875 km/h
1773 15-03-2014 08:00:00 9.21667 C 7.44 g/m*3 7.05 C 14.225 km/h
1774 15-03-2014 09:00:00 8.375 C 7.68 g/m*3 6.65 C 10.20833 km/h
1775 15-03-2014 10:00:00 8.525 C 7.65 g/m*3 6.53 C 11.95833 km/h
Sensor: Nr:Datum:Temp:Abs-Feuchte:Windchill:Wind:
Aussen-T/F 1776 15-03-2014 11:00:00 7.975 C 7.39 g/m*3 6.33 C 9.39167 km/h
1777 15-03-2014 12:00:00 8.51667 C 7.39 g/m*3 6.97 C 9.41667 km/h
1778 15-03-2014 13:00:00 9.88333 C 7.14 g/m*3 8.01 C 13.16667 km/h
1779 15-03-2014 14:00:00 10.36667 C 6.52 g/m*3 8.24 C 16.1 km/h
1780 15-03-2014 15:00:00 10.8 C 6.13 g/m*3 9.04 C 13.83333 km/h
1781 15-03-2014 16:00:00 10.65833 C 5.96 g/m*3 9.23 C 11.16667 km/h
1782 15-03-2014 17:00:00 10.46667 C 6.14 g/m*3 9.29 C 9.41667 km/h
1783 15-03-2014 18:00:00 10.1 C 6.4 g/m*3 9.51 C 6.28333 km/h
1784 15-03-2014 19:00:00 9.54167 C 6.79 g/m*3 8.97 C 5.89167 km/h
1785 15-03-2014 20:00:00 9.51667 C 6.87 g/m*3 8.37 C 8.33333 km/h
1786 15-03-2014 21:00:00 9.44167 C 6.92 g/m*3 7.77 C 11.15833 km/h
1787 15-03-2014 22:00:00 9.30833 C 6.97 g/m*3 7.91 C 9.43333 km/h
1788 15-03-2014 23:00:00 9.33333 C 6.98 g/m*3 8.02 C 9.00833 km/h
1789 16-03-2014 00:00:00 9.58333 C 7.02 g/m*3 7.7 C 12.76667 km/h
1790 16-03-2014 01:00:00 9.83333 C 7.11 g/m*3 7.82 C 14.1 km/h
1791 16-03-2014 02:00:00 9.70833 C 7.27 g/m*3 7.95 C 12.09167 km/h
1792 16-03-2014 03:00:00 9.875 C 7.36 g/m*3 8.23 C 11.55833 km/h
1793 16-03-2014 04:00:00 10.10833 C 7.51 g/m*3 8.77 C 9.95833 km/h
1794 16-03-2014 05:00:00 10.475 C 7.66 g/m*3 8.71 C 13.3 km/h
1795 16-03-2014 06:00:00 10.33333 C 7.72 g/m*3 8.78 C 11.56667 km/h
1796 16-03-2014 07:00:00 10.68333 C 7.85 g/m*3 9.22 C 11.43333 km/h
1797 16-03-2014 08:00:00 10.66667 C 7.84 g/m*3 9.15 C 11.83333 km/h
1798 16-03-2014 09:00:00 11 C 7.94 g/m*3 9.27 C 13.96667 km/h
1799 16-03-2014 10:00:00 11.38333 C 8.02 g/m*3 11.38 C 16.36667 km/h
1800 16-03-2014 11:00:00 12.95833 C 8.43 g/m*3 12.96 C 15.16667 km/h
Sensor: Nr:Datum:Temp:Abs-Feuchte:Windchill:Wind:
Aussen-T/F 1801 16-03-2014 12:00:00 14.74167 C 8.81 g/m*3 14.74 C 12.1 km/h
1802 16-03-2014 13:00:00 15.04167 C 8.92 g/m*3 15.04 C 9.925 km/h
1803 16-03-2014 14:00:00 15.125 C 8.8 g/m*3 15.13 C 13.56667 km/h
1804 16-03-2014 15:00:00 15.5 C 8.8 g/m*3 15.5 C 17.03333 km/h
1805 16-03-2014 16:00:00 14.69167 C 8.59 g/m*3 14.69 C 16.375 km/h
1806 16-03-2014 17:00:00 14.725 C 8.7 g/m*3 14.73 C 12.23333 km/h
1807 16-03-2014 18:00:00 13.125 C 8.37 g/m*3 13.13 C 4.4 km/h
1808 16-03-2014 19:00:00 10.25 C 7.92 g/m*3 10.25 C 3.86667 km/h
1809 16-03-2014 20:00:00 9.55 C 7.83 g/m*3 9.55 C 3.73333 km/h
1810 16-03-2014 21:00:00 9.40833 C 7.76 g/m*3 9.41 C 3.2 km/h
1811 16-03-2014 22:00:00 9.55833 C 7.72 g/m*3 9.56 C 4.68333 km/h
1812 16-03-2014 23:00:00 7.79167 C 7.24 g/m*3 7.79 C 1.73333 km/h
1813 17-03-2014 00:00:00 7.09167 C 7.09 g/m*3 7.09 C 0.93333 km/h
1814 17-03-2014 01:00:00 7.13333 C 7.13 g/m*3 6.43 C 5.21667 km/h
1815 17-03-2014 02:00:00 7.08333 C 7.13 g/m*3 5.63 C 7.8 km/h
1816 17-03-2014 03:00:00 7.475 C 7.28 g/m*3 6.02 C 8.075 km/h
1817 17-03-2014 04:00:00 7.90833 C 7.39 g/m*3 6.66 C 7.525 km/h
1818 17-03-2014 05:00:00 8.23333 C 7.47 g/m*3 6.8 C 8.61667 km/h
1819 17-03-2014 06:00:00 8.31667 C 7.51 g/m*3 6.9 C 8.59167 km/h
1820 17-03-2014 07:00:00 8.73333 C 7.63 g/m*3 7.45 C 8.34167 km/h
1821 17-03-2014 08:00:00 9.225 C 7.78 g/m*3 8 C 8.48333 km/h
1822 17-03-2014 09:00:00 10 C 7.98 g/m*3 8.99 C 8.06667 km/h
1823 17-03-2014 10:00:00 11.125 C 8.17 g/m*3 11.13 C 9.29167 km/h
1824 17-03-2014 11:00:00 11.9 C 8.26 g/m*3 11.9 C 11.56667 km/h
1825 17-03-2014 12:00:00 12.66667 C 8.37 g/m*3 12.67 C 8.75 km/h
Sensor: Nr:Datum:Temp:Abs-Feuchte:Windchill:Wind:
Aussen-T/F 1826 17-03-2014 13:00:00 13.05 C 8.53 g/m*3 13.05 C 7.25 km/h
1827 17-03-2014 14:00:00 13.84167 C 8.46 g/m*3 13.84 C 9.68333 km/h
1828 17-03-2014 15:00:00 13.725 C 8.18 g/m*3 13.73 C 11.7 km/h
1829 17-03-2014 16:00:00 13.13333 C 7.92 g/m*3 13.13 C 8.05833 km/h
1830 17-03-2014 17:00:00 12.875 C 7.83 g/m*3 12.88 C 6.28333 km/h
1831 17-03-2014 18:00:00 12.28333 C 7.77 g/m*3 12.28 C 5.49167 km/h
1832 17-03-2014 19:00:00 11.225 C 7.7 g/m*3 11.23 C 1.06667 km/h
1833 17-03-2014 20:00:00 10.34167 C 7.68 g/m*3 10.34 C 1.73333 km/h
1834 17-03-2014 21:00:00 9.85833 C 7.71 g/m*3 9.86 C 1.33333 km/h
1835 17-03-2014 22:00:00 9.75833 C 7.7 g/m*3 9.76 C 2.4 km/h
1836 17-03-2014 23:00:00 9.70833 C 7.66 g/m*3 9.71 C 2.26667 km/h
1837 18-03-2014 00:00:00 8.375 C 7.31 g/m*3 8.38 C 0.93333 km/h
1838 18-03-2014 01:00:00 8.3 C 7.44 g/m*3 8.3 C 0.93333 km/h
1839 18-03-2014 02:00:00 8.69167 C 7.51 g/m*3 8.69 C 1.2 km/h
1840 18-03-2014 03:00:00 8.54167 C 7.44 g/m*3 8.54 C 2.26667 km/h
1841 18-03-2014 04:00:00 7.73333 C 7.22 g/m*3 7.73 C 1.2 km/h
1842 18-03-2014 05:00:00 7.53333 C 7.18 g/m*3 7.53 C 1.73333 km/h
1843 18-03-2014 06:00:00 7.65833 C 7.28 g/m*3 7.66 C 3.46667 km/h
1844 18-03-2014 07:00:00 7.98333 C 7.47 g/m*3 7.18 C 5.9 km/h
1845 18-03-2014 08:00:00 8.51667 C 7.62 g/m*3 7.65 C 6.43333 km/h
1846 18-03-2014 09:00:00 8.58333 C 7.69 g/m*3 7.48 C 7.39167 km/h
1847 18-03-2014 10:00:00 8.70833 C 7.62 g/m*3 6.61 C 12.9 km/h
1848 18-03-2014 11:00:00 8.56667 C 7.75 g/m*3 7.47 C 7.375 km/h
1849 18-03-2014 12:00:00 9.04167 C 7.92 g/m*3 7.6 C 9.40833 km/h
1850 18-03-2014 13:00:00 9.45833 C 7.89 g/m*3 8.7 C 6.56667 km/h
Sensor: Nr:Datum:Temp:Abs-Feuchte:Windchill:Wind:
Aussen-T/F 1851 18-03-2014 14:00:00 10.425 C 8 g/m*3 9.44 C 8.31667 km/h
1852 18-03-2014 15:00:00 11.24167 C 8.05 g/m*3 11.24 C 10.63333 km/h
1853 18-03-2014 16:00:00 11.38333 C 7.84 g/m*3 11.38 C 12.1 km/h
1854 18-03-2014 17:00:00 11.44167 C 7.79 g/m*3 11.44 C 6.95833 km/h
1855 18-03-2014 18:00:00 11.38333 C 7.73 g/m*3 11.38 C 11.425 km/h
1856 18-03-2014 19:00:00 11.26667 C 7.41 g/m*3 11.27 C 11.56667 km/h
1857 18-03-2014 20:00:00 10.84167 C 7.05 g/m*3 8.76 C 16.76667 km/h
1858 18-03-2014 21:00:00 10.44167 C 6.88 g/m*3 8.15 C 17.83333 km/h
1859 18-03-2014 22:00:00 9.775 C 7.07 g/m*3 8.01 C 12.23333 km/h
1860 18-03-2014 23:00:00 9.86667 C 7.17 g/m*3 7.95 C 13.43333 km/h
1861 19-03-2014 00:00:00 9.80833 C 7.38 g/m*3 7.99 C 12.625 km/h
1862 19-03-2014 01:00:00 9.75833 C 7.56 g/m*3 7.97 C 12.35833 km/h
1863 19-03-2014 02:00:00 9.63333 C 7.68 g/m*3 8.09 C 10.6 km/h
1864 19-03-2014 03:00:00 9.925 C 7.56 g/m*3 8.15 C 12.5 km/h
1865 19-03-2014 04:00:00 9.9 C 7.52 g/m*3 8.52 C 9.94167 km/h
1866 19-03-2014 05:00:00 9.975 C 7.48 g/m*3 8.29 C 11.96667 km/h
1867 19-03-2014 06:00:00 9.84167 C 7.49 g/m*3 8.57 C 9.26667 km/h
1868 19-03-2014 07:00:00 9.925 C 7.48 g/m*3 9.14 C 6.975 km/h
1869 19-03-2014 08:00:00 10.26667 C 7.57 g/m*3 8.81 C 10.88333 km/h
1870 19-03-2014 09:00:00 10.875 C 7.64 g/m*3 9.68 C 9.95833 km/h
1871 19-03-2014 10:00:00 11.88333 C 7.71 g/m*3 11.88 C 15.16667 km/h
1872 19-03-2014 11:00:00 13.14167 C 7.43 g/m*3 13.14 C 15.03333 km/h
1873 19-03-2014 12:00:00 14.28333 C 7.51 g/m*3 14.28 C 16.76667 km/h
1874 19-03-2014 13:00:00 15.74167 C 7.71 g/m*3 15.74 C 16.76667 km/h
1875 19-03-2014 14:00:00 15.84167 C 7.75 g/m*3 15.84 C 18.23333 km/h
Sensor: Nr:Datum:Temp:Abs-Feuchte:Windchill:Wind:
Aussen-T/F 1876 19-03-2014 15:00:00 16.575 C 7.62 g/m*3 16.58 C 16.23333 km/h
1877 19-03-2014 16:00:00 16.54167 C 7.53 g/m*3 16.54 C 13.56667 km/h
1878 19-03-2014 17:00:00 15.88333 C 7.76 g/m*3 15.88 C 13.3 km/h
1879 19-03-2014 18:00:00 14.56667 C 7.85 g/m*3 14.57 C 9.53333 km/h
1880 19-03-2014 19:00:00 13.35833 C 7.69 g/m*3 13.36 C 8.86667 km/h
1881 19-03-2014 20:00:00 12.35833 C 7.54 g/m*3 12.36 C 8.74167 km/h
1882 19-03-2014 21:00:00 12.08333 C 7.45 g/m*3 12.08 C 9.96667 km/h
1883 19-03-2014 22:00:00 11.675 C 7.39 g/m*3 11.68 C 11.425 km/h
1884 19-03-2014 23:00:00 11.05833 C 7.36 g/m*3 11.06 C 8.59167 km/h
1885 20-03-2014 00:00:00 10.21667 C 7.26 g/m*3 9.42 C 7.25 km/h
1886 20-03-2014 01:00:00 9.23333 C 7.14 g/m*3 8.82 C 5.21667 km/h
1887 20-03-2014 02:00:00 8.69167 C 7.04 g/m*3 7.96 C 6.025 km/h
1888 20-03-2014 03:00:00 7.71667 C 6.81 g/m*3 7.72 C 2.4 km/h
1889 20-03-2014 04:00:00 6.36667 C 6.59 g/m*3 6.37 C 1.46667 km/h
1890 20-03-2014 05:00:00 5.48333 C 6.34 g/m*3 5.48 C 1.2 km/h
1891 20-03-2014 06:00:00 4.775 C 6.18 g/m*3 4.78 C 0.53333 km/h
1892 20-03-2014 07:00:00 4.56667 C 6.19 g/m*3 4.57 C 0 km/h
1893 20-03-2014 08:00:00 5.225 C 6.49 g/m*3 5.23 C 0.53333 km/h
1894 20-03-2014 09:00:00 6.96667 C 7.15 g/m*3 6.97 C 1.86667 km/h
1895 20-03-2014 10:00:00 10.275 C 7.74 g/m*3 10.28 C 3.33333 km/h
1896 20-03-2014 11:00:00 14.79167 C 7.69 g/m*3 14.79 C 5.20833 km/h
1897 20-03-2014 12:00:00 18.85833 C 6.57 g/m*3 18.86 C 10.20833 km/h
1898 20-03-2014 13:00:00 19.83333 C 6.47 g/m*3 19.83 C 7.78333 km/h
1899 20-03-2014 14:00:00 20.29167 C 6.72 g/m*3 20.29 C 9 km/h
1900 20-03-2014 15:00:00 20.98333 C 6.91 g/m*3 20.98 C 5.61667 km/h
Sensor: Nr:Datum:Temp:Abs-Feuchte:Windchill:Wind:
Aussen-T/F 1901 20-03-2014 16:00:00 21.96667 C 6.57 g/m*3 21.97 C 8.60833 km/h
1902 20-03-2014 17:00:00 21.78889 C 6.2 g/m*3 21.79 C 7.52222 km/h
1903 20-03-2014 18:00:00 17.44167 C 6.97 g/m*3 17.44 C 4.93333 km/h
1904 20-03-2014 19:00:00 14.35 C 7.18 g/m*3 14.35 C 5.86667 km/h
1905 20-03-2014 20:00:00 13.8 C 7.37 g/m*3 13.8 C 5.06667 km/h
1906 20-03-2014 21:00:00 13.53333 C 7.54 g/m*3 13.53 C 3.86667 km/h
1907 20-03-2014 22:00:00 12.79167 C 7.61 g/m*3 12.79 C 4.26667 km/h
1908 20-03-2014 23:00:00 12.21667 C 7.68 g/m*3 12.22 C 2.8 km/h
1909 21-03-2014 00:00:00 11.66667 C 7.72 g/m*3 11.67 C 2.93333 km/h
1910 21-03-2014 01:00:00 10.79167 C 7.64 g/m*3 10.79 C 1.2 km/h
1911 21-03-2014 02:00:00 9.78333 C 7.45 g/m*3 9.78 C 2.8 km/h
1912 21-03-2014 03:00:00 12.85 C 7.95 g/m*3 12.85 C 10.85833 km/h
1913 21-03-2014 04:00:00 15.675 C 8.06 g/m*3 15.68 C 15.7 km/h
1914 21-03-2014 05:00:00 15.5 C 8.02 g/m*3 15.5 C 17.43333 km/h
1915 21-03-2014 06:00:00 15.31667 C 7.82 g/m*3 15.32 C 21.73333 km/h
1916 21-03-2014 07:00:00 15.3 C 7.94 g/m*3 15.3 C 23.46667 km/h
1917 21-03-2014 08:00:00 15.45 C 7.78 g/m*3 15.45 C 22.78333 km/h
1918 21-03-2014 09:00:00 15.725 C 7.49 g/m*3 15.73 C 25.075 km/h
1919 21-03-2014 10:00:00 16.00833 C 7.27 g/m*3 16.01 C 20.78333 km/h
1920 21-03-2014 11:00:00 16.88333 C 7.05 g/m*3 16.88 C 21.44167 km/h
1921 21-03-2014 12:00:00 16.70833 C 7.71 g/m*3 16.71 C 21.43333 km/h
1922 21-03-2014 13:00:00 15.81667 C 7.87 g/m*3 15.82 C 19.975 km/h
1923 21-03-2014 14:00:00 14.88333 C 8.24 g/m*3 14.88 C 19.03333 km/h
1924 21-03-2014 15:00:00 14.375 C 8.34 g/m*3 14.38 C 17.43333 km/h
1925 21-03-2014 16:00:00 13.78333 C 7.28 g/m*3 13.78 C 16.10833 km/h
Sensor: Nr:Datum:Temp:Abs-Feuchte:Windchill:Wind:
Aussen-T/F 1926 21-03-2014 17:00:00 12.08333 C 7.34 g/m*3 12.08 C 9 km/h
1927 21-03-2014 18:00:00 11.125 C 7.05 g/m*3 11.13 C 6.15833 km/h
1928 21-03-2014 19:00:00 9.93333 C 6.88 g/m*3 9.93 C 0.66667 km/h
1929 21-03-2014 20:00:00 9.19167 C 6.79 g/m*3 9.19 C 1.86667 km/h
1930 21-03-2014 21:00:00 8.91667 C 6.76 g/m*3 8.92 C 2.4 km/h
1931 21-03-2014 22:00:00 8.78333 C 6.95 g/m*3 8.78 C 0.93333 km/h
1932 21-03-2014 23:00:00 8.75 C 7.26 g/m*3 8.75 C 0.53333 km/h
1933 22-03-2014 00:00:00 8.575 C 7.34 g/m*3 8.57 C 1.33333 km/h
1934 22-03-2014 01:00:00 7.83333 C 7.29 g/m*3 7.83 C 1.2 km/h
1935 22-03-2014 02:00:00 7.76667 C 7.26 g/m*3 7.77 C 2.4 km/h
1936 22-03-2014 03:00:00 7.45 C 7.26 g/m*3 7.45 C 1.86667 km/h
1937 22-03-2014 04:00:00 8.21667 C 7.57 g/m*3 8.22 C 0.13333 km/h
1938 22-03-2014 05:00:00 8.3 C 7.55 g/m*3 8.3 C 0 km/h
1939 22-03-2014 06:00:00 8.45 C 7.78 g/m*3 8.45 C 1.6 km/h
1940 22-03-2014 07:00:00 8.475 C 7.86 g/m*3 8.48 C 1.6 km/h
1941 22-03-2014 08:00:00 9.74167 C 7.6 g/m*3 9.03 C 6.575 km/h
1942 22-03-2014 09:00:00 10.5 C 7.06 g/m*3 8.8 C 12.89167 km/h
1943 22-03-2014 10:00:00 11.01667 C 6.81 g/m*3 11.02 C 13.03333 km/h
1944 22-03-2014 11:00:00 11.06667 C 6.75 g/m*3 11.07 C 9 km/h
1945 22-03-2014 12:00:00 12.41667 C 6.93 g/m*3 12.42 C 11.95 km/h
1946 22-03-2014 13:00:00 12.95833 C 6.64 g/m*3 12.96 C 11.95833 km/h
1947 22-03-2014 14:00:00 12.51667 C 6.77 g/m*3 12.52 C 7.79167 km/h
1948 22-03-2014 15:00:00 10.475 C 7.69 g/m*3 9.02 C 11.14167 km/h
1949 22-03-2014 16:00:00 11.01667 C 7.38 g/m*3 11.02 C 12.49167 km/h
1950 22-03-2014 17:00:00 7.75 C 6.93 g/m*3 5.73 C 11.14167 km/h
Sensor: Nr:Datum:Temp:Abs-Feuchte:Windchill:Wind:
Aussen-T/F 1951 22-03-2014 18:00:00 6.24167 C 6.76 g/m*3 6.24 C 2.8 km/h
1952 22-03-2014 19:00:00 5.675 C 6.72 g/m*3 5.68 C 3.06667 km/h
1953 22-03-2014 20:00:00 5.75 C 6.73 g/m*3 5.75 C 2.53333 km/h
1954 22-03-2014 21:00:00 5.51667 C 6.6 g/m*3 5.52 C 2 km/h
1955 22-03-2014 22:00:00 4.89167 C 6.4 g/m*3 4.89 C 3.2 km/h
1956 22-03-2014 23:00:00 5.05 C 6.44 g/m*3 5.05 C 3.86667 km/h
1957 23-03-2014 00:00:00 4.64167 C 6.28 g/m*3 4.64 C 3.46667 km/h
1958 23-03-2014 01:00:00 4.73333 C 6.36 g/m*3 4.73 C 1.6 km/h
1959 23-03-2014 02:00:00 4.66667 C 6.33 g/m*3 4.67 C 1.06667 km/h
1960 23-03-2014 03:00:00 4.26667 C 6.21 g/m*3 4.27 C 0.26667 km/h
1961 23-03-2014 04:00:00 5.00833 C 6.49 g/m*3 5.01 C 3.21667 km/h
1962 23-03-2014 05:00:00 5.10833 C 6.32 g/m*3 5.11 C 2.4 km/h
1963 23-03-2014 06:00:00 4.06667 C 5.94 g/m*3 4.07 C 1.33333 km/h
1964 23-03-2014 07:00:00 3.99167 C 6 g/m*3 3.99 C 1.86667 km/h
1965 23-03-2014 08:00:00 5.25833 C 6.12 g/m*3 3.49 C 7.8 km/h
1966 23-03-2014 09:00:00 5.925 C 5.87 g/m*3 3.38 C 11.95833 km/h
1967 23-03-2014 10:00:00 6.96667 C 5.83 g/m*3 4.51 C 12.75833 km/h
1968 23-03-2014 11:00:00 7.13333 C 5.64 g/m*3 4.59 C 13.56667 km/h
1969 23-03-2014 12:00:00 8.25 C 5.59 g/m*3 5.68 C 15.56667 km/h
1970 23-03-2014 13:00:00 8.69167 C 5.46 g/m*3 6.26 C 15.3 km/h
1971 23-03-2014 14:00:00 8.89167 C 5.5 g/m*3 6.6 C 14.63333 km/h
1972 23-03-2014 15:00:00 8.84167 C 5.43 g/m*3 6.79 C 12.76667 km/h
1973 23-03-2014 16:00:00 8.73333 C 5.59 g/m*3 6.66 C 12.76667 km/h
1974 23-03-2014 17:00:00 8.41667 C 5.68 g/m*3 6.73 C 10.075 km/h
1975 23-03-2014 18:00:00 8.09167 C 5.93 g/m*3 8.09 C 2.53333 km/h
Sensor: Nr:Datum:Temp:Abs-Feuchte:Windchill:Wind:
Aussen-T/F 1976 23-03-2014 19:00:00 6.48333 C 5.91 g/m*3 6.48 C 2.53333 km/h
1977 23-03-2014 20:00:00 5.75 C 5.81 g/m*3 5.75 C 1.2 km/h
1978 23-03-2014 21:00:00 4.71667 C 5.62 g/m*3 4.72 C 2.93333 km/h
1979 23-03-2014 22:00:00 3.44167 C 5.42 g/m*3 3.44 C 2.13333 km/h
1980 23-03-2014 23:00:00 2.76667 C 5.35 g/m*3 2.77 C 0.66667 km/h
1981 24-03-2014 00:00:00 3.24167 C 5.43 g/m*3 3.24 C 1.73333 km/h
1982 24-03-2014 01:00:00 3.38333 C 5.42 g/m*3 3.38 C 4.3 km/h
1983 24-03-2014 02:00:00 3.14167 C 5.38 g/m*3 3.14 C 1.74167 km/h
1984 24-03-2014 03:00:00 3.05 C 5.37 g/m*3 3.05 C 0.4 km/h
1985 24-03-2014 04:00:00 3.35 C 5.38 g/m*3 3.35 C 1.6 km/h
1986 24-03-2014 05:00:00 3.21667 C 5.34 g/m*3 3.22 C 0.53333 km/h
1987 24-03-2014 06:00:00 3.03333 C 5.34 g/m*3 3.03 C 0.8 km/h
1988 24-03-2014 07:00:00 3.3 C 5.39 g/m*3 3.3 C 3.86667 km/h
1989 24-03-2014 08:00:00 4.14167 C 5.65 g/m*3 2.73 C 6.01667 km/h
1990 24-03-2014 09:00:00 4.78333 C 5.68 g/m*3 3.61 C 5.60833 km/h
1991 24-03-2014 10:00:00 5.48333 C 5.83 g/m*3 5.48 C 3.86667 km/h
1992 24-03-2014 11:00:00 6.875 C 6 g/m*3 6.18 C 5.08333 km/h
1993 24-03-2014 12:00:00 8.4 C 5.89 g/m*3 7.37 C 6.96667 km/h
1994 24-03-2014 13:00:00 9.425 C 5.89 g/m*3 8.23 C 8.475 km/h
1995 24-03-2014 14:00:00 9.925 C 5.62 g/m*3 8.5 C 10.225 km/h
1996 24-03-2014 15:00:00 9.075 C 5.71 g/m*3 7.61 C 9.54167 km/h
1997 24-03-2014 16:00:00 9.35 C 5.75 g/m*3 8.61 C 6.43333 km/h
1998 24-03-2014 17:00:00 9.18333 C 5.78 g/m*3 9.18 C 3.74167 km/h
1999 24-03-2014 18:00:00 6.20833 C 5.79 g/m*3 6.21 C 4 km/h
2000 24-03-2014 19:00:00 6.275 C 5.85 g/m*3 6.28 C 1.6 km/h
Sensor: Nr:Datum:Temp:Abs-Feuchte:Windchill:Wind:
Aussen-T/F 2001 24-03-2014 20:00:00 6.18333 C 5.89 g/m*3 6.18 C 2.675 km/h
2002 24-03-2014 21:00:00 4.41667 C 5.47 g/m*3 4.42 C 2.93333 km/h
2003 24-03-2014 22:00:00 3.31667 C 5.31 g/m*3 3.32 C 1.06667 km/h
2004 24-03-2014 23:00:00 2.21667 C 5.09 g/m*3 2.22 C 0 km/h
2005 25-03-2014 00:00:00 1.66667 C 4.99 g/m*3 1.67 C 0.13333 km/h
2006 25-03-2014 01:00:00 1.05833 C 4.84 g/m*3 1.06 C 0.66667 km/h
2007 25-03-2014 02:00:00 0.75833 C 4.79 g/m*3 0.76 C 0.26667 km/h
2008 25-03-2014 03:00:00 0.29167 C 4.67 g/m*3 0.29 C 0.26667 km/h
2009 25-03-2014 04:00:00 0.58333 C 4.82 g/m*3 0.58 C 0.26667 km/h
2010 25-03-2014 05:00:00 0.28333 C 4.73 g/m*3 0.28 C 0.66667 km/h
2011 25-03-2014 06:00:00 0.34167 C 4.76 g/m*3 0.34 C 0.8 km/h
2012 25-03-2014 07:00:00 0.76667 C 4.9 g/m*3 0.77 C 1.33333 km/h
2013 25-03-2014 08:00:00 1.23333 C 5.06 g/m*3 1.23 C 2.93333 km/h
2014 25-03-2014 09:00:00 2.39167 C 5.45 g/m*3 2.39 C 3.2 km/h
2015 25-03-2014 10:00:00 3.94167 C 5.72 g/m*3 3.94 C 1.6 km/h
2016 25-03-2014 11:00:00 6.825 C 6.19 g/m*3 6.83 C 4.68333 km/h
2017 25-03-2014 12:00:00 8.68333 C 5.9 g/m*3 8.23 C 5.08333 km/h
2018 25-03-2014 13:00:00 8.88333 C 5.74 g/m*3 8.88 C 3.73333 km/h
2019 25-03-2014 14:00:00 8.525 C 5.27 g/m*3 7.23 C 8.2 km/h
2020 25-03-2014 15:00:00 9.2 C 5.34 g/m*3 8.37 C 6.7 km/h
2021 25-03-2014 16:00:00 10.4 C 5.48 g/m*3 9.34 C 8.71667 km/h
2022 25-03-2014 17:00:00 9.88333 C 5.69 g/m*3 8.74 C 8.625 km/h
2023 25-03-2014 18:00:00 7.91667 C 5.54 g/m*3 7.32 C 5.20833 km/h
2024 25-03-2014 19:00:00 5.34167 C 5.18 g/m*3 4.11 C 6.00833 km/h
2025 25-03-2014 20:00:00 3.99167 C 5.18 g/m*3 3.99 C 3.86667 km/h
Sensor: Nr:Datum:Temp:Abs-Feuchte:Windchill:Wind:
Aussen-T/F 2026 25-03-2014 21:00:00 3.05833 C 5.09 g/m*3 3.06 C 2 km/h
2027 25-03-2014 22:00:00 2.35833 C 5.01 g/m*3 2.36 C 1.06667 km/h
2028 25-03-2014 23:00:00 1.51667 C 4.81 g/m*3 1.52 C 0.53333 km/h
2029 26-03-2014 00:00:00 0.88333 C 4.68 g/m*3 0.88 C 0 km/h
2030 26-03-2014 01:00:00 0.36667 C 4.58 g/m*3 0.37 C 0 km/h
2031 26-03-2014 02:00:00 0.10833 C 4.56 g/m*3 0.11 C 0 km/h
2032 26-03-2014 03:00:00 0.30833 C 4.64 g/m*3 0.31 C 0.13333 km/h
2033 26-03-2014 04:00:00 -0.24167 C 4.48 g/m*3 -0.24 C 0.13333 km/h
2034 26-03-2014 05:00:00 -0.54167 C 4.4 g/m*3 -0.54 C 0.13333 km/h
2035 26-03-2014 06:00:00 -0.76667 C 4.36 g/m*3 -0.77 C 0 km/h
2036 26-03-2014 07:00:00 -0.725 C 4.38 g/m*3 -0.73 C 0.26667 km/h
2037 26-03-2014 08:00:00 -0.01667 C 4.64 g/m*3 -0.02 C 0 km/h
2038 26-03-2014 09:00:00 1.76667 C 5.24 g/m*3 1.77 C 0 km/h
2039 26-03-2014 10:00:00 4.50833 C 5.74 g/m*3 4.51 C 0.93333 km/h
2040 26-03-2014 11:00:00 7.60833 C 5.86 g/m*3 7.61 C 4.675 km/h
2041 26-03-2014 12:00:00 10.36667 C 5.83 g/m*3 9.01 C 10.35 km/h
2042 26-03-2014 13:00:00 10.375 C 5.22 g/m*3 9.18 C 9.425 km/h
2043 26-03-2014 14:00:00 11.20833 C 4.91 g/m*3 11.21 C 9.54167 km/h
2044 26-03-2014 15:00:00 11.55833 C 4.81 g/m*3 11.56 C 6.025 km/h
2045 26-03-2014 16:00:00 10.24167 C 5.16 g/m*3 10.24 C 4.66667 km/h
2046 26-03-2014 17:00:00 10.80833 C 4.99 g/m*3 10.81 C 4.675 km/h
2047 26-03-2014 18:00:00 8.30833 C 5.24 g/m*3 8.31 C 3.74167 km/h
2048 26-03-2014 19:00:00 5.85 C 5.38 g/m*3 5.85 C 4.53333 km/h
2049 26-03-2014 20:00:00 4.58333 C 5.31 g/m*3 4.58 C 2.8 km/h
2050 26-03-2014 21:00:00 4.36667 C 5.41 g/m*3 4.37 C 1.2 km/h
Sensor: Nr:Datum:Temp:Abs-Feuchte:Windchill:Wind:
Aussen-T/F 2051 26-03-2014 22:00:00 4.38333 C 5.55 g/m*3 4.38 C 0.53333 km/h
2052 26-03-2014 23:00:00 4.15 C 5.87 g/m*3 4.15 C 1.73333 km/h
2053 27-03-2014 00:00:00 4.175 C 6.01 g/m*3 4.18 C 0.13333 km/h
2054 27-03-2014 01:00:00 4.14167 C 5.97 g/m*3 4.14 C 0.53333 km/h
2055 27-03-2014 02:00:00 3.79167 C 5.83 g/m*3 3.79 C 0.4 km/h
2056 27-03-2014 03:00:00 3.375 C 5.61 g/m*3 3.38 C 1.46667 km/h
2057 27-03-2014 04:00:00 2.5 C 5.3 g/m*3 2.5 C 2 km/h
2058 27-03-2014 05:00:00 1.89167 C 5.14 g/m*3 1.89 C 0.4 km/h
2059 27-03-2014 06:00:00 1.46667 C 5.04 g/m*3 1.47 C 0 km/h
2060 27-03-2014 07:00:00 2.06667 C 5.24 g/m*3 2.07 C 1.6 km/h
2061 27-03-2014 08:00:00 3.1 C 5.52 g/m*3 3.1 C 2.4 km/h
2062 27-03-2014 09:00:00 5.325 C 6.05 g/m*3 3.72 C 7.24167 km/h
2063 27-03-2014 10:00:00 8.2 C 6.24 g/m*3 7.29 C 6.4 km/h
2064 27-03-2014 11:00:00 10.825 C 6.15 g/m*3 9.42 C 11.3 km/h
2065 27-03-2014 12:00:00 13.6 C 6.38 g/m*3 13.6 C 13.03333 km/h
2066 27-03-2014 13:00:00 14.70833 C 6.29 g/m*3 14.71 C 11.96667 km/h
2067 27-03-2014 14:00:00 15.35 C 5.91 g/m*3 15.35 C 11.425 km/h
2068 27-03-2014 15:00:00 15.80833 C 5.8 g/m*3 15.81 C 10.89167 km/h
2069 27-03-2014 16:00:00 15.71667 C 5.79 g/m*3 15.72 C 9.81667 km/h
2070 27-03-2014 17:00:00 15.73333 C 5.7 g/m*3 15.73 C 5.63333 km/h
2071 27-03-2014 18:00:00 12 C 6.05 g/m*3 12 C 5.35 km/h
2072 27-03-2014 19:00:00 9.51667 C 6.07 g/m*3 8.64 C 7.10833 km/h
2073 27-03-2014 20:00:00 8.625 C 6.3 g/m*3 7.85 C 6.13333 km/h
2074 27-03-2014 21:00:00 8.01667 C 6.35 g/m*3 7.35 C 5.46667 km/h
2075 27-03-2014 22:00:00 7.625 C 6.39 g/m*3 7.04 C 5.06667 km/h
Sensor: Nr:Datum:Temp:Abs-Feuchte:Windchill:Wind:
Aussen-T/F 2076 27-03-2014 23:00:00 7.99167 C 6.37 g/m*3 7.99 C 4.53333 km/h
2077 28-03-2014 00:00:00 7.24167 C 6.22 g/m*3 7.24 C 4.66667 km/h
2078 28-03-2014 01:00:00 6.525 C 6.07 g/m*3 6.53 C 4.53333 km/h
2079 28-03-2014 02:00:00 5.825 C 5.98 g/m*3 4.9 C 5.33333 km/h
2080 28-03-2014 03:00:00 5.40833 C 5.93 g/m*3 5.41 C 4.53333 km/h
2081 28-03-2014 04:00:00 4.83333 C 5.85 g/m*3 4.83 C 3.46667 km/h
2082 28-03-2014 05:00:00 4.1 C 5.66 g/m*3 4.1 C 1.06667 km/h
2083 28-03-2014 06:00:00 3.5 C 5.51 g/m*3 3.5 C 0.13333 km/h
2084 28-03-2014 07:00:00 3.66667 C 5.71 g/m*3 3.67 C 0.26667 km/h
2085 28-03-2014 08:00:00 5.26667 C 6.16 g/m*3 5.27 C 3.73333 km/h
2086 28-03-2014 09:00:00 8.20833 C 6.61 g/m*3 8.21 C 3.2 km/h
2087 28-03-2014 10:00:00 11.275 C 6.73 g/m*3 11.28 C 6.16667 km/h
2088 28-03-2014 11:00:00 13.61667 C 6.84 g/m*3 13.62 C 6.03333 km/h
2089 28-03-2014 12:00:00 15.75 C 6.92 g/m*3 15.75 C 6.70833 km/h
2090 28-03-2014 13:00:00 17.85 C 6.63 g/m*3 17.85 C 10.75 km/h
2091 28-03-2014 14:00:00 18.21667 C 6.09 g/m*3 18.22 C 11.025 km/h
2092 28-03-2014 15:00:00 18.79167 C 5.9 g/m*3 18.79 C 9.825 km/h
2093 28-03-2014 16:00:00 19.175 C 5.79 g/m*3 19.18 C 12.76667 km/h
2094 28-03-2014 17:00:00 16.79167 C 6.13 g/m*3 16.79 C 5.35833 km/h
2095 28-03-2014 18:00:00 13.78333 C 6.62 g/m*3 13.78 C 4.93333 km/h
2096 28-03-2014 19:00:00 13.15 C 6.31 g/m*3 13.15 C 4.81667 km/h
2097 28-03-2014 20:00:00 12.1 C 6.04 g/m*3 12.1 C 8.85833 km/h
2098 28-03-2014 21:00:00 10.96667 C 6.05 g/m*3 9.91 C 9.26667 km/h
2099 28-03-2014 22:00:00 10.1 C 6.26 g/m*3 8.81 C 9.675 km/h
2100 28-03-2014 23:00:00 8.49167 C 6.29 g/m*3 8.49 C 3.73333 km/h
Sensor: Nr:Datum:Temp:Abs-Feuchte:Windchill:Wind:
Aussen-T/F 2101 29-03-2014 00:00:00 6.69167 C 6.18 g/m*3 6.69 C 3.6 km/h
2102 29-03-2014 01:00:00 5.93333 C 6.14 g/m*3 5.93 C 4.13333 km/h
2103 29-03-2014 02:00:00 5.5 C 6.12 g/m*3 5.5 C 3.46667 km/h
2104 29-03-2014 03:00:00 5.025 C 6.03 g/m*3 5.03 C 3.6 km/h
2105 29-03-2014 04:00:00 4.33333 C 5.89 g/m*3 4.33 C 0.93333 km/h
2106 29-03-2014 05:00:00 3.7 C 5.72 g/m*3 3.7 C 0 km/h
2107 29-03-2014 06:00:00 3.15 C 5.6 g/m*3 3.15 C 0 km/h
2108 29-03-2014 07:00:00 3.18333 C 5.66 g/m*3 3.18 C 0 km/h
2109 29-03-2014 08:00:00 4.1 C 6.06 g/m*3 4.1 C 0 km/h
2110 29-03-2014 09:00:00 6.75 C 6.94 g/m*3 6.75 C 2.8 km/h
2111 29-03-2014 10:00:00 10.55833 C 7.46 g/m*3 9.97 C 6.56667 km/h
2112 29-03-2014 11:00:00 14.25833 C 7.57 g/m*3 14.26 C 8.49167 km/h
2113 29-03-2014 12:00:00 17.34167 C 7.75 g/m*3 17.34 C 10.63333 km/h
2114 29-03-2014 13:00:00 18.58333 C 7.58 g/m*3 18.58 C 10.35833 km/h
2115 29-03-2014 14:00:00 19.66667 C 6.86 g/m*3 19.67 C 8.2 km/h
2116 29-03-2014 15:00:00 20.26667 C 6.01 g/m*3 20.27 C 10.75833 km/h
2117 29-03-2014 16:00:00 20.79167 C 5.66 g/m*3 20.79 C 8.46667 km/h
2118 29-03-2014 17:00:00 20.8 C 5.46 g/m*3 20.8 C 7.14286 km/h
2119 29-03-2014 18:00:00 14.1 C 6.55 g/m*3 14.1 C 8.1 km/h
2120 29-03-2014 19:00:00 12.84167 C 6.2 g/m*3 12.84 C 5.875 km/h
2121 29-03-2014 20:00:00 11.575 C 6.54 g/m*3 11.58 C 3.33333 km/h
2122 29-03-2014 21:00:00 10.375 C 6.63 g/m*3 10.38 C 0.4 km/h
2123 29-03-2014 22:00:00 8.99167 C 6.37 g/m*3 8.99 C 0 km/h
2124 29-03-2014 23:00:00 7.66667 C 6.17 g/m*3 7.67 C 0.26667 km/h
2125 30-03-2014 00:00:00 6.86667 C 6.11 g/m*3 6.87 C 0.8 km/h
Sensor: Nr:Datum:Temp:Abs-Feuchte:Windchill:Wind:
Aussen-T/F 2126 30-03-2014 01:00:00 6.1 C 5.98 g/m*3 6.1 C 0.26667 km/h
2127 30-03-2014 02:00:00 5.00833 C 5.84 g/m*3 5.01 C 0.13333 km/h
2128 30-03-2014 04:00:00 4.35833 C 5.72 g/m*3 4.36 C 0 km/h
2129 30-03-2014 05:00:00 3.75833 C 5.61 g/m*3 3.76 C 0.13333 km/h
2130 30-03-2014 06:00:00 3.28333 C 5.53 g/m*3 3.28 C 0 km/h
2131 30-03-2014 07:00:00 2.91667 C 5.48 g/m*3 2.92 C 0.13333 km/h
2132 30-03-2014 08:00:00 3.375 C 5.66 g/m*3 3.38 C 0.4 km/h
2133 30-03-2014 09:00:00 4.04286 C 5.93 g/m*3 4.04 C 0.22857 km/h
2134 30-03-2014 10:00:00 7.47 C 6.75 g/m*3 7.47 C 0.48 km/h
2135 30-03-2014 11:00:00 10.175 C 7.24 g/m*3 10.18 C 0.66667 km/h
2136 30-03-2014 12:00:00 13.90833 C 7.96 g/m*3 13.91 C 2.4 km/h
2137 30-03-2014 13:00:00 18.48333 C 8.67 g/m*3 18.48 C 3.86667 km/h
2138 30-03-2014 14:00:00 20.73333 C 7.34 g/m*3 20.73 C 7.23333 km/h
2139 30-03-2014 15:00:00 20.74 C 6.86 g/m*3 20.74 C 3.52 km/h
2140 30-03-2014 20:00:00 13.97 C 7.45 g/m*3 13.97 C 3.04 km/h
2141 30-03-2014 21:00:00 12.46 C 7.48 g/m*3 12.46 C 0.48 km/h
2142 30-03-2014 22:00:00 11.59167 C 7.23 g/m*3 11.59 C 0.13333 km/h
2143 30-03-2014 23:00:00 10.425 C 7.17 g/m*3 10.43 C 0 km/h
2144 31-03-2014 00:00:00 9.775 C 7.07 g/m*3 9.78 C 0.4 km/h
2145 31-03-2014 01:00:00 8.83333 C 7 g/m*3 8.83 C 0.53333 km/h
2146 31-03-2014 02:00:00 8.325 C 6.96 g/m*3 8.32 C 0.4 km/h
2147 31-03-2014 03:00:00 8.06667 C 6.95 g/m*3 8.07 C 0.26667 km/h
2148 31-03-2014 04:00:00 7.525 C 6.87 g/m*3 7.53 C 0 km/h
2149 31-03-2014 05:00:00 7.09167 C 6.84 g/m*3 7.09 C 0.13333 km/h
2150 31-03-2014 06:00:00 6.71667 C 6.71 g/m*3 6.72 C 0 km/h
Sensor: Nr:Datum:Temp:Abs-Feuchte:Windchill:Wind:
Aussen-T/F 2151 31-03-2014 07:00:00 6.225 C 6.62 g/m*3 6.23 C 0 km/h
2152 31-03-2014 08:00:00 6.6 C 6.85 g/m*3 6.6 C 0 km/h
2153 31-03-2014 09:00:00 7.74167 C 7.15 g/m*3 7.74 C 0.66667 km/h
2154 31-03-2014 10:00:00 9.29167 C 7.45 g/m*3 9.29 C 0.26667 km/h
2155 31-03-2014 11:00:00 11.4 C 7.89 g/m*3 11.4 C 1.6 km/h
2156 31-03-2014 12:00:00 14.65 C 8.39 g/m*3 14.65 C 3.86667 km/h
2157 31-03-2014 13:00:00 17.93333 C 8.49 g/m*3 17.93 C 3.2 km/h
2158 31-03-2014 14:00:00 20.25833 C 7.22 g/m*3 20.26 C 4.53333 km/h
2159 31-03-2014 15:00:00 22.14167 C 4.83 g/m*3 22.14 C 6.83333 km/h
2160 31-03-2014 16:00:00 22.95 C 5.79 g/m*3 22.95 C 9.68333 km/h
2161 31-03-2014 17:00:00 22.94167 C 5.8 g/m*3 22.94 C 8.475 km/h
2162 31-03-2014 18:00:00 21.44167 C 6.14 g/m*3 21.44 C 3.2 km/h
2163 31-03-2014 19:00:00 17.40833 C 6.49 g/m*3 17.41 C 5.2 km/h
2164 31-03-2014 20:00:00 15.14167 C 6.14 g/m*3 15.14 C 5.6 km/h
2165 31-03-2014 21:00:00 14.075 C 7.35 g/m*3 14.08 C 3.73333 km/h
2166 31-03-2014 22:00:00 12.625 C 7.7 g/m*3 12.63 C 0.26667 km/h
2167 31-03-2014 23:00:00 12.01667 C 7.45 g/m*3 12.02 C 0.53333 km/h
2168 01-04-2014 00:00:00 10.94167 C 7.4 g/m*3 10.94 C 0.8 km/h
2169 01-04-2014 01:00:00 10.78333 C 7.49 g/m*3 10.78 C 0.8 km/h
2170 01-04-2014 02:00:00 10.525 C 7.55 g/m*3 10.53 C 0.26667 km/h
2171 01-04-2014 03:00:00 9.56667 C 7.34 g/m*3 9.57 C 0.26667 km/h
2172 01-04-2014 04:00:00 9.04167 C 7.22 g/m*3 9.04 C 0.13333 km/h
2173 01-04-2014 05:00:00 8.53333 C 7.14 g/m*3 8.53 C 0 km/h
2174 01-04-2014 06:00:00 8.00833 C 7 g/m*3 8.01 C 0.13333 km/h
2175 01-04-2014 07:00:00 7.65833 C 6.99 g/m*3 7.66 C 0.26667 km/h
Sensor: Nr:Datum:Temp:Abs-Feuchte:Windchill:Wind:
Aussen-T/F 2176 01-04-2014 08:00:00 8.38333 C 7.37 g/m*3 8.38 C 0.13333 km/h
2177 01-04-2014 09:00:00 9.8 C 7.69 g/m*3 9.8 C 0.13333 km/h
2178 01-04-2014 10:00:00 11.6 C 8.03 g/m*3 11.6 C 0 km/h
2179 01-04-2014 11:00:00 14.09167 C 8.27 g/m*3 14.09 C 0.26667 km/h
2180 01-04-2014 12:00:00 17.36667 C 8.31 g/m*3 17.37 C 0.93333 km/h
2181 01-04-2014 13:00:00 21.06667 C 8.6 g/m*3 21.07 C 3.2 km/h
2182 01-04-2014 14:00:00 22.1 C 7.78 g/m*3 22.1 C 5.06667 km/h
2183 01-04-2014 15:00:00 21.95833 C 7.44 g/m*3 21.96 C 4.425 km/h
2184 01-04-2014 16:00:00 23.06667 C 7.24 g/m*3 23.07 C 5.35833 km/h
2185 01-04-2014 17:00:00 22.76 C 6.89 g/m*3 22.76 C 7.76 km/h
2186 01-04-2014 19:00:00 17.84286 C 8.65 g/m*3 17.84 C 5.25714 km/h
2187 01-04-2014 20:00:00 17 C 8.69 g/m*3 17 C 4.13333 km/h
2188 01-04-2014 21:00:00 15.3 C 9.15 g/m*3 15.3 C 3.68 km/h
2189 01-04-2014 22:00:00 13.91667 C 8.02 g/m*3 13.92 C 2.4 km/h
2190 01-04-2014 23:00:00 12.70833 C 7.86 g/m*3 12.71 C 1.33333 km/h
2191 02-04-2014 00:00:00 11.51667 C 7.59 g/m*3 11.52 C 0 km/h
2192 02-04-2014 01:00:00 10.63333 C 7.48 g/m*3 10.63 C 1.06667 km/h
2193 02-04-2014 02:00:00 9.41667 C 7.3 g/m*3 9.42 C 0.13333 km/h
2194 02-04-2014 03:00:00 8.75833 C 7.16 g/m*3 8.76 C 0.26667 km/h
2195 02-04-2014 04:00:00 7.96667 C 7.05 g/m*3 7.97 C 0.26667 km/h
2196 02-04-2014 05:00:00 7.28333 C 6.89 g/m*3 7.28 C 0.26667 km/h
2197 02-04-2014 06:00:00 6.60833 C 6.78 g/m*3 6.61 C 0.26667 km/h
2198 02-04-2014 07:00:00 6.78333 C 6.88 g/m*3 6.78 C 0.13333 km/h
2199 02-04-2014 08:00:00 7.00833 C 7 g/m*3 7.01 C 1.06667 km/h
2200 02-04-2014 09:00:00 8.04167 C 7.36 g/m*3 8.04 C 0.13333 km/h
Sensor: Nr:Datum:Temp:Abs-Feuchte:Windchill:Wind:
Aussen-T/F 2201 02-04-2014 10:00:00 10.375 C 7.99 g/m*3 10.38 C 0.26667 km/h
2202 02-04-2014 11:00:00 13.45833 C 8.76 g/m*3 13.46 C 0.93333 km/h
2203 02-04-2014 12:00:00 17.03636 C 8.96 g/m*3 17.04 C 4.52727 km/h
2204 02-04-2014 13:00:00 20.98889 C 8.75 g/m*3 20.99 C 8.41111 km/h
2205 02-04-2014 14:00:00 22.40833 C 7.93 g/m*3 22.41 C 12.49167 km/h
2206 02-04-2014 15:00:00 22.66667 C 7.86 g/m*3 22.67 C 12.1 km/h
2207 02-04-2014 16:00:00 23.2 C 7.78 g/m*3 23.2 C 9.525 km/h
2208 02-04-2014 17:00:00 23.36667 C 7.63 g/m*3 23.37 C 8.86667 km/h
2209 02-04-2014 18:00:00 22.54167 C 8.08 g/m*3 22.54 C 6.96667 km/h
2210 02-04-2014 19:00:00 18.53333 C 9.1 g/m*3 18.53 C 2.8 km/h
2211 02-04-2014 20:00:00 15.90833 C 8.9 g/m*3 15.91 C 3.86667 km/h
2212 02-04-2014 21:00:00 14.90833 C 8.88 g/m*3 14.91 C 2.8 km/h
2213 02-04-2014 22:00:00 13.64167 C 8.79 g/m*3 13.64 C 0.8 km/h
2214 02-04-2014 23:00:00 12.69167 C 8.54 g/m*3 12.69 C 0.4 km/h
2215 03-04-2014 00:00:00 11.5 C 8.33 g/m*3 11.5 C 0 km/h
2216 03-04-2014 01:00:00 11.39167 C 8.38 g/m*3 11.39 C 1.33333 km/h
2217 03-04-2014 02:00:00 10.91667 C 8.28 g/m*3 10.92 C 0.4 km/h
2218 03-04-2014 03:00:00 10.46667 C 8.23 g/m*3 10.47 C 0 km/h
2219 03-04-2014 04:00:00 9.51667 C 7.87 g/m*3 9.52 C 0 km/h
2220 03-04-2014 05:00:00 8.575 C 7.66 g/m*3 8.57 C 0.26667 km/h
2221 03-04-2014 06:00:00 8.21667 C 7.59 g/m*3 8.22 C 0.4 km/h
2222 03-04-2014 07:00:00 8.09167 C 7.63 g/m*3 8.09 C 0.26667 km/h
2223 03-04-2014 08:00:00 9.03333 C 8.03 g/m*3 9.03 C 0.26667 km/h
2224 03-04-2014 09:00:00 10.18333 C 8.29 g/m*3 10.18 C 0.13333 km/h
2225 03-04-2014 10:00:00 11.55833 C 8.63 g/m*3 11.56 C 1.33333 km/h
Sensor: Nr:Datum:Temp:Abs-Feuchte:Windchill:Wind:
Aussen-T/F 2226 03-04-2014 11:00:00 13.675 C 9.07 g/m*3 13.68 C 1.46667 km/h
2227 03-04-2014 12:00:00 17.08333 C 9.89 g/m*3 17.08 C 3.73333 km/h
2228 03-04-2014 13:00:00 20.50833 C 8.44 g/m*3 20.51 C 8.74167 km/h
2229 03-04-2014 14:00:00 21.35 C 8.26 g/m*3 21.35 C 7.5 km/h
2230 03-04-2014 18:00:00 20.4 C 9.02 g/m*3 20.4 C 1.6 km/h
2231 03-04-2014 19:00:00 19.575 C 9.14 g/m*3 19.58 C 3.6 km/h
2232 03-04-2014 20:00:00 16.14286 C 9.25 g/m*3 16.14 C 5.04286 km/h
2233 03-04-2014 21:00:00 15.4 C 8.58 g/m*3 15.4 C 2.66667 km/h
2234 03-04-2014 22:00:00 14.44167 C 8.66 g/m*3 14.44 C 0.93333 km/h
2235 03-04-2014 23:00:00 13.175 C 8.54 g/m*3 13.18 C 0 km/h
2236 04-04-2014 00:00:00 12.34167 C 8.45 g/m*3 12.34 C 0.13333 km/h
2237 04-04-2014 01:00:00 12.79167 C 8.67 g/m*3 12.79 C 1.6 km/h
2238 04-04-2014 02:00:00 12.76667 C 8.73 g/m*3 12.77 C 0.13333 km/h
2239 04-04-2014 03:00:00 12.31667 C 8.79 g/m*3 12.32 C 0.13333 km/h
2240 04-04-2014 04:00:00 12.1 C 8.83 g/m*3 12.1 C 0.26667 km/h
2241 04-04-2014 05:00:00 11.525 C 8.7 g/m*3 11.53 C 0.66667 km/h
2242 04-04-2014 06:00:00 11.3 C 8.72 g/m*3 11.3 C 0.4 km/h
2243 04-04-2014 07:00:00 11.225 C 8.72 g/m*3 11.23 C 0.66667 km/h
2244 04-04-2014 08:00:00 11.05 C 8.79 g/m*3 11.05 C 0 km/h
2245 04-04-2014 09:00:00 11.88333 C 9.07 g/m*3 11.88 C 0.26667 km/h
2246 04-04-2014 10:00:00 13.21667 C 9.37 g/m*3 13.22 C 0.66667 km/h
2247 04-04-2014 11:00:00 14.99167 C 9.87 g/m*3 14.99 C 2.4 km/h
2248 04-04-2014 12:00:00 16.99167 C 10.15 g/m*3 16.99 C 2.26667 km/h
2249 04-04-2014 13:00:00 18.975 C 10.29 g/m*3 18.98 C 3.20833 km/h
2250 04-04-2014 14:00:00 20.21667 C 9.9 g/m*3 20.22 C 6.425 km/h
Sensor: Nr:Datum:Temp:Abs-Feuchte:Windchill:Wind:
Aussen-T/F 2251 04-04-2014 15:00:00 20.58333 C 10.03 g/m*3 20.58 C 8.86667 km/h
2252 04-04-2014 16:00:00 20.39167 C 10.17 g/m*3 20.39 C 8.59167 km/h
2253 04-04-2014 17:00:00 20.22857 C 10.53 g/m*3 20.23 C 7.84286 km/h
2254 04-04-2014 18:00:00 19.27143 C 11.92 g/m*3 19.27 C 7.6 km/h
2255 04-04-2014 19:00:00 17.96667 C 9.66 g/m*3 17.97 C 10.08333 km/h
2256 04-04-2014 20:00:00 16.70833 C 9.83 g/m*3 16.71 C 6.7 km/h
2257 04-04-2014 21:00:00 15.28333 C 10.03 g/m*3 15.28 C 5.475 km/h
2258 04-04-2014 22:00:00 14.9 C 10.09 g/m*3 14.9 C 3.475 km/h
2259 04-04-2014 23:00:00 14 C 10.02 g/m*3 14 C 2 km/h
2260 05-04-2014 00:00:00 13.95833 C 10.22 g/m*3 13.96 C 8.58333 km/h
2261 05-04-2014 01:00:00 13.43333 C 10.13 g/m*3 13.43 C 7.09167 km/h
2262 05-04-2014 02:00:00 13.2 C 9.99 g/m*3 13.2 C 6.44167 km/h
2263 05-04-2014 03:00:00 12.91667 C 9.88 g/m*3 12.92 C 5.34167 km/h
2264 05-04-2014 04:00:00 12.74167 C 9.71 g/m*3 12.74 C 8.05 km/h
2265 05-04-2014 05:00:00 12.53333 C 9.65 g/m*3 12.53 C 8.325 km/h
2266 05-04-2014 06:00:00 12.125 C 9.68 g/m*3 12.13 C 3.86667 km/h
2267 05-04-2014 07:00:00 12.00833 C 9.6 g/m*3 12.01 C 4.95833 km/h
2268 05-04-2014 08:00:00 12.04167 C 9.62 g/m*3 12.04 C 5.35 km/h
2269 05-04-2014 09:00:00 12.2 C 9.66 g/m*3 12.2 C 6.16667 km/h
2270 05-04-2014 10:00:00 12.13333 C 9.62 g/m*3 12.13 C 8.74167 km/h
2271 05-04-2014 11:00:00 12.36667 C 9.6 g/m*3 12.37 C 5.75833 km/h
2272 05-04-2014 12:00:00 13.075 C 9.89 g/m*3 13.08 C 5.36667 km/h
2273 05-04-2014 13:00:00 13.9 C 10.43 g/m*3 13.9 C 5.86667 km/h
2274 05-04-2014 15:00:00 15.43333 C 10.09 g/m*3 15.43 C 5.86667 km/h
2275 05-04-2014 16:00:00 15.125 C 9.85 g/m*3 15.13 C 7.25 km/h
Sensor: Nr:Datum:Temp:Abs-Feuchte:Windchill:Wind:
Aussen-T/F 2276 05-04-2014 17:00:00 14.88889 C 10.06 g/m*3 14.89 C 6.42222 km/h
2277 05-04-2014 18:00:00 14.7 C 9.82 g/m*3 14.7 C 6.4 km/h
2278 05-04-2014 19:00:00 14.29167 C 10.09 g/m*3 14.29 C 0.93333 km/h
2279 05-04-2014 20:00:00 13.38333 C 9.75 g/m*3 13.38 C 3.06667 km/h
2280 05-04-2014 21:00:00 13.06667 C 9.74 g/m*3 13.07 C 2.26667 km/h
2281 05-04-2014 22:00:00 12.70833 C 9.66 g/m*3 12.71 C 0.8 km/h
2282 05-04-2014 23:00:00 11.26667 C 8.99 g/m*3 11.27 C 2.93333 km/h
2283 06-04-2014 00:00:00 10.08333 C 8.63 g/m*3 10.08 C 0.93333 km/h
2284 06-04-2014 01:00:00 9.2 C 8.3 g/m*3 9.2 C 0.13333 km/h
2285 06-04-2014 02:00:00 8.45 C 8.04 g/m*3 8.45 C 0.13333 km/h
2286 06-04-2014 03:00:00 7.9 C 7.8 g/m*3 7.9 C 0.26667 km/h
2287 06-04-2014 04:00:00 7.19167 C 7.49 g/m*3 7.19 C 0 km/h
2288 06-04-2014 05:00:00 7.00833 C 7.46 g/m*3 7.01 C 0 km/h
2289 06-04-2014 06:00:00 7.2 C 7.59 g/m*3 7.2 C 1.2 km/h
2290 06-04-2014 07:00:00 7.21667 C 7.62 g/m*3 7.22 C 0.66667 km/h
2291 06-04-2014 08:00:00 7.71667 C 7.87 g/m*3 7.72 C 0 km/h
2292 06-04-2014 09:00:00 8.19167 C 8.12 g/m*3 8.19 C 0.66667 km/h
2293 06-04-2014 10:00:00 10.23333 C 8.96 g/m*3 10.23 C 2.93333 km/h
2294 06-04-2014 11:00:00 13.87778 C 9.11 g/m*3 13.88 C 9.85556 km/h
2295 06-04-2014 12:00:00 16.50833 C 8.75 g/m*3 16.51 C 13.96667 km/h
2296 06-04-2014 13:00:00 18.53333 C 9.09 g/m*3 18.53 C 11.28889 km/h
2297 06-04-2014 14:00:00 19.44 C 9 g/m*3 19.44 C 13.06 km/h
2298 06-04-2014 15:00:00 19.08571 C 9.06 g/m*3 19.09 C 11.3 km/h
2299 06-04-2014 16:00:00 18.9 C 9.07 g/m*3 18.9 C 14.5 km/h
2300 06-04-2014 17:00:00 18.3 C 9.07 g/m*3 18.3 C 10.32 km/h
Sensor: Nr:Datum:Temp:Abs-Feuchte:Windchill:Wind:
Aussen-T/F 2301 06-04-2014 19:00:00 16.45 C 9.47 g/m*3 16.45 C 3.48333 km/h
2302 06-04-2014 20:00:00 14.9 C 9.28 g/m*3 14.9 C 3.46667 km/h
2303 06-04-2014 21:00:00 13.825 C 9.25 g/m*3 13.83 C 2.26667 km/h
2304 06-04-2014 22:00:00 13.9 C 9.37 g/m*3 13.9 C 2.66667 km/h
2305 06-04-2014 23:00:00 13.99167 C 9.32 g/m*3 13.99 C 2.4 km/h
2306 07-04-2014 00:00:00 13.875 C 9.32 g/m*3 13.88 C 1.86667 km/h
2307 07-04-2014 01:00:00 13.21667 C 9.37 g/m*3 13.22 C 0.26667 km/h
2308 07-04-2014 02:00:00 12.99167 C 9.44 g/m*3 12.99 C 0.53333 km/h
2309 07-04-2014 03:00:00 12.675 C 9.42 g/m*3 12.68 C 0 km/h
2310 07-04-2014 04:00:00 12.5 C 9.43 g/m*3 12.5 C 0.13333 km/h
2311 07-04-2014 05:00:00 12.4 C 9.44 g/m*3 12.4 C 0.8 km/h
2312 07-04-2014 06:00:00 12.38333 C 9.56 g/m*3 12.38 C 0.13333 km/h
2313 07-04-2014 07:00:00 12.26667 C 9.59 g/m*3 12.27 C 0.53333 km/h
2314 07-04-2014 08:00:00 12.95 C 9.85 g/m*3 12.95 C 1.6 km/h
2315 07-04-2014 09:00:00 14.15833 C 10.32 g/m*3 14.16 C 3.35 km/h
2316 07-04-2014 10:00:00 16.19167 C 10.98 g/m*3 16.19 C 9.40833 km/h
2317 07-04-2014 11:00:00 17.8 C 11.41 g/m*3 17.8 C 9.15 km/h
2318 07-04-2014 12:00:00 19.51667 C 11.45 g/m*3 19.52 C 8.875 km/h
2319 07-04-2014 13:00:00 20.51667 C 11.12 g/m*3 20.52 C 7.125 km/h
2320 07-04-2014 14:00:00 21.20833 C 11.29 g/m*3 21.21 C 7.925 km/h
2321 07-04-2014 15:00:00 21.54167 C 10.71 g/m*3 21.54 C 7.525 km/h
2322 07-04-2014 16:00:00 22.16667 C 9.93 g/m*3 22.17 C 8.06667 km/h
2323 07-04-2014 18:00:00 23.36667 C 17.35 g/m*3 23.37 C 6.71667 km/h
2324 07-04-2014 19:00:00 17.9 C 10.04 g/m*3 17.9 C 4.4 km/h
2325 07-04-2014 20:00:00 16.87 C 9.36 g/m*3 16.87 C 4.48 km/h
Sensor: Nr:Datum:Temp:Abs-Feuchte:Windchill:Wind:
Aussen-T/F 2326 07-04-2014 21:00:00 16.20909 C 9.62 g/m*3 16.21 C 4.07273 km/h
2327 07-04-2014 22:00:00 16.03333 C 9.12 g/m*3 16.03 C 3.2 km/h
2328 07-04-2014 23:00:00 16.125 C 9.24 g/m*3 16.13 C 3.475 km/h
2329 08-04-2014 00:00:00 15.48333 C 9.38 g/m*3 15.48 C 3.73333 km/h
2330 08-04-2014 01:00:00 15.59167 C 9.87 g/m*3 15.59 C 1.86667 km/h
2331 08-04-2014 02:00:00 16.025 C 9.85 g/m*3 16.02 C 4.69167 km/h
2332 08-04-2014 03:00:00 15.20833 C 9.75 g/m*3 15.21 C 3.075 km/h
2333 08-04-2014 04:00:00 14.66667 C 9.66 g/m*3 14.67 C 4.69167 km/h
2334 08-04-2014 05:00:00 15.5 C 9.25 g/m*3 15.5 C 10.06667 km/h
2335 08-04-2014 06:00:00 13.175 C 9.53 g/m*3 13.18 C 9.80833 km/h
2336 08-04-2014 07:00:00 11.525 C 7.72 g/m*3 11.53 C 19.16667 km/h
2337 08-04-2014 08:00:00 10.99167 C 6.79 g/m*3 9 C 16.23333 km/h
2338 08-04-2014 09:00:00 11.075 C 6.48 g/m*3 11.08 C 16.23333 km/h
2339 08-04-2014 10:00:00 11.725 C 6.55 g/m*3 11.73 C 15.83333 km/h
2340 08-04-2014 11:00:00 12.28333 C 6.59 g/m*3 12.28 C 15.3 km/h
2341 08-04-2014 12:00:00 12.64167 C 6.53 g/m*3 12.64 C 19.45 km/h
2342 08-04-2014 13:00:00 12.64167 C 6.27 g/m*3 12.64 C 17.43333 km/h
2343 08-04-2014 14:00:00 12.15833 C 6.07 g/m*3 12.16 C 20.375 km/h
2344 08-04-2014 15:00:00 12.63333 C 5.68 g/m*3 12.63 C 19.83333 km/h
2345 08-04-2014 16:00:00 12.6 C 5.43 g/m*3 12.6 C 19.84167 km/h
2346 08-04-2014 17:00:00 10.68333 C 6.09 g/m*3 8.56 C 16.76667 km/h
2347 08-04-2014 18:00:00 10.65833 C 6.2 g/m*3 9.21 C 11.3 km/h
2348 08-04-2014 19:00:00 10.26667 C 6.16 g/m*3 8.1 C 16.24167 km/h
2349 08-04-2014 20:00:00 9.26667 C 6.28 g/m*3 7.69 C 10.4 km/h
2350 08-04-2014 21:00:00 8.75 C 6.46 g/m*3 8.26 C 5.225 km/h
Sensor: Nr:Datum:Temp:Abs-Feuchte:Windchill:Wind:
Aussen-T/F 2351 08-04-2014 22:00:00 8.00833 C 6.4 g/m*3 8.01 C 3.46667 km/h
2352 08-04-2014 23:00:00 7.79091 C 6.27 g/m*3 7.12 C 5.39091 km/h
2353 09-04-2014 00:00:00 6.06667 C 6.63 g/m*3 6.07 C 2.66667 km/h
2354 09-04-2014 01:00:00 5.65833 C 6.57 g/m*3 4.75 C 5.21667 km/h
2355 09-04-2014 02:00:00 5.425 C 6.55 g/m*3 5.43 C 3.6 km/h
2356 09-04-2014 03:00:00 4.9 C 6.33 g/m*3 4.9 C 2 km/h
2357 09-04-2014 04:00:00 4.88333 C 6.32 g/m*3 4.88 C 2.93333 km/h
2358 09-04-2014 05:00:00 5.05833 C 6.29 g/m*3 5.06 C 1.73333 km/h
2359 09-04-2014 06:00:00 4.375 C 6.12 g/m*3 4.38 C 1.2 km/h
2360 09-04-2014 07:00:00 4.18 C 6.05 g/m*3 4.18 C 2.9 km/h
2361 09-04-2014 08:00:00 4.64167 C 6.3 g/m*3 4.64 C 2.13333 km/h
2362 09-04-2014 09:00:00 6.81667 C 6.87 g/m*3 5.12 C 8.61667 km/h
2363 09-04-2014 10:00:00 8.54167 C 7.23 g/m*3 7.37 C 7.65833 km/h
2364 09-04-2014 11:00:00 10.29167 C 7.34 g/m*3 8.92 C 10.35 km/h
2365 09-04-2014 12:00:00 11.375 C 7.23 g/m*3 11.38 C 9.68333 km/h
2366 09-04-2014 13:00:00 12.96667 C 6.67 g/m*3 12.97 C 8.6 km/h
2367 09-04-2014 14:00:00 13.64167 C 6.49 g/m*3 13.64 C 8.06667 km/h
2368 09-04-2014 15:00:00 14.43333 C 6.06 g/m*3 14.43 C 9.28333 km/h
2369 09-04-2014 16:00:00 14.325 C 6.08 g/m*3 14.33 C 9.95833 km/h
2370 09-04-2014 17:00:00 14.80833 C 6.44 g/m*3 14.81 C 9.01667 km/h
2371 09-04-2014 18:00:00 14.58333 C 6.46 g/m*3 14.58 C 8.46667 km/h
2372 09-04-2014 19:00:00 13.15833 C 6.8 g/m*3 13.16 C 3.2 km/h
2373 09-04-2014 20:00:00 10.35833 C 7.02 g/m*3 10.36 C 3.86667 km/h
2374 09-04-2014 21:00:00 9.15 C 6.95 g/m*3 9.15 C 3.06667 km/h
2375 09-04-2014 22:00:00 9 C 6.92 g/m*3 9 C 2.26667 km/h
Sensor: Nr:Datum:Temp:Abs-Feuchte:Windchill:Wind:
Aussen-T/F 2376 09-04-2014 23:00:00 8.56667 C 6.77 g/m*3 8.57 C 2 km/h
2377 10-04-2014 00:00:00 9.05833 C 6.74 g/m*3 8.54 C 5.48333 km/h
2378 10-04-2014 01:00:00 8.23333 C 6.68 g/m*3 8.23 C 4.55833 km/h
2379 10-04-2014 02:00:00 7.93333 C 6.75 g/m*3 7.93 C 2.94167 km/h
2380 10-04-2014 03:00:00 8.29167 C 6.87 g/m*3 8.29 C 1.2 km/h
2381 10-04-2014 04:00:00 7.925 C 6.84 g/m*3 7.93 C 0.53333 km/h
2382 10-04-2014 05:00:00 7.13333 C 6.73 g/m*3 7.13 C 1.2 km/h
2383 10-04-2014 06:00:00 6.48333 C 6.62 g/m*3 6.48 C 0.26667 km/h
2384 10-04-2014 07:00:00 6.50833 C 6.73 g/m*3 6.51 C 0.93333 km/h
2385 10-04-2014 08:00:00 7.35556 C 6.93 g/m*3 6.15 C 6.98889 km/h
2386 10-04-2014 09:00:00 8.65 C 7.67 g/m*3 7.59 C 7.25 km/h
2387 10-04-2014 10:00:00 9.85556 C 7.38 g/m*3 9.86 C 4.11111 km/h
2388 10-04-2014 13:00:00 16.3 C 8.42 g/m*3 16.3 C 6.43333 km/h
2389 10-04-2014 14:00:00 17.6 C 8.7 g/m*3 17.6 C 9.7 km/h
2390 10-04-2014 15:00:00 17.66 C 8.52 g/m*3 17.66 C 7.42 km/h
2391 10-04-2014 16:00:00 18.52 C 9.95 g/m*3 18.52 C 9.04 km/h
2392 10-04-2014 17:00:00 17.91667 C 8.48 g/m*3 17.92 C 8.08333 km/h
2393 10-04-2014 18:00:00 16.5 C 8.31 g/m*3 16.5 C 8.18333 km/h
2394 10-04-2014 19:00:00 16.2 C 8.27 g/m*3 16.2 C 4.8 km/h
2395 11-04-2014 08:00:00 6.86 C 7.29 g/m*3 6.86 C 1.28 km/h
2396 11-04-2014 09:00:00 8.29167 C 8 g/m*3 8.29 C 0.13333 km/h
2397 11-04-2014 10:00:00 11.43333 C 8.82 g/m*3 11.43 C 0 km/h
2398 11-04-2014 11:00:00 15.75 C 9.06 g/m*3 15.75 C 9.7 km/h
2399 11-04-2014 12:00:00 16.90833 C 9.09 g/m*3 16.91 C 4 km/h
2400 11-04-2014 13:00:00 18.85556 C 9.21 g/m*3 18.86 C 5.7 km/h
Sensor: Nr:Datum:Temp:Abs-Feuchte:Windchill:Wind:
Aussen-T/F 2401 11-04-2014 14:00:00 18.53333 C 9.04 g/m*3 18.53 C 7.51667 km/h
2402 11-04-2014 16:00:00 19.54286 C 9.71 g/m*3 19.54 C 7.35714 km/h
2403 11-04-2014 17:00:00 18.01667 C 9.63 g/m*3 18.02 C 9.825 km/h
2404 11-04-2014 18:00:00 16.775 C 9.14 g/m*3 16.77 C 11.7 km/h
2405 11-04-2014 19:00:00 15.29167 C 9.16 g/m*3 15.29 C 8.48333 km/h
2406 11-04-2014 20:00:00 14.31667 C 8.94 g/m*3 14.32 C 6.15833 km/h
2407 11-04-2014 21:00:00 13.6 C 9 g/m*3 13.6 C 6.43333 km/h
2408 11-04-2014 22:00:00 12.85833 C 8.81 g/m*3 12.86 C 6.575 km/h
2409 11-04-2014 23:00:00 12.325 C 8.65 g/m*3 12.33 C 4.825 km/h
2410 12-04-2014 00:00:00 11.46667 C 8.45 g/m*3 11.47 C 3.2 km/h
2411 12-04-2014 01:00:00 10.175 C 8.26 g/m*3 10.18 C 1.86667 km/h
2412 12-04-2014 02:00:00 9.86667 C 8.14 g/m*3 9.87 C 0.66667 km/h
2413 12-04-2014 03:00:00 9.825 C 7.92 g/m*3 9.82 C 1.20833 km/h
2414 12-04-2014 04:00:00 9.85 C 7.77 g/m*3 9.85 C 1.33333 km/h
2415 12-04-2014 05:00:00 9.26667 C 7.75 g/m*3 9.27 C 0.4 km/h
2416 12-04-2014 06:00:00 9.21667 C 7.72 g/m*3 9.22 C 0.13333 km/h
2417 12-04-2014 07:00:00 9.09167 C 7.71 g/m*3 9.09 C 0.66667 km/h
2418 12-04-2014 08:00:00 9.375 C 7.63 g/m*3 9.38 C 2.13333 km/h
2419 12-04-2014 09:00:00 10.05833 C 7.75 g/m*3 10.06 C 3.06667 km/h
2420 12-04-2014 10:00:00 11.45833 C 8.16 g/m*3 11.46 C 5.20833 km/h
2421 12-04-2014 11:00:00 12.66667 C 8.36 g/m*3 12.67 C 6.825 km/h
2422 12-04-2014 12:00:00 13.96667 C 8.63 g/m*3 13.97 C 5.88333 km/h
2423 12-04-2014 13:00:00 16.03333 C 8.67 g/m*3 16.03 C 6.98333 km/h
2424 12-04-2014 14:00:00 16.95833 C 7.93 g/m*3 16.96 C 9.26667 km/h
2425 12-04-2014 15:00:00 17.55 C 7.8 g/m*3 17.55 C 9.15 km/h
Sensor: Nr:Datum:Temp:Abs-Feuchte:Windchill:Wind:
Aussen-T/F 2426 12-04-2014 16:00:00 18.20833 C 6.97 g/m*3 18.21 C 8.05 km/h
2427 12-04-2014 17:00:00 17.225 C 6.95 g/m*3 17.23 C 10.09167 km/h
2428 12-04-2014 18:00:00 15.78333 C 7.02 g/m*3 15.78 C 8.06667 km/h
2429 12-04-2014 19:00:00 15.16667 C 6.91 g/m*3 15.17 C 7.88889 km/h
2430 12-04-2014 20:00:00 14.08333 C 6.75 g/m*3 14.08 C 5.35 km/h
2431 12-04-2014 21:00:00 13.28333 C 7.11 g/m*3 13.28 C 2.93333 km/h
2432 12-04-2014 22:00:00 11.95 C 7.15 g/m*3 11.95 C 0.66667 km/h
2433 12-04-2014 23:00:00 11.79167 C 7.01 g/m*3 11.79 C 1.33333 km/h
2434 13-04-2014 00:00:00 11.44167 C 7.25 g/m*3 11.44 C 0.4 km/h
2435 13-04-2014 01:00:00 11.075 C 7.36 g/m*3 11.08 C 1.86667 km/h
2436 13-04-2014 02:00:00 10.81667 C 7.33 g/m*3 10.82 C 1.33333 km/h
2437 13-04-2014 03:00:00 9.96667 C 7.27 g/m*3 9.97 C 0.93333 km/h
2438 13-04-2014 04:00:00 9.69167 C 7.25 g/m*3 9.69 C 0.8 km/h
2439 13-04-2014 05:00:00 8.63333 C 7.03 g/m*3 8.63 C 0.8 km/h
2440 13-04-2014 06:00:00 7.41667 C 6.82 g/m*3 7.42 C 0.8 km/h
2441 13-04-2014 07:00:00 6.75833 C 6.71 g/m*3 6.76 C 0.53333 km/h
2442 13-04-2014 08:00:00 7.3 C 6.97 g/m*3 7.3 C 1.06667 km/h
2443 13-04-2014 09:00:00 9.475 C 7.35 g/m*3 9.48 C 2.8 km/h
2444 13-04-2014 10:00:00 11 C 7.42 g/m*3 11 C 2.93333 km/h
2445 13-04-2014 11:00:00 12.75833 C 7.5 g/m*3 12.76 C 5.76667 km/h
2446 13-04-2014 12:00:00 14.14444 C 7.57 g/m*3 14.14 C 6.43333 km/h
2447 13-04-2014 13:00:00 14.65455 C 7.81 g/m*3 14.65 C 8.2 km/h
2448 13-04-2014 14:00:00 14.675 C 7.98 g/m*3 14.68 C 6.16667 km/h
2449 13-04-2014 15:00:00 14.9 C 7.97 g/m*3 14.9 C 11.00833 km/h
2450 13-04-2014 16:00:00 14.93333 C 7.91 g/m*3 14.93 C 9.14167 km/h
Sensor: Nr:Datum:Temp:Abs-Feuchte:Windchill:Wind:
Aussen-T/F 2451 13-04-2014 17:00:00 15.01667 C 7.35 g/m*3 15.02 C 10.09167 km/h
2452 13-04-2014 18:00:00 15.1 C 7.03 g/m*3 15.1 C 9.675 km/h
2453 13-04-2014 19:00:00 13.84167 C 6.98 g/m*3 13.84 C 8.6 km/h
2454 13-04-2014 20:00:00 13 C 7.29 g/m*3 13 C 3.60833 km/h
2455 13-04-2014 21:00:00 11.98333 C 7.35 g/m*3 11.98 C 2 km/h
2456 13-04-2014 22:00:00 11.10833 C 7.2 g/m*3 11.11 C 3.6 km/h
2457 13-04-2014 23:00:00 9.75833 C 7.02 g/m*3 9.76 C 3.06667 km/h
2458 14-04-2014 00:00:00 8.85833 C 6.92 g/m*3 8.86 C 3.2 km/h
2459 14-04-2014 01:00:00 9.30833 C 6.96 g/m*3 8.9 C 5.21667 km/h
2460 14-04-2014 02:00:00 8.825 C 6.92 g/m*3 8.82 C 2.66667 km/h
2461 14-04-2014 03:00:00 7.375 C 6.72 g/m*3 7.38 C 4.7 km/h
2462 14-04-2014 04:00:00 7.575 C 6.74 g/m*3 5.82 C 9.55 km/h
2463 14-04-2014 05:00:00 7.875 C 6.79 g/m*3 6.2 C 9.43333 km/h
2464 14-04-2014 06:00:00 8.43333 C 6.89 g/m*3 7.12 C 8.19167 km/h
2465 14-04-2014 07:00:00 8.60833 C 6.97 g/m*3 7.75 C 6.45 km/h
2466 14-04-2014 08:00:00 8.85 C 7.11 g/m*3 7.47 C 8.88333 km/h
2467 14-04-2014 09:00:00 9.825 C 7.05 g/m*3 8.68 C 8.6 km/h
2468 14-04-2014 10:00:00 10.49167 C 6.66 g/m*3 8.33 C 16.64167 km/h
2469 14-04-2014 11:00:00 9.94167 C 6.9 g/m*3 8.46 C 10.60833 km/h
2470 14-04-2014 12:00:00 11.4 C 6.34 g/m*3 11.4 C 16.36667 km/h
2471 14-04-2014 13:00:00 12.83333 C 6.07 g/m*3 12.83 C 17.03333 km/h
2472 14-04-2014 14:00:00 13.39167 C 5.99 g/m*3 13.39 C 21.58333 km/h
2473 14-04-2014 15:00:00 13.20833 C 5.96 g/m*3 13.21 C 22.8 km/h
2474 14-04-2014 16:00:00 12.89167 C 6.4 g/m*3 12.89 C 19.05 km/h
2475 14-04-2014 17:00:00 13.31667 C 6.05 g/m*3 13.32 C 18.63333 km/h
Sensor: Nr:Datum:Temp:Abs-Feuchte:Windchill:Wind:
Aussen-T/F 2476 14-04-2014 18:00:00 12.76667 C 5.76 g/m*3 12.77 C 18.76667 km/h
2477 14-04-2014 19:00:00 11.6 C 5.45 g/m*3 11.6 C 19.70833 km/h
2478 14-04-2014 20:00:00 7.96667 C 6.32 g/m*3 5.95 C 11.4 km/h
2479 14-04-2014 21:00:00 6.58889 C 6.34 g/m*3 5.32 C 6.78889 km/h
2480 14-04-2014 22:00:00 5.9 C 6.07 g/m*3 4.8 C 5.88333 km/h
2481 14-04-2014 23:00:00 5.6 C 6.15 g/m*3 5.6 C 2.26667 km/h
2482 15-04-2014 00:00:00 6.11667 C 6.18 g/m*3 5 C 6.03333 km/h
2483 15-04-2014 01:00:00 5.65833 C 5.95 g/m*3 4.38 C 6.30833 km/h
2484 15-04-2014 02:00:00 5.025 C 5.75 g/m*3 5.03 C 4.95 km/h
2485 15-04-2014 03:00:00 4.64444 C 5.72 g/m*3 4.64 C 1.95556 km/h
2486 15-04-2014 04:00:00 4.04167 C 5.62 g/m*3 4.04 C 2.8 km/h
2487 15-04-2014 05:00:00 3.91667 C 5.62 g/m*3 3.92 C 4.275 km/h
2488 15-04-2014 06:00:00 4.125 C 5.69 g/m*3 4.13 C 2.54167 km/h
2489 15-04-2014 07:00:00 4.01667 C 5.66 g/m*3 4.02 C 4.95833 km/h
2490 15-04-2014 08:00:00 4.9 C 5.84 g/m*3 2.62 C 9.65 km/h
2491 15-04-2014 09:00:00 6.175 C 6.01 g/m*3 3.76 C 11.56667 km/h
2492 15-04-2014 10:00:00 7.16667 C 5.82 g/m*3 5.03 C 11.16667 km/h
2493 15-04-2014 11:00:00 7.175 C 5.59 g/m*3 5.11 C 10.76667 km/h
2494 15-04-2014 12:00:00 7.99167 C 5.41 g/m*3 6.14 C 10.48333 km/h
2495 15-04-2014 13:00:00 9.2 C 5.31 g/m*3 7.66 C 10.08333 km/h
2496 15-04-2014 14:00:00 9.4 C 5.26 g/m*3 7.72 C 11.15833 km/h
2497 15-04-2014 15:00:00 9.44167 C 5.17 g/m*3 7.75 C 11.3 km/h
2498 15-04-2014 16:00:00 9.55833 C 5.22 g/m*3 8.34 C 8.73333 km/h
2499 15-04-2014 17:00:00 10.09167 C 5.21 g/m*3 8.28 C 13.03333 km/h
2500 15-04-2014 18:00:00 10.56667 C 5.87 g/m*3 9 C 12.01111 km/h
Sensor: Nr:Datum:Temp:Abs-Feuchte:Windchill:Wind:
Aussen-T/F 2501 15-04-2014 19:00:00 9.64167 C 7.02 g/m*3 9.32 C 5.09167 km/h
2502 15-04-2014 20:00:00 9.02 C 5.42 g/m*3 9.02 C 3.86 km/h
2503 16-04-2014 11:00:00 9.8 C 5.98 g/m*3 9.13 C 6.45 km/h
2504 16-04-2014 12:00:00 11.3 C 5.57 g/m*3 11.3 C 8.86667 km/h
2505 16-04-2014 13:00:00 13.9 C 5.52 g/m*3 13.9 C 9.54167 km/h
2506 16-04-2014 14:00:00 15.10833 C 5.45 g/m*3 15.11 C 10.21667 km/h
2507 16-04-2014 15:00:00 15.9 C 5.46 g/m*3 15.9 C 9.275 km/h
2508 16-04-2014 16:00:00 16.69167 C 5.29 g/m*3 16.69 C 9.80833 km/h
2509 16-04-2014 17:00:00 16.81667 C 5.26 g/m*3 16.82 C 11.16667 km/h
2510 16-04-2014 18:00:00 16.64167 C 5.16 g/m*3 16.64 C 9.00833 km/h
2511 16-04-2014 19:00:00 15.75 C 5.21 g/m*3 15.75 C 6.70833 km/h
2512 16-04-2014 20:00:00 11.13333 C 5.67 g/m*3 11.13 C 4 km/h
2513 16-04-2014 21:00:00 8.55 C 5.44 g/m*3 8.09 C 5.06667 km/h
2514 16-04-2014 22:00:00 7.675 C 5.45 g/m*3 7.68 C 4.66667 km/h
2515 16-04-2014 23:00:00 6.725 C 5.44 g/m*3 6.73 C 2.53333 km/h
2516 17-04-2014 00:00:00 5.65 C 5.33 g/m*3 5.65 C 0 km/h
2517 17-04-2014 01:00:00 4.85833 C 5.27 g/m*3 4.86 C 0 km/h
2518 17-04-2014 02:00:00 4.08333 C 5.17 g/m*3 4.08 C 0.4 km/h
2519 17-04-2014 03:00:00 3.4 C 5.24 g/m*3 3.4 C 0.4 km/h
2520 17-04-2014 04:00:00 2.60833 C 5.06 g/m*3 2.61 C 0 km/h
2521 17-04-2014 05:00:00 1.88333 C 4.92 g/m*3 1.88 C 0.13333 km/h
2522 17-04-2014 06:00:00 1.5 C 4.89 g/m*3 1.5 C 0 km/h
2523 17-04-2014 07:00:00 1.39167 C 4.9 g/m*3 1.39 C 0 km/h
2524 17-04-2014 08:00:00 2.10833 C 5.14 g/m*3 2.11 C 0 km/h
2525 17-04-2014 09:00:00 4.18333 C 5.6 g/m*3 4.18 C 0.26667 km/h
Sensor: Nr:Datum:Temp:Abs-Feuchte:Windchill:Wind:
Aussen-T/F 2526 17-04-2014 10:00:00 7.04167 C 6.11 g/m*3 7.04 C 0.53333 km/h
2527 17-04-2014 11:00:00 10.525 C 5.93 g/m*3 10.53 C 4.84167 km/h
2528 17-04-2014 12:00:00 13.66667 C 5.5 g/m*3 13.67 C 7.91667 km/h
2529 17-04-2014 13:00:00 15.53333 C 5.23 g/m*3 15.53 C 8.61667 km/h
2530 17-04-2014 14:00:00 16.15833 C 5.26 g/m*3 16.16 C 6.425 km/h
2531 17-04-2014 15:00:00 16.98333 C 5.41 g/m*3 16.98 C 6.15833 km/h
2532 17-04-2014 16:00:00 18.75833 C 5.48 g/m*3 18.76 C 10.2 km/h
2533 17-04-2014 17:00:00 19.475 C 5.21 g/m*3 19.48 C 9.825 km/h
2534 17-04-2014 18:00:00 19.54167 C 5.41 g/m*3 19.54 C 4.95833 km/h
2535 17-04-2014 19:00:00 16.58333 C 6.37 g/m*3 16.58 C 3.46667 km/h
2536 17-04-2014 20:00:00 12.6 C 6.32 g/m*3 12.6 C 3.46667 km/h
2537 17-04-2014 21:00:00 12.46667 C 5.97 g/m*3 12.47 C 2.66667 km/h
2538 17-04-2014 22:00:00 12.91667 C 5.71 g/m*3 12.92 C 3.2 km/h
2539 17-04-2014 23:00:00 12.55833 C 6.03 g/m*3 12.56 C 2.53333 km/h
2540 18-04-2014 00:00:00 11.76667 C 6.27 g/m*3 11.77 C 3.075 km/h
2541 18-04-2014 01:00:00 11.38333 C 7.25 g/m*3 11.38 C 5.09167 km/h
2542 18-04-2014 02:00:00 10.95 C 7.37 g/m*3 10.43 C 6.56667 km/h
2543 18-04-2014 03:00:00 11.55833 C 7.46 g/m*3 11.56 C 10.75 km/h
2544 18-04-2014 04:00:00 10.13333 C 7.71 g/m*3 8.69 C 10.61667 km/h
2545 18-04-2014 05:00:00 8.80833 C 7.54 g/m*3 7.72 C 7.51667 km/h
2546 18-04-2014 06:00:00 8.4 C 7.43 g/m*3 7.15 C 7.90833 km/h
2547 18-04-2014 07:00:00 8.38333 C 7.19 g/m*3 6.95 C 8.725 km/h
2548 18-04-2014 08:00:00 8.54167 C 6.86 g/m*3 6.53 C 12.09167 km/h
2549 18-04-2014 09:00:00 9.05833 C 6.36 g/m*3 6.8 C 14.63333 km/h
2550 18-04-2014 10:00:00 9.225 C 6.36 g/m*3 7.08 C 14.09167 km/h
Sensor: Nr:Datum:Temp:Abs-Feuchte:Windchill:Wind:
Aussen-T/F 2551 18-04-2014 11:00:00 9.49167 C 6.54 g/m*3 7.67 C 12.225 km/h
2552 18-04-2014 12:00:00 10.00833 C 6.63 g/m*3 8.13 C 13.425 km/h
2553 18-04-2014 13:00:00 12.375 C 6.14 g/m*3 12.38 C 15.03333 km/h
2554 18-04-2014 14:00:00 13.325 C 5.62 g/m*3 13.33 C 14.9 km/h
2555 18-04-2014 15:00:00 13.6 C 5.09 g/m*3 13.6 C 17.7 km/h
2556 18-04-2014 16:00:00 14.55 C 4.82 g/m*3 14.55 C 17.3 km/h
2557 18-04-2014 17:00:00 14.13333 C 4.85 g/m*3 14.13 C 17.16667 km/h
2558 18-04-2014 18:00:00 13.90833 C 4.9 g/m*3 13.91 C 14.9 km/h
2559 18-04-2014 19:00:00 13.19167 C 4.8 g/m*3 13.19 C 9.54167 km/h
2560 18-04-2014 20:00:00 10.21667 C 5.22 g/m*3 10.22 C 2.275 km/h
2561 18-04-2014 21:00:00 8.725 C 5.64 g/m*3 8.73 C 1.46667 km/h
2562 18-04-2014 22:00:00 8.20833 C 5.85 g/m*3 8.21 C 1.86667 km/h
2563 18-04-2014 23:00:00 7.35 C 6.01 g/m*3 7.35 C 1.33333 km/h
2564 19-04-2014 00:00:00 7.725 C 6.19 g/m*3 7.73 C 0 km/h
2565 19-04-2014 01:00:00 6.825 C 6.07 g/m*3 6.83 C 1.06667 km/h
2566 19-04-2014 02:00:00 5.83333 C 5.95 g/m*3 5.83 C 2.13333 km/h
2567 19-04-2014 03:00:00 5.14167 C 5.86 g/m*3 5.14 C 1.46667 km/h
2568 19-04-2014 04:00:00 5.16667 C 5.93 g/m*3 5.17 C 0.4 km/h
2569 19-04-2014 05:00:00 4.15833 C 5.69 g/m*3 4.16 C 0.4 km/h
2570 19-04-2014 06:00:00 4.08333 C 5.79 g/m*3 4.08 C 0 km/h
2571 19-04-2014 07:00:00 4.35833 C 5.93 g/m*3 4.36 C 0 km/h
2572 19-04-2014 08:00:00 4.95833 C 6.1 g/m*3 4.96 C 0.53333 km/h
2573 19-04-2014 09:00:00 6.06667 C 6.45 g/m*3 6.07 C 0.13333 km/h
2574 19-04-2014 10:00:00 8.76667 C 6.74 g/m*3 7.7 C 7.39167 km/h
2575 19-04-2014 11:00:00 10.48333 C 6.6 g/m*3 9.02 C 11.15833 km/h
Sensor: Nr:Datum:Temp:Abs-Feuchte:Windchill:Wind:
Aussen-T/F 2576 19-04-2014 12:00:00 11.96667 C 6.51 g/m*3 11.97 C 13.29167 km/h
2577 19-04-2014 13:00:00 14.75 C 6.8 g/m*3 14.75 C 14.23333 km/h
2578 19-04-2014 14:00:00 16.4 C 7.06 g/m*3 16.4 C 13.16667 km/h
2579 19-04-2014 15:00:00 17.75 C 7.15 g/m*3 17.75 C 17.3 km/h
2580 19-04-2014 16:00:00 18.675 C 7.77 g/m*3 18.68 C 15.43333 km/h
2581 19-04-2014 17:00:00 18.325 C 8.01 g/m*3 18.33 C 14.63333 km/h
2582 19-04-2014 18:00:00 17.90833 C 8.26 g/m*3 17.91 C 11.01667 km/h
2583 19-04-2014 19:00:00 17.09167 C 8.38 g/m*3 17.09 C 8.86667 km/h
2584 19-04-2014 20:00:00 14.75 C 8.49 g/m*3 14.75 C 2.53333 km/h
2585 19-04-2014 21:00:00 13.825 C 8.46 g/m*3 13.83 C 5.36667 km/h
2586 19-04-2014 22:00:00 12.74167 C 8.58 g/m*3 12.74 C 3.34167 km/h
2587 19-04-2014 23:00:00 11.94167 C 8.69 g/m*3 11.94 C 2.93333 km/h
2588 20-04-2014 00:00:00 11.43333 C 8.8 g/m*3 11.43 C 2.66667 km/h
2589 20-04-2014 01:00:00 11.35 C 8.96 g/m*3 11.35 C 2.26667 km/h
2590 20-04-2014 02:00:00 11.375 C 9.03 g/m*3 11.38 C 2.8 km/h
2591 20-04-2014 03:00:00 11.19167 C 9.06 g/m*3 11.19 C 2.93333 km/h
2592 20-04-2014 04:00:00 11.23333 C 9.08 g/m*3 11.23 C 2.4 km/h
2593 20-04-2014 05:00:00 11.025 C 8.98 g/m*3 11.03 C 2.53333 km/h
2594 20-04-2014 06:00:00 10.50833 C 8.9 g/m*3 10.51 C 2 km/h
2595 20-04-2014 07:00:00 10.43333 C 8.96 g/m*3 10.43 C 0.53333 km/h
2596 20-04-2014 08:00:00 11.18889 C 9.35 g/m*3 11.19 C 1.06667 km/h
2597 20-04-2014 09:00:00 12.6 C 9.72 g/m*3 12.6 C 2.80833 km/h
2598 20-04-2014 10:00:00 15.28333 C 9.63 g/m*3 15.28 C 7.91667 km/h
2599 20-04-2014 11:00:00 17.14167 C 9.55 g/m*3 17.14 C 9.13333 km/h
2600 20-04-2014 12:00:00 18.75833 C 9.08 g/m*3 18.76 C 10.09167 km/h
Sensor: Nr:Datum:Temp:Abs-Feuchte:Windchill:Wind:
Aussen-T/F 2601 20-04-2014 13:00:00 20.65 C 8.68 g/m*3 20.65 C 12.625 km/h
2602 20-04-2014 14:00:00 20.39167 C 8.31 g/m*3 20.39 C 10.20833 km/h
2603 20-04-2014 15:00:00 20.6 C 8.2 g/m*3 20.6 C 8.325 km/h
2604 20-04-2014 16:00:00 21.6 C 7.9 g/m*3 21.6 C 8.60833 km/h
2605 20-04-2014 17:00:00 21.86667 C 7.8 g/m*3 21.87 C 8.2 km/h
2606 20-04-2014 18:00:00 19.4 C 8.19 g/m*3 19.4 C 3.08333 km/h
2607 20-04-2014 19:00:00 16.3 C 8.51 g/m*3 16.3 C 2.53333 km/h
2608 20-04-2014 20:00:00 14.39167 C 7.97 g/m*3 14.39 C 4.4 km/h
2609 20-04-2014 21:00:00 13.40833 C 7.82 g/m*3 13.41 C 3.6 km/h
2610 20-04-2014 22:00:00 12.96667 C 7.88 g/m*3 12.97 C 2.53333 km/h
2611 20-04-2014 23:00:00 12.00833 C 7.84 g/m*3 12.01 C 2.53333 km/h
2612 21-04-2014 00:00:00 10.99167 C 7.64 g/m*3 10.99 C 1.6 km/h
2613 21-04-2014 01:00:00 10.09167 C 7.55 g/m*3 10.09 C 1.2 km/h
2614 21-04-2014 02:00:00 9.73333 C 7.43 g/m*3 9.73 C 2.13333 km/h
2615 21-04-2014 03:00:00 8.88333 C 7.31 g/m*3 8.88 C 1.06667 km/h
2616 21-04-2014 04:00:00 8.46667 C 7.25 g/m*3 8.47 C 0.26667 km/h
2617 21-04-2014 05:00:00 7.54167 C 7.07 g/m*3 7.54 C 0 km/h
2618 21-04-2014 06:00:00 6.76667 C 6.96 g/m*3 6.77 C 0.26667 km/h
2619 21-04-2014 07:00:00 6.45 C 6.94 g/m*3 6.45 C 0 km/h
2620 21-04-2014 08:00:00 7.125 C 7.34 g/m*3 7.13 C 0 km/h
2621 21-04-2014 09:00:00 9.025 C 8.12 g/m*3 9.03 C 0 km/h
2622 21-04-2014 10:00:00 11.71667 C 8.83 g/m*3 11.72 C 2.66667 km/h
2623 21-04-2014 11:00:00 15.35 C 8.73 g/m*3 15.35 C 5.075 km/h
2624 21-04-2014 12:00:00 17.86667 C 8.46 g/m*3 17.87 C 8.45833 km/h
2625 21-04-2014 13:00:00 19.8 C 8.45 g/m*3 19.8 C 6.96667 km/h
Sensor: Nr:Datum:Temp:Abs-Feuchte:Windchill:Wind:
Aussen-T/F 2626 21-04-2014 14:00:00 18.94167 C 9.34 g/m*3 18.94 C 8.18333 km/h
2627 21-04-2014 15:00:00 18.15833 C 10.47 g/m*3 18.16 C 5.35 km/h
2628 21-04-2014 16:00:00 19.575 C 9.31 g/m*3 19.58 C 8.325 km/h
2629 21-04-2014 17:00:00 20.69167 C 8.7 g/m*3 20.69 C 11.29167 km/h
2630 21-04-2014 18:00:00 17.23333 C 9.18 g/m*3 17.23 C 9.66667 km/h
2631 21-04-2014 19:00:00 13.68333 C 9.67 g/m*3 13.68 C 8.30833 km/h
2632 21-04-2014 20:00:00 11.16667 C 9.42 g/m*3 11.17 C 2.4 km/h
2633 21-04-2014 21:00:00 10.91667 C 9.45 g/m*3 10.92 C 0.26667 km/h
2634 21-04-2014 22:00:00 10.14167 C 9.05 g/m*3 10.14 C 0.8 km/h
2635 21-04-2014 23:00:00 9.55833 C 8.77 g/m*3 9.56 C 0.13333 km/h
2636 22-04-2014 00:00:00 8.925 C 8.43 g/m*3 8.93 C 0.13333 km/h
2637 22-04-2014 01:00:00 8.79167 C 8.42 g/m*3 8.79 C 0.66667 km/h
2638 22-04-2014 02:00:00 8.81667 C 8.45 g/m*3 8.82 C 0.4 km/h
2639 22-04-2014 03:00:00 8.575 C 8.32 g/m*3 8.57 C 0 km/h
2640 22-04-2014 04:00:00 8.30833 C 8.18 g/m*3 8.31 C 0.26667 km/h
2641 22-04-2014 05:00:00 8.68333 C 8.42 g/m*3 8.68 C 2.14167 km/h
2642 22-04-2014 06:00:00 8.69167 C 8.38 g/m*3 8.69 C 0.26667 km/h
2643 22-04-2014 07:00:00 9.13333 C 8.69 g/m*3 9.13 C 0 km/h
2644 22-04-2014 08:00:00 10.125 C 9.27 g/m*3 10.13 C 3.075 km/h
2645 22-04-2014 09:00:00 11.05833 C 9.5 g/m*3 11.06 C 9.40833 km/h
2646 22-04-2014 10:00:00 12.68333 C 9.69 g/m*3 12.68 C 11.025 km/h
2647 22-04-2014 11:00:00 13.48333 C 9.77 g/m*3 13.48 C 7.375 km/h
2648 22-04-2014 12:00:00 14.11667 C 9.92 g/m*3 14.12 C 6.30833 km/h
2649 22-04-2014 13:00:00 15.80833 C 10.57 g/m*3 15.81 C 4.95 km/h
2650 22-04-2014 14:00:00 17.46667 C 10.54 g/m*3 17.47 C 4.95 km/h
Sensor: Nr:Datum:Temp:Abs-Feuchte:Windchill:Wind:
Aussen-T/F 2651 22-04-2014 15:00:00 17.91667 C 10.52 g/m*3 17.92 C 5.625 km/h
2652 22-04-2014 16:00:00 18.51667 C 10.58 g/m*3 18.52 C 4.95833 km/h
2653 22-04-2014 17:00:00 18.85 C 10.61 g/m*3 18.85 C 5.35 km/h
2654 22-04-2014 18:00:00 19.23333 C 10.27 g/m*3 19.23 C 6.44167 km/h
2655 22-04-2014 19:00:00 18.55833 C 10.44 g/m*3 18.56 C 3.73333 km/h
2656 22-04-2014 20:00:00 14.325 C 10.36 g/m*3 14.33 C 4.4 km/h
2657 22-04-2014 21:00:00 12.59167 C 9.78 g/m*3 12.59 C 1.33333 km/h
2658 22-04-2014 22:00:00 12.05833 C 9.63 g/m*3 12.06 C 2.4 km/h
2659 22-04-2014 23:00:00 11.16667 C 9.35 g/m*3 11.17 C 0 km/h
2660 23-04-2014 00:00:00 10.3 C 8.99 g/m*3 10.3 C 0 km/h
2661 23-04-2014 01:00:00 9.64167 C 8.72 g/m*3 9.64 C 0 km/h
2662 23-04-2014 02:00:00 9.01667 C 8.41 g/m*3 9.02 C 0 km/h
2663 23-04-2014 03:00:00 8.41667 C 8.15 g/m*3 8.42 C 0 km/h
2664 23-04-2014 04:00:00 7.74167 C 7.81 g/m*3 7.74 C 0 km/h
2665 23-04-2014 05:00:00 7.40833 C 7.64 g/m*3 7.41 C 0 km/h
2666 23-04-2014 06:00:00 7.29167 C 7.63 g/m*3 7.29 C 0 km/h
2667 23-04-2014 07:00:00 7.625 C 7.83 g/m*3 7.63 C 0.66667 km/h
2668 23-04-2014 08:00:00 8.11667 C 8.08 g/m*3 8.12 C 0 km/h
2669 23-04-2014 09:00:00 9.75833 C 8.96 g/m*3 9.76 C 0.66667 km/h
2670 23-04-2014 10:00:00 11.53333 C 9.77 g/m*3 11.53 C 0.13333 km/h
2671 23-04-2014 11:00:00 14.34167 C 10.78 g/m*3 14.34 C 0.26667 km/h
2672 23-04-2014 12:00:00 15.90833 C 11.73 g/m*3 15.91 C 0.93333 km/h
2673 23-04-2014 13:00:00 18.74167 C 10.98 g/m*3 18.74 C 3.88333 km/h
2674 23-04-2014 14:00:00 19.14167 C 11.15 g/m*3 19.14 C 1.875 km/h
2675 23-04-2014 15:00:00 19.55 C 10.49 g/m*3 19.55 C 4.13333 km/h
Sensor: Nr:Datum:Temp:Abs-Feuchte:Windchill:Wind:
Aussen-T/F 2676 23-04-2014 16:00:00 21.05 C 9.02 g/m*3 21.05 C 6.025 km/h
2677 23-04-2014 17:00:00 22.55 C 8.71 g/m*3 22.55 C 7.64167 km/h
2678 23-04-2014 18:00:00 22.175 C 9.02 g/m*3 22.18 C 5.75 km/h
2679 23-04-2014 19:00:00 19.95833 C 9.78 g/m*3 19.96 C 3.75 km/h
2680 23-04-2014 20:00:00 15.60833 C 10 g/m*3 15.61 C 2.53333 km/h
2681 23-04-2014 21:00:00 13.31667 C 9.23 g/m*3 13.32 C 1.2 km/h
2682 23-04-2014 22:00:00 12.1 C 9.05 g/m*3 12.1 C 0 km/h
2683 23-04-2014 23:00:00 11.25833 C 8.85 g/m*3 11.26 C 0 km/h
2684 24-04-2014 00:00:00 10.83333 C 8.91 g/m*3 10.83 C 0 km/h
2685 24-04-2014 01:00:00 10.96667 C 8.99 g/m*3 10.97 C 0 km/h
2686 24-04-2014 02:00:00 10.58333 C 8.82 g/m*3 10.58 C 0 km/h
2687 24-04-2014 03:00:00 10.04167 C 8.68 g/m*3 10.04 C 0 km/h
2688 24-04-2014 04:00:00 10.23333 C 8.88 g/m*3 10.23 C 0 km/h
2689 24-04-2014 05:00:00 10.25833 C 8.99 g/m*3 10.26 C 0 km/h
2690 24-04-2014 06:00:00 10.49167 C 9.21 g/m*3 10.49 C 0.13333 km/h
2691 24-04-2014 07:00:00 10.7 C 9.42 g/m*3 10.7 C 0.13333 km/h
2692 24-04-2014 08:00:00 11.20833 C 9.74 g/m*3 11.21 C 0 km/h
2693 24-04-2014 09:00:00 12.48333 C 10.48 g/m*3 12.48 C 0.13333 km/h
2694 24-04-2014 10:00:00 14.45833 C 11.12 g/m*3 14.46 C 0.26667 km/h
2695 24-04-2014 11:00:00 16.79167 C 11.9 g/m*3 16.79 C 2.93333 km/h
2696 24-04-2014 12:00:00 19.06667 C 12.67 g/m*3 19.07 C 3.86667 km/h
2697 24-04-2014 13:00:00 22.275 C 12.73 g/m*3 22.28 C 4.675 km/h
2698 24-04-2014 14:00:00 23.28333 C 10.22 g/m*3 23.28 C 8.06667 km/h
2699 24-04-2014 15:00:00 23.49167 C 9.86 g/m*3 23.49 C 6.575 km/h
2700 24-04-2014 16:00:00 24.73333 C 9.51 g/m*3 24.73 C 10.475 km/h
Sensor: Nr:Datum:Temp:Abs-Feuchte:Windchill:Wind:
Aussen-T/F 2701 24-04-2014 17:00:00 23.71667 C 9.62 g/m*3 23.72 C 5.21667 km/h
2702 24-04-2014 18:00:00 20.55833 C 10.36 g/m*3 20.56 C 7.24167 km/h
2703 24-04-2014 19:00:00 17.89167 C 11.08 g/m*3 17.89 C 1.06667 km/h
2704 24-04-2014 20:00:00 15.88333 C 10.63 g/m*3 15.88 C 0.53333 km/h
2705 24-04-2014 21:00:00 14.4 C 10.17 g/m*3 14.4 C 1.6 km/h
2706 24-04-2014 22:00:00 13.4 C 9.96 g/m*3 13.4 C 0.13333 km/h
2707 24-04-2014 23:00:00 12.45833 C 9.81 g/m*3 12.46 C 0 km/h
2708 25-04-2014 00:00:00 11.80833 C 9.67 g/m*3 11.81 C 0 km/h
2709 25-04-2014 01:00:00 11.45833 C 9.56 g/m*3 11.46 C 0 km/h
2710 25-04-2014 02:00:00 11.1 C 9.35 g/m*3 11.1 C 0 km/h
2711 25-04-2014 03:00:00 10.69167 C 9.17 g/m*3 10.69 C 0 km/h
2712 25-04-2014 04:00:00 10.925 C 9.31 g/m*3 10.93 C 0 km/h
2713 25-04-2014 05:00:00 11.03333 C 9.35 g/m*3 11.03 C 0.13333 km/h
2714 25-04-2014 06:00:00 10.54167 C 9.18 g/m*3 10.54 C 0 km/h
2715 25-04-2014 07:00:00 10.70833 C 9.39 g/m*3 10.71 C 0 km/h
2716 25-04-2014 08:00:00 11.95833 C 10.11 g/m*3 11.96 C 1.6 km/h
2717 25-04-2014 09:00:00 13.86667 C 10.68 g/m*3 13.87 C 3.33333 km/h
2718 25-04-2014 10:00:00 16.21667 C 11.03 g/m*3 16.22 C 9.01667 km/h
2719 25-04-2014 11:00:00 18.75833 C 11.47 g/m*3 18.76 C 7.925 km/h
2720 25-04-2014 12:00:00 21.04167 C 11.43 g/m*3 21.04 C 9.95 km/h
2721 25-04-2014 13:00:00 22.96667 C 11.21 g/m*3 22.97 C 9.7 km/h
2722 25-04-2014 14:00:00 23.475 C 11.12 g/m*3 23.48 C 7.40833 km/h
2723 25-04-2014 15:00:00 23.99167 C 10.62 g/m*3 23.99 C 5.90833 km/h
2724 25-04-2014 16:00:00 26.625 C 9.39 g/m*3 26.63 C 7.25 km/h
2725 25-04-2014 17:00:00 26.08333 C 8.09 g/m*3 26.08 C 6.58333 km/h
Sensor: Nr:Datum:Temp:Abs-Feuchte:Windchill:Wind:
Aussen-T/F 2726 25-04-2014 18:00:00 21.55833 C 10.91 g/m*3 21.56 C 1.73333 km/h
2727 25-04-2014 19:00:00 19.58333 C 10.81 g/m*3 19.58 C 2.8 km/h
2728 25-04-2014 20:00:00 18.575 C 10.49 g/m*3 18.58 C 2.53333 km/h
2729 25-04-2014 21:00:00 17.525 C 10.15 g/m*3 17.52 C 2.26667 km/h
2730 25-04-2014 22:00:00 15.98333 C 10.09 g/m*3 15.98 C 0.53333 km/h
2731 25-04-2014 23:00:00 14.7 C 9.75 g/m*3 14.7 C 2 km/h
2732 26-04-2014 00:00:00 14.85833 C 9.94 g/m*3 14.86 C 1.73333 km/h
2733 26-04-2014 01:00:00 14.475 C 9.91 g/m*3 14.48 C 5.1 km/h
2734 26-04-2014 02:00:00 14.45 C 9.95 g/m*3 14.45 C 4.275 km/h
2735 26-04-2014 03:00:00 13.43333 C 9.78 g/m*3 13.43 C 0.53333 km/h
2736 26-04-2014 04:00:00 12.75833 C 9.65 g/m*3 12.76 C 0.26667 km/h
2737 26-04-2014 05:00:00 12.73333 C 9.6 g/m*3 12.73 C 0.4 km/h
2738 26-04-2014 06:00:00 11.975 C 9.43 g/m*3 11.98 C 0 km/h
2739 26-04-2014 07:00:00 12.23333 C 9.61 g/m*3 12.23 C 0 km/h
2740 26-04-2014 08:00:00 12.96667 C 9.71 g/m*3 12.97 C 2.26667 km/h
2741 26-04-2014 09:00:00 13.95 C 9.91 g/m*3 13.95 C 2.53333 km/h
2742 26-04-2014 10:00:00 15.3 C 9.98 g/m*3 15.3 C 3.33333 km/h
2743 26-04-2014 11:00:00 16.625 C 9.87 g/m*3 16.63 C 4.53333 km/h
2744 26-04-2014 12:00:00 18.125 C 9.23 g/m*3 18.13 C 3.86667 km/h
2745 26-04-2014 13:00:00 19.63333 C 9.67 g/m*3 19.63 C 4.8 km/h
2746 26-04-2014 14:00:00 20.16667 C 9.09 g/m*3 20.17 C 5.9 km/h
2747 26-04-2014 15:00:00 20.61667 C 8.15 g/m*3 20.62 C 8.86667 km/h
2748 26-04-2014 16:00:00 18.64167 C 8.46 g/m*3 18.64 C 3.46667 km/h
2749 26-04-2014 17:00:00 17.625 C 9.68 g/m*3 17.63 C 1.6 km/h
2750 26-04-2014 18:00:00 16.525 C 9.73 g/m*3 16.52 C 1.6 km/h
Sensor: Nr:Datum:Temp:Abs-Feuchte:Windchill:Wind:
Aussen-T/F 2751 26-04-2014 19:00:00 16.025 C 8.76 g/m*3 16.02 C 3.75 km/h
2752 26-04-2014 20:00:00 13.83333 C 9.54 g/m*3 13.83 C 1.73333 km/h
2753 26-04-2014 21:00:00 13.075 C 9.58 g/m*3 13.08 C 1.2 km/h
2754 26-04-2014 22:00:00 12.40833 C 9.74 g/m*3 12.41 C 0.4 km/h
2755 26-04-2014 23:00:00 12.36667 C 9.75 g/m*3 12.37 C 0.26667 km/h
2756 27-04-2014 00:00:00 12.78333 C 9.79 g/m*3 12.78 C 2.66667 km/h
2757 27-04-2014 01:00:00 12.79167 C 9.84 g/m*3 12.79 C 2.53333 km/h
2758 27-04-2014 02:00:00 12.51667 C 9.75 g/m*3 12.52 C 2.26667 km/h
2759 27-04-2014 03:00:00 12.3 C 9.84 g/m*3 12.3 C 0.53333 km/h
2760 27-04-2014 04:00:00 11.875 C 9.9 g/m*3 11.88 C 1.73333 km/h
2761 27-04-2014 05:00:00 11.46667 C 9.75 g/m*3 11.47 C 0.53333 km/h
2762 27-04-2014 06:00:00 11.15833 C 9.65 g/m*3 11.16 C 0 km/h
2763 27-04-2014 07:00:00 11.01667 C 9.62 g/m*3 11.02 C 0.4 km/h
2764 27-04-2014 08:00:00 10.93333 C 9.57 g/m*3 10.93 C 0.66667 km/h
2765 27-04-2014 09:00:00 11.23333 C 9.72 g/m*3 11.23 C 2.13333 km/h
2766 27-04-2014 10:00:00 11.95833 C 9.81 g/m*3 11.96 C 4.15 km/h
2767 27-04-2014 11:00:00 12.88333 C 9.93 g/m*3 12.88 C 4.40833 km/h
2768 27-04-2014 12:00:00 14.19167 C 9.98 g/m*3 14.19 C 8.06667 km/h
2769 27-04-2014 13:00:00 15.43333 C 9.45 g/m*3 15.43 C 10.09167 km/h
2770 27-04-2014 14:00:00 16.23333 C 8.69 g/m*3 16.23 C 9.95 km/h
2771 27-04-2014 15:00:00 15.70833 C 8.4 g/m*3 15.71 C 7.25 km/h
2772 27-04-2014 16:00:00 15.35 C 8.27 g/m*3 15.35 C 3.88333 km/h
2773 27-04-2014 17:00:00 15.75833 C 8.22 g/m*3 15.76 C 5.35 km/h
2774 27-04-2014 18:00:00 17.9 C 7.75 g/m*3 17.9 C 9.00833 km/h
2775 27-04-2014 19:00:00 16.90833 C 8.59 g/m*3 16.91 C 3.49167 km/h
Sensor: Nr:Datum:Temp:Abs-Feuchte:Windchill:Wind:
Aussen-T/F 2776 27-04-2014 20:00:00 13 C 9.16 g/m*3 13 C 2.13333 km/h
2777 27-04-2014 21:00:00 10.94167 C 8.54 g/m*3 10.94 C 0.93333 km/h
2778 27-04-2014 22:00:00 9.99167 C 8.17 g/m*3 9.99 C 0 km/h
2779 27-04-2014 23:00:00 9.50833 C 8.14 g/m*3 9.51 C 0 km/h
2780 28-04-2014 00:00:00 9.25 C 8.23 g/m*3 9.25 C 0.26667 km/h
2781 28-04-2014 01:00:00 9.36667 C 8.27 g/m*3 9.37 C 0.13333 km/h
2782 28-04-2014 02:00:00 9.15833 C 8.18 g/m*3 9.16 C 0 km/h
2783 28-04-2014 03:00:00 8.68333 C 8.03 g/m*3 8.68 C 0 km/h
2784 28-04-2014 04:00:00 8.38333 C 7.94 g/m*3 8.38 C 0 km/h
2785 28-04-2014 05:00:00 8.39167 C 7.97 g/m*3 8.39 C 0 km/h
2786 28-04-2014 06:00:00 8.375 C 8.02 g/m*3 8.38 C 0.4 km/h
2787 28-04-2014 07:00:00 9.03333 C 8.25 g/m*3 9.03 C 1.46667 km/h
2788 28-04-2014 08:00:00 10.01667 C 8.53 g/m*3 10.02 C 2.66667 km/h
2789 28-04-2014 09:00:00 11.275 C 8.86 g/m*3 11.28 C 5.61667 km/h
2790 28-04-2014 10:00:00 12.95 C 9 g/m*3 12.95 C 4.53333 km/h
2791 28-04-2014 11:00:00 14.8 C 9.07 g/m*3 14.8 C 3.46667 km/h
2792 28-04-2014 12:00:00 16.15833 C 9.34 g/m*3 16.16 C 4.94167 km/h
2793 28-04-2014 13:00:00 17.10833 C 8.86 g/m*3 17.11 C 4.80833 km/h
2794 28-04-2014 14:00:00 17.01667 C 8.38 g/m*3 17.02 C 3.075 km/h
2795 28-04-2014 15:00:00 16.89167 C 8.91 g/m*3 16.89 C 4.4 km/h
2796 28-04-2014 16:00:00 16.95 C 8.86 g/m*3 16.95 C 4.95 km/h
2797 28-04-2014 17:00:00 17.05833 C 8.8 g/m*3 17.06 C 4.4 km/h
2798 28-04-2014 18:00:00 16.69167 C 8.93 g/m*3 16.69 C 5.475 km/h
2799 28-04-2014 19:00:00 15.74167 C 9.56 g/m*3 15.74 C 3.06667 km/h
2800 28-04-2014 20:00:00 14.36667 C 9.7 g/m*3 14.37 C 0.4 km/h
Sensor: Nr:Datum:Temp:Abs-Feuchte:Windchill:Wind:
Aussen-T/F 2801 28-04-2014 21:00:00 13.48333 C 9.85 g/m*3 13.48 C 0 km/h
2802 28-04-2014 22:00:00 13.2 C 10.03 g/m*3 13.2 C 0 km/h
2803 28-04-2014 23:00:00 12.90833 C 10.02 g/m*3 12.91 C 0.13333 km/h
2804 29-04-2014 00:00:00 12.89167 C 10.13 g/m*3 12.89 C 0 km/h
2805 29-04-2014 01:00:00 12.825 C 10.14 g/m*3 12.83 C 0 km/h
2806 29-04-2014 02:00:00 12.65 C 10.08 g/m*3 12.65 C 0 km/h
2807 29-04-2014 03:00:00 12.46667 C 9.98 g/m*3 12.47 C 0 km/h
2808 29-04-2014 04:00:00 12.34167 C 9.99 g/m*3 12.34 C 0 km/h
2809 29-04-2014 05:00:00 12.275 C 9.89 g/m*3 12.28 C 0 km/h
2810 29-04-2014 06:00:00 12.35833 C 9.85 g/m*3 12.36 C 0.53333 km/h
2811 29-04-2014 07:00:00 12.20833 C 9.97 g/m*3 12.21 C 0 km/h
2812 29-04-2014 08:00:00 12.01667 C 10.13 g/m*3 12.02 C 0 km/h
2813 29-04-2014 09:00:00 12.225 C 10.38 g/m*3 12.23 C 0 km/h
2814 29-04-2014 10:00:00 12.625 C 10.56 g/m*3 12.63 C 3.6 km/h
2815 29-04-2014 11:00:00 13.15 C 10.69 g/m*3 13.15 C 2.8 km/h
2816 29-04-2014 12:00:00 14.06667 C 10.98 g/m*3 14.07 C 2.66667 km/h
2817 29-04-2014 13:00:00 14.71667 C 11.1 g/m*3 14.72 C 3.6 km/h
2818 29-04-2014 14:00:00 15.38333 C 11.32 g/m*3 15.38 C 3.86667 km/h
2819 29-04-2014 15:00:00 16.35833 C 11.27 g/m*3 16.36 C 5.48333 km/h
2820 29-04-2014 16:00:00 17 C 11.26 g/m*3 17 C 6.3 km/h
2821 29-04-2014 17:00:00 16.18333 C 10.71 g/m*3 16.18 C 4.95 km/h
2822 29-04-2014 18:00:00 14.775 C 10.92 g/m*3 14.78 C 1.88333 km/h
2823 29-04-2014 19:00:00 13.58333 C 10.79 g/m*3 13.58 C 0.53333 km/h
2824 29-04-2014 20:00:00 13.08333 C 10.64 g/m*3 13.08 C 0.4 km/h
2825 29-04-2014 21:00:00 12.58333 C 10.48 g/m*3 12.58 C 0 km/h
Sensor: Nr:Datum:Temp:Abs-Feuchte:Windchill:Wind:
Aussen-T/F 2826 29-04-2014 22:00:00 12.45 C 10.51 g/m*3 12.45 C 0 km/h
2827 29-04-2014 23:00:00 12.2 C 10.36 g/m*3 12.2 C 0 km/h
2828 30-04-2014 00:00:00 11.54167 C 9.94 g/m*3 11.54 C 0 km/h
2829 30-04-2014 01:00:00 10.74167 C 9.46 g/m*3 10.74 C 0 km/h
2830 30-04-2014 02:00:00 10.49167 C 9.4 g/m*3 10.49 C 0 km/h
2831 30-04-2014 03:00:00 11.06667 C 9.75 g/m*3 11.07 C 0.26667 km/h
2832 30-04-2014 04:00:00 11.15833 C 9.81 g/m*3 11.16 C 1.46667 km/h
2833 30-04-2014 05:00:00 11.20833 C 9.84 g/m*3 11.21 C 0.13333 km/h
2834 30-04-2014 06:00:00 11.28333 C 9.88 g/m*3 11.28 C 1.06667 km/h
2835 30-04-2014 07:00:00 11.13333 C 9.79 g/m*3 11.13 C 2 km/h
2836 30-04-2014 08:00:00 11.43333 C 9.87 g/m*3 11.43 C 2 km/h
2837 30-04-2014 09:00:00 11.94167 C 9.97 g/m*3 11.94 C 0.66667 km/h
2838 30-04-2014 10:00:00 13.09167 C 10.3 g/m*3 13.09 C 1.73333 km/h
2839 30-04-2014 11:00:00 14.075 C 10.52 g/m*3 14.08 C 3.06667 km/h
2840 30-04-2014 12:00:00 15.20833 C 10.74 g/m*3 15.21 C 3.06667 km/h
2841 30-04-2014 13:00:00 16.54167 C 11.14 g/m*3 16.54 C 4.00833 km/h
2842 30-04-2014 14:00:00 17.93333 C 11.36 g/m*3 17.93 C 5.625 km/h
2843 30-04-2014 15:00:00 18.93333 C 11.21 g/m*3 18.93 C 7.64167 km/h
2844 30-04-2014 16:00:00 20.19167 C 11.4 g/m*3 20.19 C 6.95833 km/h
2845 30-04-2014 17:00:00 20.925 C 10.73 g/m*3 20.93 C 6.15833 km/h
2846 30-04-2014 18:00:00 20.50833 C 10.55 g/m*3 20.51 C 6.15 km/h
2847 30-04-2014 19:00:00 19.425 C 10.71 g/m*3 19.43 C 4.81667 km/h
2848 30-04-2014 20:00:00 15.84167 C 11.03 g/m*3 15.84 C 1.2 km/h
2849 30-04-2014 21:00:00 15.175 C 10.81 g/m*3 15.18 C 1.46667 km/h
2850 30-04-2014 22:00:00 14.58333 C 10.81 g/m*3 14.58 C 1.33333 km/h
Sensor: Nr:Datum:Temp:Abs-Feuchte:Windchill:Wind:
Aussen-T/F 2851 30-04-2014 23:00:00 14.40833 C 10.96 g/m*3 14.41 C 0.4 km/h
2852 01-05-2014 00:00:00 13.65833 C 10.89 g/m*3 13.66 C 0.13333 km/h
2853 01-05-2014 01:00:00 13.13333 C 10.75 g/m*3 13.13 C 0 km/h
2854 01-05-2014 02:00:00 13.26667 C 10.82 g/m*3 13.27 C 0.26667 km/h
2855 01-05-2014 03:00:00 13.23333 C 10.72 g/m*3 13.23 C 0.66667 km/h
2856 01-05-2014 04:00:00 13.225 C 10.74 g/m*3 13.23 C 0.8 km/h
2857 01-05-2014 05:00:00 12.93333 C 10.62 g/m*3 12.93 C 0.13333 km/h
2858 01-05-2014 06:00:00 12.64167 C 10.51 g/m*3 12.64 C 0.53333 km/h
2859 01-05-2014 07:00:00 12.58333 C 10.51 g/m*3 12.58 C 0 km/h
2860 01-05-2014 08:00:00 13.28333 C 10.82 g/m*3 13.28 C 0.4 km/h
2861 01-05-2014 09:00:00 14.24167 C 10.35 g/m*3 14.24 C 1.33333 km/h
2862 01-05-2014 10:00:00 14.89167 C 9.27 g/m*3 14.89 C 5.76667 km/h
2863 01-05-2014 11:00:00 16.81667 C 9.49 g/m*3 16.82 C 7.10833 km/h
2864 01-05-2014 12:00:00 18.34167 C 9.27 g/m*3 18.34 C 5.75833 km/h
2865 01-05-2014 13:00:00 19.74167 C 9.12 g/m*3 19.74 C 6.3 km/h
2866 01-05-2014 14:00:00 20.06667 C 8.92 g/m*3 20.07 C 5.625 km/h
2867 01-05-2014 15:00:00 19.01667 C 9.18 g/m*3 19.02 C 3.33333 km/h
2868 01-05-2014 16:00:00 15.56667 C 10.33 g/m*3 15.57 C 4.66667 km/h
2869 01-05-2014 17:00:00 15.58333 C 10.22 g/m*3 15.58 C 4.00833 km/h
2870 01-05-2014 18:00:00 16.15833 C 10.21 g/m*3 16.16 C 4.41667 km/h
2871 01-05-2014 19:00:00 15.33333 C 10.38 g/m*3 15.33 C 0.13333 km/h
2872 01-05-2014 20:00:00 13.975 C 10.11 g/m*3 13.98 C 1.2 km/h
2873 01-05-2014 21:00:00 12.45 C 9.75 g/m*3 12.45 C 0.26667 km/h
2874 01-05-2014 22:00:00 11.85 C 9.64 g/m*3 11.85 C 0 km/h
2875 01-05-2014 23:00:00 11.675 C 9.6 g/m*3 11.68 C 0.26667 km/h
Sensor: Nr:Datum:Temp:Abs-Feuchte:Windchill:Wind:
Aussen-T/F 2876 02-05-2014 00:00:00 10.96667 C 9.26 g/m*3 10.97 C 0.26667 km/h
2877 02-05-2014 01:00:00 10.20833 C 8.89 g/m*3 10.21 C 0 km/h
2878 02-05-2014 02:00:00 9.625 C 8.71 g/m*3 9.63 C 1.33333 km/h
2879 02-05-2014 03:00:00 9.4 C 8.64 g/m*3 9.4 C 1.86667 km/h
2880 02-05-2014 04:00:00 9.10833 C 8.51 g/m*3 9.11 C 0.13333 km/h
2881 02-05-2014 05:00:00 9.20833 C 8.64 g/m*3 9.21 C 1.2 km/h
2882 02-05-2014 06:00:00 9.7 C 8.94 g/m*3 9.7 C 0 km/h
2883 02-05-2014 07:00:00 10.16667 C 9.21 g/m*3 10.17 C 0 km/h
2884 02-05-2014 08:00:00 11.05 C 9.65 g/m*3 11.05 C 1.6 km/h
2885 02-05-2014 09:00:00 12.26667 C 10.03 g/m*3 12.27 C 0.53333 km/h
2886 02-05-2014 10:00:00 13.075 C 10.18 g/m*3 13.08 C 3.60833 km/h
2887 02-05-2014 11:00:00 13.84167 C 10.26 g/m*3 13.84 C 5.875 km/h
2888 02-05-2014 12:00:00 14.39167 C 10.29 g/m*3 14.39 C 8.45833 km/h
2889 02-05-2014 13:00:00 13.85833 C 10.02 g/m*3 13.86 C 6.70833 km/h
2890 02-05-2014 14:00:00 14.18333 C 9.82 g/m*3 14.18 C 11.15 km/h
2891 02-05-2014 15:00:00 14.39167 C 9.47 g/m*3 14.39 C 9.29167 km/h
2892 02-05-2014 16:00:00 14.96667 C 9.31 g/m*3 14.97 C 15.29167 km/h
2893 02-05-2014 17:00:00 14.825 C 9.18 g/m*3 14.83 C 15.44167 km/h
2894 02-05-2014 18:00:00 13.20833 C 8.81 g/m*3 13.21 C 12.76667 km/h
2895 02-05-2014 19:00:00 12.075 C 8.49 g/m*3 12.08 C 12.9 km/h
2896 02-05-2014 20:00:00 11.15833 C 8.17 g/m*3 11.16 C 10.48333 km/h
2897 02-05-2014 21:00:00 10.36667 C 7.92 g/m*3 8.84 C 11.43333 km/h
2898 02-05-2014 22:00:00 9.78333 C 7.66 g/m*3 8.53 C 9.15 km/h
2899 02-05-2014 23:00:00 9.29167 C 7.35 g/m*3 8.05 C 8.60833 km/h
2900 03-05-2014 00:00:00 8.875 C 7.46 g/m*3 8.06 C 6.43333 km/h
Sensor: Nr:Datum:Temp:Abs-Feuchte:Windchill:Wind:
Aussen-T/F 2901 03-05-2014 01:00:00 8.46667 C 7.5 g/m*3 7.82 C 5.625 km/h
2902 03-05-2014 02:00:00 8.34167 C 7.27 g/m*3 7.07 C 7.93333 km/h
2903 03-05-2014 03:00:00 7.95 C 6.95 g/m*3 6.78 C 7.25833 km/h
2904 03-05-2014 04:00:00 7.825 C 6.51 g/m*3 6.34 C 8.48333 km/h
2905 03-05-2014 05:00:00 7.54167 C 6.41 g/m*3 6.1 C 8.075 km/h
2906 03-05-2014 06:00:00 7.08333 C 6.3 g/m*3 6.15 C 5.89167 km/h
2907 03-05-2014 07:00:00 7.31667 C 6.33 g/m*3 6.46 C 5.75 km/h
2908 03-05-2014 08:00:00 7.95 C 6.41 g/m*3 6.43 C 8.75 km/h
2909 03-05-2014 09:00:00 8.93333 C 6.35 g/m*3 7.63 C 8.59167 km/h
2910 03-05-2014 10:00:00 10.11667 C 6.23 g/m*3 8.6 C 11.03333 km/h
2911 03-05-2014 11:00:00 11.65 C 5.85 g/m*3 11.65 C 11.03333 km/h
2912 03-05-2014 12:00:00 12.94167 C 5.49 g/m*3 12.94 C 10.61667 km/h
2913 03-05-2014 13:00:00 13.68333 C 5.15 g/m*3 13.68 C 9.81667 km/h
2914 03-05-2014 14:00:00 14.64167 C 5.1 g/m*3 14.64 C 9.69167 km/h
2915 03-05-2014 15:00:00 15.46667 C 5.01 g/m*3 15.47 C 9.80833 km/h
2916 03-05-2014 16:00:00 16.60833 C 4.93 g/m*3 16.61 C 9.69167 km/h
2917 03-05-2014 17:00:00 16.73333 C 4.69 g/m*3 16.73 C 11.29167 km/h
2918 03-05-2014 18:00:00 16.76667 C 4.53 g/m*3 16.77 C 12.09167 km/h
2919 03-05-2014 19:00:00 15.375 C 4.5 g/m*3 15.38 C 11.3 km/h
2920 03-05-2014 20:00:00 13.21667 C 4.31 g/m*3 13.22 C 8.35 km/h
2921 03-05-2014 21:00:00 9.76667 C 5.05 g/m*3 9.77 C 1.33333 km/h
2922 03-05-2014 22:00:00 7.875 C 5.2 g/m*3 7.88 C 0.66667 km/h
2923 03-05-2014 23:00:00 7.125 C 5.31 g/m*3 7.13 C 0.66667 km/h
2924 04-05-2014 00:00:00 6.45 C 5.43 g/m*3 6.45 C 0.13333 km/h
2925 04-05-2014 01:00:00 5.175 C 5.29 g/m*3 5.18 C 0 km/h
Sensor: Nr:Datum:Temp:Abs-Feuchte:Windchill:Wind:
Aussen-T/F 2926 04-05-2014 02:00:00 4.20833 C 5.26 g/m*3 4.21 C 0 km/h
2927 04-05-2014 03:00:00 3.55 C 5.27 g/m*3 3.55 C 0 km/h
2928 04-05-2014 04:00:00 2.93333 C 5.21 g/m*3 2.93 C 0 km/h
2929 04-05-2014 05:00:00 2.34167 C 5.13 g/m*3 2.34 C 0.13333 km/h
2930 04-05-2014 06:00:00 1.99167 C 5.1 g/m*3 1.99 C 0.13333 km/h
2931 04-05-2014 07:00:00 2.18333 C 5.21 g/m*3 2.18 C 0.13333 km/h
2932 04-05-2014 08:00:00 3.38333 C 5.59 g/m*3 3.38 C 0.13333 km/h
2933 04-05-2014 09:00:00 5.65 C 6.22 g/m*3 5.65 C 0 km/h
2934 04-05-2014 10:00:00 8.4 C 6.52 g/m*3 8.4 C 1.46667 km/h
2935 04-05-2014 11:00:00 12.33333 C 6.74 g/m*3 12.33 C 3.86667 km/h
2936 04-05-2014 12:00:00 13.99167 C 6.31 g/m*3 13.99 C 7.23333 km/h
2937 04-05-2014 13:00:00 15.15833 C 6.15 g/m*3 15.16 C 6.7 km/h
2938 04-05-2014 14:00:00 16.475 C 6.32 g/m*3 16.48 C 8.86667 km/h
2939 04-05-2014 15:00:00 17.34167 C 6.31 g/m*3 17.34 C 7.24167 km/h
2940 04-05-2014 16:00:00 17.45 C 6.09 g/m*3 17.45 C 7.53333 km/h
2941 04-05-2014 17:00:00 17.525 C 5.92 g/m*3 17.52 C 9.15833 km/h
2942 04-05-2014 18:00:00 17.45 C 5.96 g/m*3 17.45 C 6.56667 km/h
2943 04-05-2014 19:00:00 16.35 C 6.03 g/m*3 16.35 C 4.4 km/h
2944 04-05-2014 20:00:00 11.9 C 6.95 g/m*3 11.9 C 0.26667 km/h
2945 04-05-2014 21:00:00 10.26667 C 6.64 g/m*3 10.27 C 0.66667 km/h
2946 04-05-2014 22:00:00 9.35 C 6.61 g/m*3 9.35 C 0.13333 km/h
2947 04-05-2014 23:00:00 8.79167 C 6.59 g/m*3 8.79 C 0 km/h
2948 05-05-2014 00:00:00 8.10833 C 6.42 g/m*3 8.11 C 0.26667 km/h
2949 05-05-2014 01:00:00 7.25833 C 6.32 g/m*3 7.26 C 0 km/h
2950 05-05-2014 02:00:00 6.48333 C 6.15 g/m*3 6.48 C 0 km/h
Sensor: Nr:Datum:Temp:Abs-Feuchte:Windchill:Wind:
Aussen-T/F 2951 05-05-2014 03:00:00 5.58333 C 6.11 g/m*3 5.58 C 0 km/h
2952 05-05-2014 04:00:00 5.1 C 6.1 g/m*3 5.1 C 0 km/h
2953 05-05-2014 05:00:00 4.60833 C 6.01 g/m*3 4.61 C 0 km/h
2954 05-05-2014 06:00:00 4.25 C 5.98 g/m*3 4.25 C 0 km/h
2955 05-05-2014 07:00:00 4.80833 C 6.25 g/m*3 4.81 C 0 km/h
2956 05-05-2014 08:00:00 6.175 C 6.68 g/m*3 6.18 C 0 km/h
2957 05-05-2014 09:00:00 7.8 C 7.16 g/m*3 7.8 C 0 km/h
2958 05-05-2014 10:00:00 10.05833 C 7.85 g/m*3 10.06 C 1.2 km/h
2959 05-05-2014 11:00:00 14.70833 C 7.78 g/m*3 14.71 C 4.93333 km/h
2960 05-05-2014 12:00:00 17.18333 C 7.77 g/m*3 17.18 C 4.13333 km/h
2961 05-05-2014 13:00:00 18.93333 C 7.86 g/m*3 18.93 C 5.89167 km/h
2962 05-05-2014 14:00:00 20.18333 C 7.73 g/m*3 20.18 C 6.15 km/h
2963 05-05-2014 15:00:00 20.975 C 7.7 g/m*3 20.98 C 5.60833 km/h
2964 05-05-2014 16:00:00 21.81667 C 7.33 g/m*3 21.82 C 7.525 km/h
2965 05-05-2014 17:00:00 22.21667 C 7.04 g/m*3 22.22 C 6.84167 km/h
2966 05-05-2014 18:00:00 21.79167 C 7.26 g/m*3 21.79 C 8.875 km/h
2967 05-05-2014 19:00:00 20.00833 C 7.48 g/m*3 20.01 C 4.13333 km/h
2968 05-05-2014 20:00:00 15.925 C 8.08 g/m*3 15.93 C 1.33333 km/h
2969 05-05-2014 21:00:00 13.4 C 7.74 g/m*3 13.4 C 1.73333 km/h
2970 05-05-2014 22:00:00 12.74167 C 7.62 g/m*3 12.74 C 1.86667 km/h
2971 05-05-2014 23:00:00 12.3 C 7.42 g/m*3 12.3 C 2 km/h
2972 06-05-2014 00:00:00 11.73333 C 7.22 g/m*3 11.73 C 0.93333 km/h
2973 06-05-2014 01:00:00 10.05833 C 6.96 g/m*3 10.06 C 0 km/h
2974 06-05-2014 02:00:00 8.775 C 6.97 g/m*3 8.78 C 0 km/h
2975 06-05-2014 03:00:00 7.86667 C 6.83 g/m*3 7.87 C 0 km/h
Sensor: Nr:Datum:Temp:Abs-Feuchte:Windchill:Wind:
Aussen-T/F 2976 06-05-2014 04:00:00 7.20833 C 6.8 g/m*3 7.21 C 0 km/h
2977 06-05-2014 05:00:00 7 C 6.89 g/m*3 7 C 0.13333 km/h
2978 06-05-2014 06:00:00 6.7 C 6.91 g/m*3 6.7 C 0 km/h
2979 06-05-2014 07:00:00 7.55 C 7.28 g/m*3 7.55 C 0.26667 km/h
2980 06-05-2014 08:00:00 9.56667 C 7.75 g/m*3 9.57 C 1.73333 km/h
2981 06-05-2014 09:00:00 12.09167 C 8.33 g/m*3 12.09 C 1.46667 km/h
2982 06-05-2014 10:00:00 13.95 C 8.77 g/m*3 13.95 C 1.73333 km/h
2983 06-05-2014 11:00:00 15.5 C 9.1 g/m*3 15.5 C 3.46667 km/h
2984 06-05-2014 12:00:00 16.83333 C 9.63 g/m*3 16.83 C 6.83333 km/h
2985 06-05-2014 13:00:00 17.4 C 9.36 g/m*3 17.4 C 14.75833 km/h
2986 06-05-2014 14:00:00 16.93333 C 10.44 g/m*3 16.93 C 4.68333 km/h
2987 06-05-2014 15:00:00 19.71667 C 10.31 g/m*3 19.72 C 13.275 km/h
2988 06-05-2014 16:00:00 19.45833 C 9.85 g/m*3 19.46 C 16.23333 km/h
2989 06-05-2014 17:00:00 19.60833 C 10.16 g/m*3 19.61 C 15.3 km/h
2990 06-05-2014 18:00:00 19.49167 C 10.05 g/m*3 19.49 C 11.29167 km/h
2991 06-05-2014 19:00:00 18.83333 C 10.27 g/m*3 18.83 C 5.50833 km/h
2992 06-05-2014 20:00:00 17.14167 C 10.39 g/m*3 17.14 C 1.6 km/h
2993 06-05-2014 21:00:00 16.2 C 10.58 g/m*3 16.2 C 4.29167 km/h
2994 06-05-2014 22:00:00 14.45 C 10.38 g/m*3 14.45 C 1.06667 km/h
2995 06-05-2014 23:00:00 15.23333 C 10.06 g/m*3 15.23 C 2.66667 km/h
2996 07-05-2014 00:00:00 14.51667 C 9.89 g/m*3 14.52 C 3.09167 km/h
2997 07-05-2014 01:00:00 13.49167 C 10.01 g/m*3 13.49 C 7.775 km/h
2998 07-05-2014 02:00:00 12.36667 C 9.92 g/m*3 12.37 C 4.54167 km/h
2999 07-05-2014 03:00:00 11.74167 C 9.75 g/m*3 11.74 C 3.06667 km/h
3000 07-05-2014 04:00:00 11.55833 C 9.72 g/m*3 11.56 C 2 km/h
Sensor: Nr:Datum:Temp:Abs-Feuchte:Windchill:Wind:
Aussen-T/F 3001 07-05-2014 05:00:00 11.31667 C 9.64 g/m*3 11.32 C 4.675 km/h
3002 07-05-2014 06:00:00 11.45 C 9.81 g/m*3 11.45 C 1.46667 km/h
3003 07-05-2014 07:00:00 11.81667 C 10.03 g/m*3 11.82 C 0.93333 km/h
3004 07-05-2014 08:00:00 12.25 C 9.91 g/m*3 12.25 C 4.81667 km/h
3005 07-05-2014 09:00:00 12.74167 C 9.36 g/m*3 12.74 C 7.79167 km/h
3006 07-05-2014 10:00:00 13.675 C 8.66 g/m*3 13.68 C 14.1 km/h
3007 07-05-2014 11:00:00 14.81667 C 8.53 g/m*3 14.82 C 12.63333 km/h
3008 07-05-2014 12:00:00 15.05833 C 8.58 g/m*3 15.06 C 11.425 km/h
3009 07-05-2014 13:00:00 15.29167 C 9.42 g/m*3 15.29 C 8.74167 km/h
3010 07-05-2014 14:00:00 15.125 C 9.88 g/m*3 15.13 C 7.375 km/h
3011 07-05-2014 15:00:00 14.78333 C 10.5 g/m*3 14.78 C 5.61667 km/h
3012 07-05-2014 16:00:00 14.81667 C 10.36 g/m*3 14.82 C 7.24167 km/h
3013 07-05-2014 17:00:00 12.525 C 9.78 g/m*3 12.53 C 2 km/h
3014 07-05-2014 18:00:00 14.93333 C 10.72 g/m*3 14.93 C 5.35833 km/h
3015 07-05-2014 19:00:00 14.325 C 10.15 g/m*3 14.33 C 5.23333 km/h
3016 07-05-2014 20:00:00 12.65833 C 9.62 g/m*3 12.66 C 5.89167 km/h
3017 07-05-2014 21:00:00 11.00833 C 9.01 g/m*3 11.01 C 3.33333 km/h
3018 07-05-2014 22:00:00 10.95 C 9.08 g/m*3 10.95 C 1.86667 km/h
3019 07-05-2014 23:00:00 10.16667 C 8.86 g/m*3 10.17 C 1.6 km/h
3020 08-05-2014 00:00:00 10.48333 C 9.1 g/m*3 10.48 C 0.26667 km/h
3021 08-05-2014 01:00:00 9.825 C 8.78 g/m*3 9.82 C 0.53333 km/h
3022 08-05-2014 02:00:00 9.45833 C 8.69 g/m*3 9.46 C 0.53333 km/h
3023 08-05-2014 03:00:00 9.08333 C 8.5 g/m*3 9.08 C 0 km/h
3024 08-05-2014 04:00:00 9.2 C 8.59 g/m*3 9.2 C 1.06667 km/h
3025 08-05-2014 05:00:00 9.94167 C 8.83 g/m*3 9.94 C 2.4 km/h
Sensor: Nr:Datum:Temp:Abs-Feuchte:Windchill:Wind:
Aussen-T/F 3026 08-05-2014 06:00:00 10.36667 C 8.66 g/m*3 10.37 C 3.74167 km/h
3027 08-05-2014 07:00:00 11.075 C 8.67 g/m*3 11.08 C 6.04167 km/h
3028 08-05-2014 08:00:00 11.96667 C 8.81 g/m*3 11.97 C 10.625 km/h
3029 08-05-2014 09:00:00 12.35833 C 8.73 g/m*3 12.36 C 8.06667 km/h
3030 08-05-2014 10:00:00 13.03333 C 8.8 g/m*3 13.03 C 10.88333 km/h
3031 08-05-2014 11:00:00 14.51667 C 8.81 g/m*3 14.52 C 15.56667 km/h
3032 08-05-2014 12:00:00 14.55833 C 8.86 g/m*3 14.56 C 10.89167 km/h
3033 08-05-2014 13:00:00 15.50833 C 8.84 g/m*3 15.51 C 13.83333 km/h
3034 08-05-2014 14:00:00 15.83333 C 8.5 g/m*3 15.83 C 16.23333 km/h
3035 08-05-2014 15:00:00 16.025 C 8.62 g/m*3 16.02 C 13.3 km/h
3036 08-05-2014 16:00:00 14.8 C 9.31 g/m*3 14.8 C 5.36667 km/h
3037 08-05-2014 17:00:00 12.75833 C 9.75 g/m*3 12.76 C 3.06667 km/h
3038 08-05-2014 18:00:00 12.18333 C 10.08 g/m*3 12.18 C 0.13333 km/h
3039 08-05-2014 19:00:00 12.23333 C 10.06 g/m*3 12.23 C 3.48333 km/h
3040 08-05-2014 20:00:00 12.55 C 9.93 g/m*3 12.55 C 10.6 km/h
3041 08-05-2014 21:00:00 12.38333 C 9.93 g/m*3 12.38 C 16.23333 km/h
3042 08-05-2014 22:00:00 12.74167 C 10.08 g/m*3 12.74 C 17.70833 km/h
3043 08-05-2014 23:00:00 13 C 10.22 g/m*3 13 C 13.7 km/h
3044 09-05-2014 00:00:00 13.54167 C 10.32 g/m*3 13.54 C 20.25 km/h
3045 09-05-2014 01:00:00 13.63333 C 10.38 g/m*3 13.63 C 19.19167 km/h
3046 09-05-2014 02:00:00 13.74167 C 10.44 g/m*3 13.74 C 11.275 km/h
3047 09-05-2014 03:00:00 13.84167 C 10.62 g/m*3 13.84 C 8.05833 km/h
3048 09-05-2014 04:00:00 13.38333 C 10.59 g/m*3 13.38 C 4.95833 km/h
3049 09-05-2014 05:00:00 13.14167 C 10.49 g/m*3 13.14 C 4.15 km/h
3050 09-05-2014 06:00:00 13.05 C 10.46 g/m*3 13.05 C 2.675 km/h
Sensor: Nr:Datum:Temp:Abs-Feuchte:Windchill:Wind:
Aussen-T/F 3051 09-05-2014 07:00:00 13.84167 C 10.3 g/m*3 13.84 C 6.29167 km/h
3052 09-05-2014 08:00:00 14.85 C 10.61 g/m*3 14.85 C 9.01667 km/h
3053 09-05-2014 09:00:00 15.48333 C 10.2 g/m*3 15.48 C 11.95833 km/h
3054 09-05-2014 10:00:00 16.14167 C 9.52 g/m*3 16.14 C 15.96667 km/h
3055 09-05-2014 11:00:00 17.19167 C 8.73 g/m*3 17.19 C 19.96667 km/h
3056 09-05-2014 12:00:00 17.7 C 8.59 g/m*3 17.7 C 17.83333 km/h
3057 09-05-2014 13:00:00 18.29167 C 8.61 g/m*3 18.29 C 20.36667 km/h
3058 09-05-2014 14:00:00 17.65 C 7.72 g/m*3 17.65 C 22.51667 km/h
3059 09-05-2014 15:00:00 17.2 C 7.74 g/m*3 17.2 C 14.9 km/h
3060 09-05-2014 16:00:00 17.60833 C 8.03 g/m*3 17.61 C 14.76667 km/h
3061 09-05-2014 17:00:00 18.3 C 7.82 g/m*3 18.3 C 17.83333 km/h
3062 09-05-2014 18:00:00 17.76667 C 7.67 g/m*3 17.77 C 14.5 km/h
3063 09-05-2014 19:00:00 17.3 C 7.27 g/m*3 17.3 C 14.63333 km/h
3064 09-05-2014 20:00:00 15.33333 C 8.11 g/m*3 15.33 C 16.375 km/h
3065 09-05-2014 21:00:00 13.33333 C 8.53 g/m*3 13.33 C 3.75833 km/h
3066 09-05-2014 22:00:00 12.825 C 8.53 g/m*3 12.83 C 5.23333 km/h
3067 09-05-2014 23:00:00 12.86667 C 8 g/m*3 12.87 C 8.45833 km/h
3068 10-05-2014 00:00:00 11.96667 C 7.76 g/m*3 11.97 C 4.95833 km/h
3069 10-05-2014 01:00:00 10.95 C 7.48 g/m*3 10.95 C 3.6 km/h
3070 10-05-2014 02:00:00 10.275 C 7.31 g/m*3 10.28 C 3.46667 km/h
3071 10-05-2014 03:00:00 10.29167 C 7.33 g/m*3 10.29 C 3.60833 km/h
3072 10-05-2014 04:00:00 10.06667 C 7.5 g/m*3 10.07 C 4.54167 km/h
3073 10-05-2014 05:00:00 10.35833 C 7.72 g/m*3 10.06 C 5.35 km/h
3074 10-05-2014 06:00:00 10.30833 C 7.88 g/m*3 10.31 C 1.6 km/h
3075 10-05-2014 07:00:00 10.71667 C 8.1 g/m*3 10.72 C 1.2 km/h
Sensor: Nr:Datum:Temp:Abs-Feuchte:Windchill:Wind:
Aussen-T/F 3076 10-05-2014 08:00:00 11.79167 C 8.33 g/m*3 11.79 C 5.5 km/h
3077 10-05-2014 09:00:00 12.5 C 8.46 g/m*3 12.5 C 5.75833 km/h
3078 10-05-2014 10:00:00 12.85 C 9.42 g/m*3 12.85 C 1.2 km/h
3079 10-05-2014 11:00:00 13.24167 C 10.02 g/m*3 13.24 C 3.06667 km/h
3080 10-05-2014 12:00:00 15.15833 C 10.18 g/m*3 15.16 C 4.55 km/h
3081 10-05-2014 13:00:00 15.64167 C 9.31 g/m*3 15.64 C 13.54167 km/h
3082 10-05-2014 14:00:00 14.04167 C 9.41 g/m*3 14.04 C 10.48333 km/h
3083 10-05-2014 15:00:00 13.79167 C 10.08 g/m*3 13.79 C 4.14167 km/h
3084 10-05-2014 16:00:00 14.38333 C 9.96 g/m*3 14.38 C 8.59167 km/h
3085 10-05-2014 17:00:00 14.20833 C 9.93 g/m*3 14.21 C 12.61667 km/h
3086 10-05-2014 18:00:00 13.70833 C 9.7 g/m*3 13.71 C 16.5 km/h
3087 10-05-2014 19:00:00 13.49167 C 10.06 g/m*3 13.49 C 11.68333 km/h
3088 10-05-2014 20:00:00 13.43333 C 10.49 g/m*3 13.43 C 4.55833 km/h
3089 10-05-2014 21:00:00 13.35833 C 10.47 g/m*3 13.36 C 9.65833 km/h
3090 10-05-2014 22:00:00 10.95833 C 9.13 g/m*3 10.96 C 3.86667 km/h
3091 10-05-2014 23:00:00 10.325 C 9.07 g/m*3 10.33 C 2 km/h
3092 11-05-2014 00:00:00 10.34167 C 9.12 g/m*3 10.34 C 1.475 km/h
3093 11-05-2014 01:00:00 9.76667 C 8.8 g/m*3 9.77 C 0.66667 km/h
3094 11-05-2014 02:00:00 9.38333 C 8.5 g/m*3 9.38 C 2.4 km/h
3095 11-05-2014 03:00:00 8.475 C 7.97 g/m*3 8.48 C 1.73333 km/h
3096 11-05-2014 04:00:00 8.70833 C 7.94 g/m*3 8.05 C 5.78333 km/h
3097 11-05-2014 05:00:00 9.19167 C 7.56 g/m*3 8.04 C 8.075 km/h
3098 11-05-2014 06:00:00 9.16667 C 7.59 g/m*3 7.7 C 9.65833 km/h
3099 11-05-2014 07:00:00 9.88333 C 7.65 g/m*3 7.92 C 13.83333 km/h
3100 11-05-2014 08:00:00 10.55833 C 7.76 g/m*3 8.58 C 15.15833 km/h
Sensor: Nr:Datum:Temp:Abs-Feuchte:Windchill:Wind:
Aussen-T/F 3101 11-05-2014 09:00:00 11.375 C 7.85 g/m*3 11.38 C 14.36667 km/h
3102 11-05-2014 10:00:00 12.53333 C 7.68 g/m*3 12.53 C 17.83333 km/h
3103 11-05-2014 11:00:00 12.325 C 8.21 g/m*3 12.33 C 15.95833 km/h
3104 11-05-2014 12:00:00 11.86667 C 9.02 g/m*3 11.87 C 13.00833 km/h
3105 11-05-2014 13:00:00 13.78333 C 8.63 g/m*3 13.78 C 17.30833 km/h
3106 11-05-2014 14:00:00 12.24167 C 8.7 g/m*3 12.24 C 19.3 km/h
3107 11-05-2014 15:00:00 15.05 C 8.82 g/m*3 15.05 C 16.1 km/h
3108 11-05-2014 16:00:00 14.075 C 8.81 g/m*3 14.08 C 13.95833 km/h
3109 11-05-2014 17:00:00 14.25833 C 8.73 g/m*3 14.26 C 15.16667 km/h
3110 11-05-2014 18:00:00 14.29167 C 7.89 g/m*3 14.29 C 15.03333 km/h
3111 11-05-2014 19:00:00 13.44167 C 7.98 g/m*3 13.44 C 9.40833 km/h
3112 11-05-2014 20:00:00 11.43333 C 8.14 g/m*3 11.43 C 7.25 km/h
3113 11-05-2014 21:00:00 11.01667 C 8.2 g/m*3 11.02 C 2.93333 km/h
3114 11-05-2014 22:00:00 10.85 C 8.3 g/m*3 10.85 C 2.80833 km/h
3115 11-05-2014 23:00:00 10.96667 C 7.3 g/m*3 10.21 C 7.64167 km/h
3116 12-05-2014 00:00:00 10.84167 C 7.11 g/m*3 9.16 C 13.29167 km/h
3117 12-05-2014 01:00:00 9.975 C 7.22 g/m*3 8.12 C 13.15833 km/h
3118 12-05-2014 02:00:00 9.56667 C 7.11 g/m*3 7.88 C 11.40833 km/h
3119 12-05-2014 03:00:00 8.975 C 7.2 g/m*3 7.44 C 9.8 km/h
3120 12-05-2014 04:00:00 8.49167 C 7.2 g/m*3 7.23 C 8.04167 km/h
3121 12-05-2014 05:00:00 8.525 C 7.1 g/m*3 7.26 C 8.05833 km/h
3122 12-05-2014 06:00:00 8.39167 C 7.08 g/m*3 7.05 C 8.325 km/h
3123 12-05-2014 07:00:00 9.10833 C 7.21 g/m*3 7.53 C 10.21667 km/h
3124 12-05-2014 08:00:00 9.95833 C 7.37 g/m*3 8.48 C 10.625 km/h
3125 12-05-2014 09:00:00 10.68333 C 7.47 g/m*3 9 C 13.03333 km/h
Sensor: Nr:Datum:Temp:Abs-Feuchte:Windchill:Wind:
Aussen-T/F 3126 12-05-2014 10:00:00 11.24167 C 7.79 g/m*3 11.24 C 11.96667 km/h
3127 12-05-2014 11:00:00 12.11667 C 7.7 g/m*3 12.12 C 14.5 km/h
3128 12-05-2014 12:00:00 13.475 C 7.73 g/m*3 13.48 C 13.55833 km/h
3129 12-05-2014 13:00:00 13.43333 C 8.05 g/m*3 13.43 C 15.83333 km/h
3130 12-05-2014 14:00:00 13.48333 C 8.02 g/m*3 13.48 C 15.7 km/h
3131 12-05-2014 15:00:00 14.31667 C 7.85 g/m*3 14.32 C 17.03333 km/h
3132 12-05-2014 16:00:00 15.29167 C 7.84 g/m*3 15.29 C 15.55833 km/h
3133 12-05-2014 17:00:00 13.66667 C 7.51 g/m*3 13.67 C 15.025 km/h
3134 12-05-2014 18:00:00 11.925 C 7.56 g/m*3 11.93 C 7.51667 km/h
3135 12-05-2014 19:00:00 12.43333 C 7.93 g/m*3 12.43 C 3.34167 km/h
3136 12-05-2014 20:00:00 11.3 C 8.36 g/m*3 11.3 C 0.4 km/h
3137 12-05-2014 21:00:00 11.11667 C 7.81 g/m*3 11.12 C 2.80833 km/h
3138 12-05-2014 22:00:00 10.675 C 7.58 g/m*3 10.68 C 3.34167 km/h
3139 12-05-2014 23:00:00 9.66667 C 7.59 g/m*3 9.67 C 0.4 km/h
3140 13-05-2014 00:00:00 9.35833 C 7.56 g/m*3 9.36 C 2.40833 km/h
3141 13-05-2014 01:00:00 9.76667 C 7.52 g/m*3 9.77 C 4.53333 km/h
3142 13-05-2014 02:00:00 9.425 C 7.68 g/m*3 8.5 C 7.24167 km/h
3143 13-05-2014 03:00:00 8.9 C 7.77 g/m*3 8.9 C 4.94167 km/h
3144 13-05-2014 04:00:00 8.66667 C 7.63 g/m*3 8.67 C 3.475 km/h
3145 13-05-2014 05:00:00 8.69167 C 7.55 g/m*3 8.69 C 3.6 km/h
3146 13-05-2014 06:00:00 8.675 C 7.41 g/m*3 8.68 C 4.95 km/h
3147 13-05-2014 07:00:00 8.4 C 7.4 g/m*3 8.4 C 4.29167 km/h
3148 13-05-2014 08:00:00 9.74167 C 7.79 g/m*3 8.67 C 8.18333 km/h
3149 13-05-2014 09:00:00 10.96667 C 7.91 g/m*3 9.51 C 11.825 km/h
3150 13-05-2014 10:00:00 11.35833 C 7.92 g/m*3 11.36 C 8.88333 km/h
Sensor: Nr:Datum:Temp:Abs-Feuchte:Windchill:Wind:
Aussen-T/F 3151 13-05-2014 11:00:00 12.55833 C 8.17 g/m*3